[[{"header":{"parameterUnit":"m.s-1","parameterCategory":1,"la1":30.6,"la2":29.2853,"lo1":-89.7004,"lo2":-87.6739,"dy":0.0162,"dx":0.0183,"nx":112,"ny":82,"refTime":"2025-05-16T00:00:00:Z","depth":0,"parameterNumber":2,"parameterNumberName":"U-component_of_WINDS"},"data":[0.0,0.0,0.0,0.0,0.0,0.0,0.0,0.0,0.0,0.0,0.0,0.0,0.0,0.0,0.0,0.0,0.0,0.0,0.0,0.0,0.0,0.0,0.0,0.0,0.0,0.0,0.0,0.0,0.0,0.0,0.0,0.0,0.0,0.0,0.0,0.0,0.0,0.0,0.0,0.0,0.0,0.0,0.0,0.0,0.0,0.0,0.0,0.0,0.0,0.0,0.0,0.0,0.0,0.0,0.0,0.0,0.0,0.0,0.0,0.0,0.0,0.0,0.0,0.0,0.0,0.0,0.0,0.0,0.0,0.0,0.0,0.0,0.0,0.0,0.0,0.0,0.0,0.0,0.0,0.0,0.0,0.0,0.0,0.0,0.0,0.0,0.0,0.0,0.0,0.0,-5.4395,-5.4664,-5.6079,-5.6907,-5.6637,-5.5184,-5.3606,-5.2,0.0,0.0,0.0,0.0,0.0,0.0,0.0,0.0,0.0,0.0,0.0,0.0,0.0,0.0,0.0,0.0,0.0,0.0,0.0,0.0,0.0,0.0,0.0,0.0,0.0,0.0,0.0,0.0,0.0,0.0,0.0,0.0,0.0,0.0,0.0,0.0,0.0,0.0,0.0,0.0,0.0,0.0,0.0,0.0,0.0,0.0,0.0,0.0,0.0,0.0,0.0,0.0,0.0,0.0,0.0,0.0,0.0,0.0,0.0,0.0,0.0,0.0,0.0,0.0,0.0,0.0,0.0,0.0,0.0,0.0,0.0,0.0,0.0,0.0,0.0,0.0,0.0,0.0,0.0,0.0,0.0,0.0,0.0,0.0,0.0,0.0,0.0,0.0,0.0,0.0,0.0,0.0,0.0,0.0,0.0,0.0,0.0,0.0,0.0,0.0,0.0,0.0,0.0,0.0,-5.3933,-5.5376,-5.6406,-5.6426,-5.4991,-5.3972,-5.2972,-5.1962,0.0,0.0,0.0,0.0,0.0,0.0,0.0,0.0,0.0,0.0,0.0,0.0,0.0,0.0,0.0,0.0,0.0,0.0,0.0,0.0,0.0,0.0,0.0,0.0,0.0,0.0,0.0,0.0,0.0,0.0,0.0,0.0,0.0,0.0,0.0,0.0,0.0,0.0,0.0,0.0,0.0,0.0,0.0,0.0,0.0,0.0,0.0,0.0,0.0,0.0,0.0,0.0,0.0,0.0,0.0,0.0,0.0,0.0,0.0,0.0,0.0,0.0,0.0,0.0,0.0,0.0,0.0,0.0,0.0,0.0,0.0,0.0,0.0,0.0,0.0,0.0,0.0,0.0,0.0,0.0,0.0,0.0,0.0,0.0,0.0,0.0,0.0,0.0,0.0,0.0,0.0,0.0,0.0,0.0,0.0,0.0,0.0,0.0,0.0,0.0,0.0,0.0,0.0,-5.2779,-5.3837,-5.5511,-5.6049,-5.5799,-5.4607,-5.3703,-5.2645,-5.1337,-4.9644,0.0,0.0,0.0,0.0,0.0,0.0,0.0,0.0,0.0,0.0,0.0,0.0,0.0,0.0,0.0,0.0,0.0,0.0,0.0,0.0,0.0,0.0,0.0,0.0,0.0,0.0,0.0,0.0,0.0,0.0,0.0,0.0,0.0,0.0,0.0,0.0,0.0,0.0,0.0,0.0,0.0,0.0,0.0,0.0,0.0,0.0,0.0,0.0,0.0,0.0,0.0,0.0,0.0,0.0,0.0,0.0,0.0,0.0,0.0,0.0,0.0,0.0,0.0,0.0,0.0,0.0,0.0,0.0,0.0,0.0,0.0,0.0,0.0,0.0,0.0,0.0,0.0,0.0,0.0,0.0,0.0,0.0,0.0,0.0,0.0,0.0,0.0,0.0,0.0,0.0,0.0,0.0,0.0,0.0,0.0,0.0,0.0,0.0,0.0,0.0,0.0,0.0,-5.3491,-5.3837,-5.5511,-5.553,-5.5068,-5.426,-5.3395,-5.2279,-5.0789,-4.9067,0.0,0.0,0.0,0.0,0.0,0.0,0.0,0.0,0.0,0.0,0.0,0.0,0.0,0.0,0.0,0.0,0.0,0.0,0.0,0.0,0.0,0.0,0.0,0.0,0.0,0.0,0.0,0.0,0.0,0.0,0.0,0.0,0.0,0.0,0.0,0.0,0.0,0.0,0.0,0.0,0.0,0.0,0.0,0.0,0.0,0.0,0.0,0.0,0.0,0.0,0.0,0.0,0.0,0.0,0.0,0.0,0.0,0.0,0.0,0.0,0.0,0.0,0.0,0.0,0.0,0.0,0.0,0.0,0.0,0.0,0.0,0.0,0.0,0.0,0.0,0.0,0.0,0.0,0.0,0.0,0.0,0.0,0.0,0.0,0.0,0.0,0.0,0.0,0.0,0.0,0.0,0.0,0.0,0.0,0.0,0.0,0.0,0.0,0.0,0.0,0.0,0.0,-5.2741,-5.3837,-5.5511,-5.503,-5.4222,-5.3376,-5.2481,-5.1625,-5.075,-4.9067,0.0,0.0,0.0,0.0,0.0,0.0,0.0,0.0,0.0,0.0,0.0,0.0,0.0,0.0,0.0,0.0,0.0,0.0,0.0,0.0,0.0,0.0,0.0,0.0,0.0,0.0,0.0,0.0,0.0,0.0,0.0,0.0,0.0,0.0,0.0,0.0,0.0,0.0,0.0,0.0,0.0,0.0,0.0,0.0,0.0,0.0,0.0,0.0,0.0,0.0,0.0,0.0,0.0,0.0,0.0,0.0,0.0,0.0,0.0,0.0,0.0,0.0,0.0,0.0,0.0,0.0,0.0,0.0,0.0,0.0,0.0,0.0,0.0,0.0,0.0,0.0,0.0,0.0,0.0,0.0,0.0,0.0,0.0,0.0,0.0,0.0,0.0,0.0,0.0,0.0,0.0,0.0,0.0,0.0,0.0,0.0,0.0,0.0,0.0,0.0,0.0,0.0,-5.1875,-5.2837,-5.403,-5.3876,-5.3337,-5.2462,-5.2096,-5.1308,-4.9971,0.0,0.0,0.0,0.0,0.0,0.0,0.0,0.0,0.0,0.0,0.0,0.0,0.0,0.0,0.0,0.0,0.0,0.0,0.0,0.0,0.0,0.0,0.0,0.0,0.0,0.0,0.0,0.0,0.0,0.0,0.0,0.0,0.0,0.0,0.0,0.0,0.0,0.0,0.0,0.0,0.0,0.0,0.0,0.0,0.0,0.0,0.0,0.0,0.0,0.0,0.0,0.0,0.0,0.0,0.0,0.0,0.0,0.0,0.0,0.0,0.0,0.0,0.0,0.0,0.0,0.0,0.0,0.0,0.0,0.0,0.0,0.0,0.0,0.0,0.0,0.0,0.0,0.0,0.0,0.0,0.0,0.0,0.0,0.0,0.0,0.0,0.0,0.0,0.0,0.0,0.0,0.0,0.0,0.0,0.0,0.0,0.0,0.0,0.0,0.0,0.0,0.0,-5.0087,-5.1241,-5.2231,-5.3106,-5.2953,-5.2538,-5.1942,-5.1673,-5.0914,-4.949,0.0,0.0,0.0,0.0,0.0,0.0,0.0,0.0,0.0,0.0,0.0,0.0,0.0,0.0,0.0,0.0,0.0,0.0,0.0,0.0,0.0,0.0,0.0,0.0,0.0,0.0,0.0,0.0,0.0,0.0,0.0,0.0,0.0,0.0,0.0,0.0,0.0,0.0,0.0,0.0,0.0,0.0,0.0,0.0,0.0,0.0,0.0,0.0,0.0,0.0,0.0,0.0,0.0,0.0,0.0,0.0,0.0,0.0,0.0,0.0,0.0,0.0,0.0,0.0,0.0,0.0,0.0,0.0,0.0,0.0,0.0,0.0,0.0,0.0,0.0,0.0,0.0,0.0,0.0,0.0,0.0,0.0,0.0,0.0,0.0,0.0,0.0,0.0,0.0,0.0,0.0,0.0,0.0,0.0,0.0,0.0,0.0,0.0,0.0,0.0,0.0,0.0,-4.9288,-5.0856,-5.2222,-5.3087,-5.2395,-5.1885,-5.1885,-5.1164,-5.0327,0.0,0.0,0.0,0.0,0.0,0.0,0.0,0.0,0.0,0.0,0.0,0.0,0.0,0.0,0.0,0.0,0.0,0.0,0.0,0.0,0.0,0.0,0.0,0.0,0.0,0.0,0.0,0.0,0.0,0.0,0.0,0.0,0.0,0.0,0.0,0.0,0.0,0.0,0.0,0.0,0.0,0.0,0.0,0.0,0.0,0.0,0.0,0.0,0.0,0.0,0.0,0.0,0.0,0.0,0.0,0.0,0.0,0.0,0.0,0.0,0.0,0.0,0.0,0.0,0.0,0.0,0.0,0.0,0.0,0.0,0.0,0.0,0.0,0.0,0.0,0.0,0.0,0.0,0.0,0.0,0.0,0.0,0.0,0.0,0.0,0.0,0.0,0.0,0.0,0.0,0.0,0.0,0.0,0.0,0.0,0.0,0.0,0.0,0.0,0.0,0.0,0.0,0.0,-4.8657,-5.022,-5.1346,-5.1556,-5.1355,-5.1168,-5.1068,-5.0846,-4.9817,-4.7778,0.0,0.0,0.0,0.0,0.0,0.0,0.0,0.0,0.0,0.0,0.0,0.0,0.0,0.0,0.0,0.0,0.0,0.0,0.0,0.0,0.0,0.0,0.0,0.0,0.0,0.0,0.0,0.0,0.0,0.0,0.0,0.0,0.0,0.0,0.0,0.0,0.0,0.0,0.0,0.0,0.0,0.0,0.0,0.0,0.0,0.0,0.0,0.0,0.0,0.0,0.0,0.0,0.0,0.0,0.0,0.0,0.0,0.0,0.0,0.0,0.0,0.0,0.0,0.0,0.0,0.0,0.0,0.0,0.0,0.0,0.0,0.0,0.0,0.0,0.0,0.0,0.0,0.0,0.0,0.0,0.0,0.0,0.0,0.0,0.0,0.0,0.0,0.0,0.0,0.0,0.0,0.0,0.0,0.0,0.0,0.0,0.0,0.0,0.0,0.0,0.0,0.0,-4.8397,-4.9965,-5.0978,-5.0932,-5.0944,-5.0898,-5.0784,-5.0775,-4.9679,-4.7067,0.0,0.0,0.0,0.0,0.0,0.0,0.0,0.0,0.0,0.0,0.0,0.0,0.0,0.0,0.0,0.0,0.0,0.0,0.0,0.0,0.0,0.0,0.0,0.0,0.0,0.0,0.0,0.0,0.0,0.0,0.0,0.0,0.0,0.0,0.0,0.0,0.0,0.0,0.0,0.0,0.0,0.0,0.0,0.0,0.0,0.0,0.0,0.0,0.0,0.0,0.0,0.0,0.0,0.0,0.0,0.0,0.0,0.0,0.0,0.0,0.0,0.0,0.0,0.0,0.0,0.0,0.0,0.0,0.0,0.0,0.0,0.0,0.0,0.0,0.0,0.0,0.0,0.0,0.0,0.0,0.0,0.0,0.0,0.0,0.0,0.0,0.0,0.0,0.0,0.0,0.0,0.0,0.0,0.0,0.0,0.0,0.0,0.0,0.0,0.0,0.0,0.0,-4.8414,-4.9989,-5.1036,-5.1025,-5.0948,-5.0875,-5.0789,-5.0716,-4.9525,-4.6852,0.0,0.0,0.0,0.0,0.0,0.0,0.0,0.0,0.0,0.0,0.0,0.0,0.0,0.0,0.0,0.0,0.0,0.0,0.0,0.0,0.0,0.0,0.0,0.0,0.0,0.0,0.0,0.0,0.0,0.0,0.0,0.0,0.0,0.0,0.0,0.0,0.0,0.0,0.0,0.0,0.0,0.0,0.0,0.0,0.0,0.0,0.0,0.0,0.0,0.0,0.0,0.0,0.0,0.0,0.0,0.0,0.0,0.0,0.0,0.0,-5.1926,-5.1406,0.0,0.0,0.0,0.0,0.0,0.0,0.0,0.0,0.0,0.0,0.0,0.0,0.0,0.0,0.0,0.0,0.0,0.0,0.0,0.0,0.0,0.0,0.0,0.0,0.0,0.0,0.0,0.0,0.0,0.0,0.0,0.0,0.0,0.0,0.0,0.0,0.0,0.0,0.0,0.0,-4.8603,-5.0274,-5.1266,-5.1172,-5.0544,-5.0101,-5.004,-4.9401,-4.787,-4.5184,-4.5022,0.0,0.0,0.0,0.0,0.0,0.0,0.0,0.0,0.0,0.0,0.0,0.0,0.0,0.0,0.0,0.0,0.0,0.0,0.0,0.0,0.0,0.0,0.0,0.0,0.0,0.0,0.0,0.0,0.0,0.0,0.0,0.0,0.0,0.0,0.0,0.0,0.0,0.0,0.0,0.0,0.0,0.0,0.0,0.0,0.0,0.0,0.0,0.0,0.0,0.0,0.0,0.0,0.0,0.0,0.0,0.0,0.0,0.0,0.0,-5.2852,-5.229,0.0,0.0,0.0,0.0,0.0,0.0,0.0,0.0,0.0,0.0,0.0,0.0,0.0,0.0,0.0,0.0,0.0,0.0,0.0,0.0,0.0,0.0,0.0,0.0,0.0,0.0,0.0,0.0,0.0,0.0,0.0,0.0,0.0,0.0,0.0,0.0,0.0,0.0,0.0,0.0,-4.8628,-4.9659,-5.0313,-5.0644,-4.9913,-4.9373,-4.9279,-4.8861,-4.7631,-4.5316,-4.5168,0.0,0.0,0.0,0.0,0.0,0.0,0.0,0.0,0.0,0.0,0.0,0.0,0.0,0.0,0.0,0.0,0.0,0.0,0.0,0.0,0.0,0.0,0.0,0.0,0.0,0.0,0.0,0.0,0.0,0.0,0.0,0.0,0.0,0.0,0.0,0.0,0.0,0.0,0.0,0.0,0.0,0.0,0.0,0.0,0.0,0.0,0.0,0.0,0.0,0.0,0.0,0.0,0.0,-5.447,-5.447,-5.4334,-5.4334,-5.4237,-5.41,-5.41,-5.358,-5.2699,-5.2623,0.0,0.0,0.0,0.0,0.0,0.0,0.0,0.0,0.0,0.0,0.0,0.0,0.0,0.0,0.0,0.0,0.0,0.0,0.0,0.0,0.0,0.0,-5.0233,-4.9508,-4.988,-5.0213,-4.9489,0.0,0.0,0.0,0.0,0.0,0.0,0.0,0.0,0.0,0.0,0.0,-4.8377,-4.8804,-4.9153,-4.9817,-4.9153,-4.8633,-4.8524,-4.8362,-4.7551,-4.5828,-4.5706,-4.4671,0.0,0.0,0.0,0.0,0.0,0.0,0.0,0.0,0.0,0.0,0.0,0.0,0.0,0.0,0.0,0.0,0.0,0.0,0.0,0.0,0.0,0.0,0.0,0.0,0.0,0.0,0.0,0.0,0.0,0.0,0.0,0.0,-5.7129,-5.7899,0.0,0.0,0.0,0.0,0.0,0.0,0.0,0.0,0.0,0.0,0.0,0.0,0.0,-5.4912,-5.5683,-5.646,-5.6825,-5.6825,-5.7589,-5.757,-5.6825,-5.6825,-5.64,-5.5703,-5.5703,0.0,-5.3494,-5.2805,0.0,0.0,0.0,0.0,0.0,0.0,0.0,0.0,0.0,0.0,0.0,0.0,0.0,0.0,0.0,0.0,0.0,0.0,0.0,0.0,0.0,0.0,-5.1211,-5.1094,-5.1152,-5.1211,-5.1094,-4.9939,-4.8607,-4.7611,-4.6712,-4.5815,0.0,0.0,0.0,0.0,0.0,0.0,-4.7637,-4.8436,-4.8943,-4.904,-4.8295,-4.7763,-4.7758,-4.7057,-4.6144,-4.503,-4.4946,-4.4421,-4.3258,-4.1757,0.0,0.0,0.0,0.0,0.0,0.0,0.0,0.0,0.0,0.0,0.0,0.0,0.0,0.0,0.0,0.0,0.0,0.0,0.0,0.0,0.0,0.0,0.0,0.0,0.0,0.0,0.0,0.0,0.0,-5.7569,-5.8204,-5.7627,-5.805,-5.7522,0.0,0.0,0.0,0.0,0.0,0.0,0.0,0.0,0.0,-5.5972,-5.603,-5.6474,-5.7342,-5.7757,-5.7978,-5.7978,-5.8401,-5.8139,-5.7299,-5.7299,-5.6815,-5.6012,-5.6012,-5.5622,-5.4938,-5.4177,-5.3297,-5.2394,0.0,0.0,0.0,0.0,-5.1288,-5.1293,-5.1333,-5.1338,-5.1223,-5.0449,0.0,0.0,0.0,0.0,0.0,0.0,0.0,-5.0293,-5.0762,-5.1133,-5.1406,-5.1406,-5.1406,-5.1406,-5.1406,-5.082,-4.9901,-4.8592,-4.7635,-4.6444,-4.4589,-4.3945,0.0,0.0,0.0,-4.6055,-4.7422,-4.7519,-4.7636,-4.8125,-4.7382,-4.6873,-4.6871,-4.6519,-4.6105,-4.5677,-4.5636,-4.5226,-4.4286,-4.3036,-4.1726,0.0,0.0,0.0,0.0,0.0,0.0,0.0,0.0,0.0,0.0,0.0,0.0,0.0,0.0,0.0,0.0,0.0,0.0,0.0,0.0,0.0,0.0,0.0,0.0,0.0,0.0,0.0,0.0,-5.8378,-5.877,-5.7536,-5.8928,-5.8652,0.0,0.0,0.0,0.0,0.0,0.0,-5.641,-5.649,-5.6877,-5.7686,-5.7716,-5.815,-5.9018,-5.9108,-5.9138,-5.9138,-5.8983,-5.845,-5.759,-5.7396,-5.6815,-5.6012,-5.6012,-5.6012,-5.5943,-5.5191,-5.4,-5.2626,-5.2495,-5.1938,-5.1203,-5.1203,-5.1203,-5.1211,-5.1263,-5.1279,-5.1186,-5.063,-5.0327,-5.0037,-4.9414,0.0,0.0,0.0,0.0,-5.0644,-5.123,-5.1406,-5.1406,-5.1406,-5.1406,-5.1406,-5.1406,-5.123,-5.0781,-4.9746,-4.8672,-4.7305,-4.5371,-4.4668,0.0,-4.4375,-4.4922,-4.5801,-4.7109,-4.6699,-4.6543,-4.7207,-4.6699,-4.6308,-4.6307,-4.6307,-4.6209,-4.5971,-4.5971,-4.5554,-4.4631,-4.3749,-4.2542,-4.0971,0.0,0.0,0.0,0.0,0.0,0.0,0.0,0.0,0.0,0.0,0.0,0.0,0.0,0.0,0.0,0.0,0.0,0.0,0.0,0.0,0.0,0.0,0.0,0.0,0.0,0.0,0.0,0.0,0.0,-5.8432,-6.0193,0.0,0.0,0.0,0.0,-5.6537,-5.745,-5.8127,-5.8165,-5.8184,-5.8561,-5.935,-5.9433,-5.989,-6.0776,-6.083,-6.0882,-6.0862,-6.0094,-5.9283,-5.8414,-5.7648,-5.6815,-5.6012,-5.6012,-5.6012,-5.5935,-5.5131,-5.4296,-5.3449,-5.2626,-5.1862,-5.1203,-5.1203,-5.1203,-5.1203,-5.1207,-5.1207,-5.1207,-5.1152,-5.0634,-5.0037,-5.0116,-5.0137,0.0,0.0,-5.0742,-5.1348,-5.1387,-5.1406,-5.1406,-5.1406,-5.1406,-5.1406,-5.1406,-5.0801,-5.0469,-5.1133,-4.9941,-4.8789,-4.8652,0.0,-4.6172,-4.6172,-4.6211,-4.6269,-4.6348,-4.6328,-4.6328,-4.6367,-4.6328,-4.6308,-4.6308,-4.6308,-4.5957,-4.5115,-4.5076,-4.4665,-4.38,-4.292,-4.2022,-4.1104,-3.9323,0.0,0.0,0.0,0.0,0.0,0.0,0.0,0.0,0.0,0.0,0.0,0.0,0.0,0.0,0.0,0.0,0.0,0.0,0.0,0.0,0.0,0.0,0.0,0.0,0.0,0.0,0.0,0.0,-5.9282,-6.0858,0.0,-5.8605,-5.9133,-5.9636,-5.9712,-5.9879,-6.0198,-6.0731,-6.0495,-6.0348,-6.0339,-6.0362,-6.0527,-6.0835,-6.0891,-6.0944,-6.0944,-6.012,-5.9272,-5.8413,-5.7602,-5.678,-5.6007,-5.5995,-5.5722,-5.5219,-5.4929,-5.4304,-5.3506,-5.3196,-5.2225,-5.1005,-5.1005,-5.1005,-5.1017,-5.11,-5.1146,-5.1137,-5.1183,-5.1007,-5.0777,-5.084,-5.0867,-5.0904,-5.0904,-5.1149,-5.1406,-5.1406,-5.1406,-5.1406,-5.1406,-5.1406,-5.1269,-5.0742,-5.0391,-5.0117,-4.9844,-4.8867,-4.7715,-4.6582,-4.6348,-4.6113,-4.5547,-4.5937,-4.6308,-4.6308,-4.6308,-4.6308,-4.6308,-4.6308,-4.6074,-4.5508,-4.5469,-4.5098,-4.4218,-4.416,-4.4023,-4.371,-4.2851,-4.2244,-4.193,-4.0247,-3.8887,0.0,0.0,0.0,0.0,0.0,0.0,0.0,0.0,0.0,0.0,0.0,0.0,0.0,0.0,0.0,0.0,0.0,0.0,0.0,0.0,0.0,0.0,0.0,0.0,0.0,-5.8864,-5.983,-5.9775,-6.1616,-6.2049,-5.9982,-6.0497,-6.1136,-6.1552,-6.1286,-6.129,-6.1699,-6.1329,-6.0909,-6.0468,-6.0572,-6.0629,-6.0629,-6.0781,-6.0723,-6.0415,-5.9614,-5.8767,-5.7938,-5.713,-5.6473,-5.5952,-5.5678,-5.5251,-5.4749,-5.4476,-5.3846,-5.3053,-5.3053,-5.2182,-5.0898,-5.0898,-5.0898,-5.0914,-5.1004,-5.1037,-5.1056,-5.1142,-5.1176,-5.1161,-5.1191,-5.1239,-5.1272,-5.1272,-5.1306,-5.1363,-5.1363,-5.1386,-5.1328,-5.1055,-5.0996,-5.0762,-4.9941,-4.9531,-4.9141,-4.8574,-4.8008,-4.7226,-4.6074,-4.6113,-4.6094,-4.5527,-4.5937,-4.6308,-4.6308,-4.6308,-4.6191,-4.5898,-4.5859,-4.5508,-4.4648,-4.4551,-4.4199,-4.332,-4.3262,-4.3144,-4.2871,-4.2305,-4.1992,-4.1991,-4.0624,-3.9273,-3.8026,0.0,0.0,0.0,0.0,0.0,0.0,0.0,0.0,0.0,0.0,0.0,0.0,0.0,0.0,0.0,0.0,0.0,0.0,0.0,0.0,0.0,0.0,0.0,-5.7866,-5.9128,-5.994,-5.9998,-6.2483,-6.3071,-6.0301,-6.2127,-6.3027,-6.1862,-6.1619,-6.1382,-6.106,-6.0582,-6.0154,-5.9807,-6.0135,-6.0293,-6.0293,-6.0622,-6.0339,-5.9492,-5.8663,-5.7856,-5.7067,-5.6261,-5.5895,-5.5837,-5.5045,-5.4677,-5.4589,-5.379,-5.2937,-5.2163,-5.219,-5.166,-5.0898,-5.0898,-5.0898,-5.0898,-5.0898,-5.0898,-5.0929,-5.1056,-5.1093,-5.1117,-5.1165,-5.1195,-5.1199,-5.1199,-5.1252,-5.1295,-5.1297,-5.1339,-5.1152,-5.0371,-5.0176,-4.9922,-4.9043,-4.8203,-4.7598,-4.7558,-4.7558,-4.7558,-4.7558,-4.6855,-4.6308,-4.6308,-4.6308,0.0,-4.6308,-4.6289,-4.5937,-4.5098,-4.498,-4.4609,-4.373,-4.3652,-4.3281,-4.2422,-4.2363,-4.2012,-4.123,-4.1191,-4.1191,-4.1191,-4.0332,-3.9062,-3.7344,0.0,0.0,0.0,0.0,0.0,0.0,0.0,0.0,0.0,0.0,0.0,0.0,0.0,0.0,0.0,0.0,0.0,0.0,0.0,0.0,0.0,-5.7179,-5.8163,-5.8469,-5.9857,-6.1057,-6.1651,-6.2932,-6.3456,-6.2654,-6.3171,-6.3553,-6.3513,-6.2664,-6.2071,-6.1879,-6.0947,-6.025,-5.9809,-6.0135,-6.0293,-6.0293,-6.0015,-5.9742,-5.9473,-5.8033,-5.7236,-5.7005,-5.6191,-5.5826,-5.5778,-5.4979,-5.4273,-5.3617,-5.2812,-5.1998,-5.133,-5.1942,-5.166,-5.0898,-5.0898,-5.0898,-5.0898,-5.0898,-5.0898,-5.0906,-5.0932,-5.0947,-5.0954,-5.0977,-5.1042,-5.1131,-5.1131,-5.1189,-5.1245,-5.1288,-5.0836,-5.0359,-5.0234,-4.9726,-4.9023,-4.8144,-4.7773,-4.7402,-4.6777,-4.666,-4.666,-4.666,-4.6465,-4.6308,-4.6308,-4.6308,-4.6308,-4.6308,-4.5742,-4.5273,-4.5039,-4.4433,-4.3691,-4.2832,-4.2754,-4.2402,-4.1582,-4.1523,-4.1426,-4.1211,-4.1191,-4.1191,-4.1191,-4.0332,-3.9355,0.0,0.0,0.0,0.0,0.0,0.0,0.0,0.0,0.0,0.0,0.0,0.0,0.0,0.0,0.0,0.0,0.0,0.0,0.0,0.0,0.0,0.0,-5.8902,-5.9868,-6.0202,-6.1094,-6.2004,-6.2822,-6.3323,-6.3602,-6.3602,-6.3602,-6.3565,-6.3453,-6.2606,-6.1849,-6.1262,-6.0436,-5.9759,-5.9344,-5.9654,-5.9681,-5.9336,-5.9303,-5.8942,-5.8225,-5.7389,-5.681,-5.6445,-5.5976,-5.5563,-5.5197,-5.441,-5.3562,-5.2703,-5.1899,-5.1308,-5.0946,0.0,0.0,0.0,0.0,-5.0898,-5.0898,-5.0898,-5.0898,-5.0898,-5.0898,-5.0898,-5.0898,-5.0898,-5.0947,-5.1017,-5.1017,-5.1072,-5.1078,-5.0762,-5.0329,-4.9816,-4.9209,-4.8686,-4.8083,-4.7246,-4.7051,-4.6914,-4.6406,-4.6016,0.0,-4.5762,-4.5762,-4.5762,-4.5762,-4.5449,-4.5215,-4.5215,-4.4766,-4.4316,-4.3945,-4.3457,-4.2812,-4.1973,-4.1894,0.0,0.0,0.0,-4.1191,-4.1191,-4.1191,0.0,0.0,0.0,0.0,0.0,0.0,0.0,0.0,-3.9091,-3.922,0.0,0.0,0.0,0.0,0.0,0.0,0.0,0.0,0.0,0.0,0.0,0.0,0.0,0.0,0.0,0.0,-6.0757,-6.1592,-6.2387,-6.2498,-6.2758,-6.3505,-6.3602,-6.3602,-6.3602,-6.3602,-6.3286,-6.2469,-6.1937,-6.1137,-5.9942,-5.9435,0.0,0.0,0.0,-5.8727,-5.7995,-5.8437,-5.7922,-5.6492,-5.6702,-5.6412,-5.5703,-5.5607,-5.5184,-5.4453,-5.3542,-5.2695,-5.1924,-5.1113,-5.0838,-5.0908,-5.0901,-5.0898,-5.0898,-5.0898,-5.0898,-5.0898,-5.0898,0.0,0.0,-5.0898,-5.0898,-5.0898,-5.0898,-5.0898,-5.0898,-5.0898,-5.0925,-5.0777,-4.9998,-4.9708,-4.9246,-4.7825,-4.7409,-4.7144,-4.6443,-4.621,-4.6132,-4.6152,-4.5449,-4.4844,-4.4844,-4.4844,-4.4844,-4.4844,-4.4199,-4.3691,-4.3691,-4.3613,-4.3262,-4.248,-4.2324,0.0,-4.1269,-4.1191,-4.1191,-4.1191,-4.1191,-4.1191,-4.1191,-4.1191,-4.1191,-4.1191,-4.1191,-4.1191,-4.1191,-4.1191,-4.1191,-4.1152,-3.9609,-3.9316,0.0,0.0,0.0,0.0,0.0,0.0,0.0,0.0,0.0,0.0,0.0,0.0,0.0,0.0,0.0,-6.0611,-6.1482,-6.2252,-6.2951,-6.3062,-6.3187,-6.3561,-6.3602,-6.3602,-6.3602,-6.3602,-6.3286,-6.2469,-6.1698,-6.0901,-5.9961,-5.9188,-5.8781,-5.8698,-5.8408,-5.8145,-5.7995,-5.7062,-5.6545,-5.6492,-5.5906,0.0,-5.5684,-5.503,-5.4645,-5.4414,-5.2847,-5.2078,-5.1866,-5.1058,-5.0784,-5.0908,-5.0901,-5.0898,-5.0898,-5.0898,-5.0898,-5.0898,-5.0898,-5.0898,-5.0898,-5.0898,-5.0898,-5.0898,-5.0898,-5.0898,0.0,-5.0898,-5.0438,-4.9935,-4.9839,-4.8771,-4.767,-4.7473,-4.6885,-4.6334,-4.6245,-4.5665,-4.5183,-4.5234,-4.4551,-4.3945,-4.3945,-4.3945,-4.3945,-4.3945,-4.3808,-4.3691,-4.3691,-4.3086,-4.2598,-4.2422,-4.1816,-4.1367,-4.1211,-4.1191,-4.1191,-4.1191,-4.1191,-4.1191,-4.1191,-4.1191,-4.1191,-4.1191,-4.1191,-4.1191,-4.1191,-4.1191,-4.1191,-4.1191,-4.0859,-4.0781,0.0,0.0,0.0,0.0,0.0,0.0,0.0,0.0,0.0,0.0,0.0,-5.9271,-5.9339,0.0,-6.13,-6.209,-6.2484,-6.2822,-6.3158,-6.3213,-6.3284,-6.3488,-6.3511,-6.3534,-6.3579,-6.3249,-6.2673,-6.1874,-6.102,-6.0184,-5.9348,-5.8921,-5.8531,-5.8122,-5.7859,-5.7341,-5.65,-5.5997,-5.5621,-5.5394,-5.5157,-5.4975,-5.4833,-5.443,-5.3865,-5.3145,-5.2269,-5.1673,-5.126,-5.0875,-5.0748,-5.0821,-5.0869,-5.0901,-5.0898,-5.0898,-5.0898,-5.0898,-5.0898,-5.0898,-5.0898,-5.0898,-5.0898,-5.0898,-5.0898,-5.0608,-5.0299,-5.0299,-4.9707,-4.8948,-4.8548,-4.7805,-4.706,-4.6775,-4.637,-4.5948,-4.5574,-4.5155,-4.474,-4.4365,-4.3607,-4.3004,-4.3047,-4.2694,-4.2555,-4.2988,-4.2715,-4.2441,-4.2441,-4.207,-4.1797,-4.1797,-4.1445,-4.1191,-4.1191,-4.0801,-4.0547,-4.0547,-4.0137,-4.0098,-4.0527,-4.0547,-4.0742,-4.1191,-4.1191,-4.1191,-4.1191,-4.1191,-4.1191,-4.1191,-4.1191,-4.1191,0.0,0.0,0.0,0.0,0.0,0.0,0.0,-5.8699,-5.9307,-5.9213,-6.0145,-6.1071,-6.1385,-6.199,-6.2641,-6.3266,-6.326,-6.3165,-6.3141,-6.3117,-6.3171,-6.3307,-6.3354,-6.3345,-6.3334,-6.274,-6.1982,-6.102,-6.0314,-5.9552,-5.8754,-5.8716,-5.8345,-5.7528,-5.736,-5.6543,-5.502,-5.5099,-5.4885,-5.4296,-5.4425,-5.4302,-5.3989,-5.3664,-5.2916,-5.1885,-5.1731,-5.1298,-5.0693,-5.0692,-5.0692,-5.071,-5.0821,-5.0888,-5.0909,-5.0898,-5.0898,-5.0898,-5.0898,-5.0898,-5.0898,-5.0898,-5.0782,-5.0666,-5.0666,-5.0113,-4.9455,-4.9455,-4.8817,-4.7985,-4.727,-4.696,-4.6705,-4.6096,-4.5828,-4.555,-4.4916,-4.4506,-4.4098,-4.3455,-4.2623,-4.2064,-4.2123,-4.1546,-4.1325,-4.2049,-4.1579,-4.1168,-4.1168,-4.117,-4.1171,-4.1171,-4.1191,-4.1133,-4.0957,-4.0293,-3.9824,-3.9668,-3.8984,-3.8984,-3.9863,-3.9902,-4.0312,-4.1172,-4.1191,-4.1191,-4.1191,-4.1191,-4.1191,-4.1191,-4.1191,-4.1191,-5.7426,-5.6426,-5.6184,-5.7646,-5.7569,-5.7926,0.0,-6.0815,-6.0475,-6.1562,-6.2239,-6.2569,-6.2315,-6.2802,-6.3266,-6.3218,-6.3099,-6.2978,-6.2855,-6.283,-6.288,-6.3026,-6.3147,-6.2988,-6.24,-6.2275,-6.1634,-6.0163,-5.9958,-5.9552,-5.8754,-5.8716,-5.8345,-5.7528,-5.6822,-5.5967,-5.502,-5.4334,-5.4092,-5.4279,-5.3614,-5.3547,-5.3951,-5.2461,-5.1817,-5.1865,-5.1144,-5.0789,-5.0712,-5.0693,-5.0702,-5.0701,-5.071,-5.0793,-5.0888,-5.0909,-5.0898,-5.0898,-5.0898,-5.0898,-5.0898,-5.0898,-5.0415,-4.9842,-4.9842,-4.9223,-4.8546,-4.8546,-4.7927,-4.7212,-4.7134,-4.6542,-4.5923,-4.5847,-4.5286,-4.4757,-4.4729,-4.3486,-4.2386,-4.2357,-4.1707,-4.1142,-4.1167,-4.1087,-4.1064,-4.1226,-4.1122,-4.1014,-4.1014,-4.1074,-4.1114,-4.1114,-4.1169,-4.0898,-4.0117,-3.9961,-3.957,-3.8789,-3.8652,-3.8984,-3.9863,-3.9902,-4.0312,-4.1172,-4.1191,-4.1191,-4.1191,-4.1191,-4.1191,-4.1191,-4.1191,-4.1191,-5.7184,-5.7453,-5.7857,-5.7607,-5.8377,-5.9454,-6.0377,-6.1331,-6.2082,-6.2184,-6.3119,-6.3784,-6.3196,-6.3247,-6.3377,-6.3331,-6.3147,-6.2978,-6.2929,-6.2855,-6.2805,-6.288,-6.2506,-6.2222,-6.2101,-6.1725,-6.1033,-5.9928,-5.9436,-5.9051,-5.8735,-5.8271,-5.7639,-5.684,-5.5986,-5.515,-5.4314,-5.398,-5.3628,-5.3309,-5.2954,-5.2538,-5.2006,-5.1454,-5.1207,-5.1183,-5.0846,-5.0712,-5.0712,-5.0712,-5.0702,-5.0702,-5.0711,-5.0766,-5.0846,-5.0888,-5.0901,-5.0898,-5.0898,-5.0589,-5.0202,-5.0202,-4.9629,-4.8933,-4.8933,-4.8333,-4.7637,-4.7637,-4.7018,-4.6348,-4.6348,-4.6078,-4.5807,-4.5807,-4.5181,-4.4479,-4.3995,-4.2902,-4.1909,-4.1516,-4.1163,-4.0941,-4.0984,-4.0976,-4.0957,-4.0974,-4.0984,-4.099,-4.099,-4.1014,-4.1061,-4.1106,-4.0636,-4.0218,-3.9922,-3.8923,-3.8199,-3.7851,-3.7363,-3.748,-3.8359,-3.8398,-3.8809,-3.9668,-4.0195,-4.0449,-4.0449,-4.0957,-4.1191,-4.1191,-4.1191,-4.1191,-5.73,-5.8069,-5.8627,-5.7877,-5.9069,-6.0396,-6.0242,-6.1647,-6.2913,-6.2747,-6.3594,-6.4255,-6.3838,-6.3583,-6.34,-6.34,-6.3194,-6.3051,-6.3051,-6.2929,-6.2855,-6.2855,-6.2114,-6.1575,-6.1545,-6.0987,-6.0304,-5.9511,-5.8988,-5.8716,-5.8716,-5.7955,-5.7138,-5.6339,-5.5466,-5.4611,-5.3813,-5.3813,-5.3404,-5.2605,-5.2382,-5.167,-5.06,-5.0652,-5.0634,-5.0565,-5.0565,-5.0614,-5.0712,-5.0712,-5.0712,-5.0693,-5.0702,-5.073,-5.0784,-5.0846,-5.0877,-5.0898,-5.0898,-5.0376,-4.9707,-4.9707,-4.8952,-4.8043,-4.8043,-4.7424,-4.6728,-4.6728,-4.629,-4.5807,-4.5807,-4.5652,-4.5471,-4.5471,-4.4659,-4.3711,-4.3073,-4.226,-4.1518,-4.0983,-4.0863,-4.0888,-4.0937,-4.0893,-4.0863,-4.0863,-4.0906,-4.0949,-4.0949,-4.0968,-4.099,-4.1068,-4.0245,-3.9653,-3.9528,-3.8093,-3.7137,-3.6953,-3.6348,-3.6387,-3.7266,-3.7305,-3.7715,-3.8574,-3.9219,-3.9531,-3.9531,-4.043,-4.084,-4.0859,-4.1094,-4.1191,-5.803,-5.7684,-5.7445,-5.9031,-5.9473,-5.9973,-6.1639,-6.2082,-6.2477,-6.3704,-6.3723,-6.3667,-6.41,-6.3749,-6.34,-6.34,-6.3284,-6.3189,-6.3189,-6.3075,-6.3002,-6.3002,-6.2163,-6.13,-6.0511,-5.9955,-5.9346,-5.86,-5.8654,-5.8716,-5.8716,-5.7955,-5.7138,-5.6339,-5.5466,-5.4611,-5.3813,-5.3813,-5.3404,-5.2587,-5.1806,-5.1147,-5.0582,-5.0081,-4.9962,-5.0206,-5.0206,-5.041,-5.0712,-5.0712,-5.0712,-5.0712,-5.0693,-5.0702,-5.071,-5.0784,-5.0833,-5.0898,-5.0898,-5.0376,-4.9707,-4.9707,-4.8546,-4.7134,-4.7134,-4.6542,-4.5845,-4.5845,-4.5826,-4.5807,-4.5807,-4.522,-4.4632,-4.4632,-4.3324,-4.2067,-4.2048,-4.1409,-4.0835,-4.0822,-4.0803,-4.0803,-4.0809,-4.0803,-4.0803,-4.0803,-4.0803,-4.0809,-4.0809,-4.0867,-4.0928,-4.1007,-4.0217,-3.9385,-3.8606,-3.7711,-3.6863,-3.6094,-3.6016,-3.6387,-3.7266,-3.7305,-3.7715,-3.8574,-3.8633,-3.8633,-3.8633,-3.9512,-3.9941,-3.9961,-4.0801,-4.1191,-5.7511,-5.803,-5.8781,-5.9358,-5.9935,-6.0512,-6.1089,-6.1678,-6.215,-6.2304,-6.2503,-6.2626,-6.254,-6.2636,-6.2736,-6.2736,-6.3072,-6.3331,-6.3331,-6.3213,-6.3099,-6.3026,-6.1782,-6.0838,-6.0557,-5.9983,-5.9283,-5.8495,-5.8612,-5.8475,-5.7936,-5.7138,-5.632,-5.5466,-5.4648,-5.4073,-5.3813,-5.3274,-5.2605,-5.1788,-5.0395,-4.9767,-4.9793,-4.9616,-4.9684,-4.993,-5.0123,-5.0272,-5.0399,-5.0614,-5.0712,-5.0712,-5.0712,-5.0702,-5.0701,-5.0739,-5.0435,-5.0035,-5.0078,-4.9552,-4.874,-4.8159,-4.7192,-4.6252,-4.6252,-4.6039,-4.5807,-4.5807,-4.5807,-4.5807,-4.5807,-4.52,-4.4594,-4.4594,-4.3266,-4.2009,-4.2009,-4.1371,-4.0797,-4.0797,-4.0797,-4.0797,-4.0797,-4.0797,-4.0603,-4.0023,-4.0429,-4.0797,-4.0797,-4.0814,-4.0629,-4.0131,-3.9252,-3.8399,-3.7647,-3.6721,-3.6133,-3.5945,-3.5927,-3.6089,-3.6426,-3.6445,-3.6582,-3.6875,-3.7441,-3.7734,-3.7734,-3.9199,-3.9902,-3.9922,-4.0781,-4.1191,-5.7877,-5.8684,-5.9569,-5.9896,-6.0396,-6.08,-6.08,-6.1223,-6.156,-6.1293,-6.1534,-6.1714,-6.1504,-6.1754,-6.2057,-6.2291,-6.2687,-6.3067,-6.3363,-6.3284,-6.3165,-6.3075,-6.1848,-6.0922,-6.0622,-5.9987,-5.9283,-5.8495,-5.8612,-5.8364,-5.7546,-5.6747,-5.5912,-5.5039,-5.4221,-5.3664,-5.3367,-5.2865,-5.2048,-5.0915,-4.9559,-4.901,-4.9225,-4.9225,-4.9377,-4.9684,-4.993,-5.0123,-5.0237,-5.0565,-5.0712,-5.0712,-5.0712,-5.0712,-5.0673,-5.0384,-4.9967,-4.9564,-4.9649,-4.8899,-4.7831,-4.727,-4.6523,-4.5807,-4.5807,-4.5807,-4.5807,-4.5807,-4.5807,-4.5729,-4.5452,-4.4755,-4.4059,-4.375,-4.2609,-4.1564,-4.1564,-4.1164,-4.0797,-4.0797,-4.0797,-4.0797,-4.0797,-4.0545,-4.0158,-3.9578,-3.9713,-3.9978,-4.0294,-4.0332,-4.013,-3.9626,-3.8463,-3.7559,-3.7095,-3.6239,-3.5755,-3.5853,-3.5889,-3.5922,-3.5954,-3.5996,-3.5996,-3.5996,-3.6543,-3.6836,-3.6836,-3.8594,-3.9434,-3.9453,-4.0644,-4.1191,-5.9069,-5.9531,-5.9762,-6.0589,-6.08,-6.08,-6.08,-6.0762,-6.0723,-6.0723,-6.0767,-6.0816,-6.0816,-6.0997,-6.1329,-6.1978,-6.2201,-6.2553,-6.3312,-6.3307,-6.3213,-6.3213,-6.2338,-6.1456,-6.0682,-5.9969,-5.9231,-5.8489,-5.8561,-5.8289,-5.749,-5.6673,-5.5837,-5.4983,-5.4203,-5.3423,-5.2605,-5.2512,-5.1658,-5.0042,-4.9262,-4.8909,-4.8909,-4.8909,-4.9077,-4.938,-4.9651,-4.993,-5.0206,-5.0544,-5.0664,-5.0635,-5.0635,-5.0616,-5.0462,-4.972,-4.9401,-4.9381,-4.9437,-4.8431,-4.7096,-4.7057,-4.6464,-4.5807,-4.5807,-4.5807,-4.5807,-4.5807,-4.5807,-4.5606,-4.4813,-4.3962,-4.3073,-4.2202,-4.139,-4.0797,-4.0797,-4.0797,-4.0797,-4.0797,-4.0797,-4.0797,-4.0797,-4.0042,-3.9423,-3.9423,-3.8682,-3.8444,-3.9327,-3.9423,-3.9423,-3.9365,-3.7889,-3.6908,-3.6928,-3.6175,-3.5729,-3.5783,-3.5851,-3.589,-3.5892,-3.5953,-3.5996,-3.5996,-3.5996,-3.5996,-3.5996,-3.7754,-3.8594,-3.8633,-4.0391,-4.1191,-5.9377,-5.9973,-6.0512,-6.0742,-6.08,-6.08,-6.08,-6.03,-5.9838,-5.9838,-5.8986,-5.8256,-5.8256,-5.9328,-6.0293,-6.0457,-6.2053,-6.3315,-6.3519,-6.3511,-6.3465,-6.3354,-6.198,-6.0969,-6.0766,-5.9497,-5.84,-5.7656,-5.7744,-5.7453,-5.6655,-5.58,-5.4964,-5.4128,-5.3924,-5.3423,-5.2605,-5.1361,-5.0228,-4.9206,-4.9002,-4.8909,-4.8909,-4.8909,-4.896,-4.9044,-4.9362,-4.9655,-4.9917,-5.0214,-5.0089,-4.9721,-4.9721,-4.9336,-4.874,-4.8519,-4.8084,-4.7561,-4.764,-4.7418,-4.6982,-4.6334,-4.5981,-4.5807,-4.5807,-4.5807,-4.5807,-4.5807,-4.5807,-4.5606,-4.4813,-4.3962,-4.3073,-4.2202,-4.139,-4.0797,-4.0797,-4.0797,-4.0797,-4.0797,-4.0797,-4.0797,-4.0797,-3.9533,-3.8541,-3.8536,-3.7796,-3.7556,-3.8425,-3.8529,-3.8285,-3.7628,-3.7158,-3.6629,-3.6005,-3.5794,-3.5713,-3.5725,-3.5748,-3.5765,-3.5829,-3.589,-3.5924,-3.5924,-3.5975,-3.5996,-3.5996,-3.7754,-3.8594,-3.8633,-4.0391,-4.1191,-5.9973,-6.0435,-6.08,-6.08,-6.08,-6.0704,-6.0319,-5.9858,-5.93,-5.855,-5.7802,-5.7194,-5.68,-5.7884,-5.9067,-5.9708,-6.1304,-6.2695,-6.34,-6.3465,-6.3419,-6.3331,-6.2086,-6.1135,-6.0831,-5.9667,-5.8495,-5.748,-5.7468,-5.6989,-5.58,-5.528,-5.463,-5.3831,-5.346,-5.2698,-5.1509,-5.0228,-4.9355,-4.8909,-4.8909,-4.8909,-4.8909,-4.8909,-4.8909,-4.8926,-4.9239,-4.9488,-4.9655,-5.005,-4.9797,-4.9236,-4.9356,-4.8875,-4.8067,-4.7702,-4.7287,-4.6852,-4.6538,-4.6444,-4.6407,-4.5952,-4.5807,-4.5807,-4.5807,-4.5807,-4.5807,-4.5807,-4.5548,-4.5084,-4.4253,-4.3382,-4.2512,-4.1661,-4.1126,-4.0797,-4.0797,-4.0797,-4.0797,-4.0797,-4.0797,-4.0797,-4.0797,-3.9656,-3.8613,-3.8253,-3.7423,-3.6915,-3.7036,-3.7372,-3.7398,-3.6915,-3.6548,-3.613,-3.5639,-3.5637,-3.5662,-3.5694,-3.5696,-3.5718,-3.5746,-3.5827,-3.588,-3.5895,-3.5948,-3.5974,-3.5996,-3.7754,-3.8594,-3.8633,-4.0391,-4.1191,-6.0589,-6.08,-6.08,-6.08,-6.0704,-6.0435,-5.9665,-5.9338,-5.8761,-5.7311,-5.7027,-5.6785,-5.5985,-5.6683,-5.7827,-5.9183,-6.0218,-6.1422,-6.3034,-6.3141,-6.307,-6.307,-6.2209,-6.1392,-6.0715,-5.9815,-5.8721,-5.7412,-5.721,-5.6543,-5.5094,-5.4909,-5.4481,-5.3683,-5.2865,-5.1695,-5.0116,-4.9299,-4.8909,-4.8909,-4.8909,-4.8909,-4.8909,-4.8909,-4.8909,-4.8926,-4.9209,-4.9368,-4.9442,-4.9949,-4.9637,-4.885,-4.9084,-4.8606,-4.7673,-4.6934,-4.6693,-4.6624,-4.5935,-4.5701,-4.5698,-4.5776,-4.5793,-4.58,-4.58,-4.58,-4.5787,-4.5671,-4.5142,-4.4362,-4.3382,-4.257,-4.1796,-4.099,-4.0797,-4.0797,-4.0797,-4.0797,-4.0797,-4.0797,-4.0797,-4.0797,-4.079,-4.0024,-3.911,-3.8312,-3.7392,-3.6505,-3.5695,-3.6202,-3.6633,-3.6633,-3.5997,-3.5584,-3.5589,-3.5595,-3.5612,-3.5679,-3.5689,-3.5696,-3.57,-3.5762,-3.5802,-3.5861,-3.589,-3.5925,-3.5996,-3.7754,-3.8594,-3.8633,-4.0391,-4.1191,-6.0762,-6.08,-6.08,-6.08,-6.0262,-5.9685,-5.9531,-5.8434,0.0,-5.706,-5.6292,-5.5524,-5.5097,-5.6026,-5.708,-5.7771,-5.912,-6.0661,-6.2331,-6.2464,-6.2377,-6.2377,-6.1449,-6.055,-5.9889,-5.843,-5.7199,-5.6399,-5.5778,-5.5317,-5.502,-5.437,-5.3645,-5.2828,-5.2029,-5.1119,-5.0116,-4.9299,-4.8909,-4.8909,-4.8909,-4.8909,-4.8909,-4.8909,-4.8909,-4.8909,-4.8959,-4.9144,-4.9411,-4.9735,-4.9087,-4.7922,-4.7977,-4.7193,-4.5991,-4.5629,-4.564,-4.5806,-4.5723,-4.5701,-4.569,-4.5708,-4.5754,-4.5795,-4.5795,-4.5798,-4.5671,-4.5007,-4.471,-4.4226,-4.2647,-4.2106,-4.1796,-4.099,-4.0797,-4.0797,-4.0797,-4.0797,-4.0797,-4.0797,-4.0797,-4.0784,-4.0733,-3.9986,-3.9116,-3.8253,-3.7365,-3.6497,-3.5623,-3.5631,-3.5727,-3.5727,-3.5592,-3.5522,-3.5528,-3.5572,-3.5596,-3.5631,-3.561,-3.5632,-3.5697,-3.5715,-3.5725,-3.5721,-3.5843,-3.5917,-3.5922,-3.7713,-3.8594,-3.8633,-4.0391,-4.1191,-6.08,-6.08,-6.08,-6.08,-6.0146,-5.9396,-5.8973,0.0,0.0,-5.6426,-5.5792,-5.5076,-5.4296,-5.5209,-5.6106,-5.6194,-5.7583,-5.9237,-6.0871,-6.0985,-6.1044,-6.1444,-6.0577,-5.9702,-5.898,-5.7821,-5.6665,-5.5608,-5.5204,-5.4834,-5.4407,-5.3608,-5.281,-5.1992,-5.1156,-5.032,-4.9485,-4.9094,-4.8909,-4.8909,-4.8909,-4.8909,-4.8909,-4.8909,-4.8909,-4.8909,-4.8909,-4.8993,-4.9158,-4.9469,-4.8756,-4.7483,-4.7488,-4.6723,-4.5568,-4.5302,-4.5362,-4.5594,-4.564,-4.5648,-4.5648,-4.5654,-4.5684,-4.5758,-4.5781,-4.5803,-4.5624,-4.4826,-4.4265,-4.3634,-4.2338,-4.168,-4.1274,-4.0893,-4.0797,-4.0797,-4.0797,-4.0797,-4.0797,-4.0797,-4.0778,-4.0739,-4.07,-4.0319,-3.959,-3.829,-3.7704,-3.6964,-3.5673,-3.5501,-3.5495,-3.5495,-3.5495,-3.5502,-3.5509,-3.5522,-3.5566,-3.5596,-3.5595,-3.5612,-3.5643,-3.5669,-3.5708,-3.5698,-3.5805,-3.5877,-3.5895,-3.7263,-3.793,-3.7969,-3.9707,-4.0527,-6.0766,-6.08,-6.08,-6.08,-6.0012,-5.9088,-5.8434,-5.7473,0.0,-5.5838,-5.5405,-5.4823,-5.3859,-5.4298,-5.4823,0.0,-5.6025,-5.7602,-5.9404,-5.9687,-5.9911,-6.0529,-5.9895,-5.9079,-5.8175,-5.7362,-5.6356,-5.5112,-5.4686,-5.4221,-5.359,-5.294,-5.2159,-5.1156,-5.0469,-4.9707,-4.8909,-4.8909,-4.8909,-4.8909,-4.8909,-4.8909,-4.8909,-4.8909,-4.8909,-4.8909,-4.8909,-4.8909,-4.8926,-4.9273,-4.8539,-4.7208,-4.7197,-4.6527,-4.5485,-4.5211,-4.5322,-4.5594,-4.5594,-4.5594,-4.5594,-4.5594,-4.5646,-4.57,-4.5758,-4.5665,-4.5344,-4.4548,-4.3692,-4.2821,-4.197,-4.1274,-4.0797,-4.0797,-4.0797,-4.0797,-4.0797,-4.0797,-4.0797,-4.0797,-4.0746,-4.0694,-4.0687,-4.0631,-4.0029,-3.8334,-3.8029,-3.7392,-3.5712,-3.55,-3.55,-3.55,-3.55,-3.5494,-3.5489,-3.5496,-3.5509,-3.5585,-3.5571,-3.5589,-3.5601,-3.5648,-3.5683,-3.5706,-3.5755,-3.5794,-3.5851,-3.7003,-3.7557,-3.7596,-3.9355,-4.0176,-6.0619,-6.08,-6.08,-6.08,-5.9608,-5.8396,-5.8319,0.0,-5.5799,-5.5722,-5.5096,-5.4452,-5.404,-5.3213,-5.2991,0.0,0.0,-5.6079,-5.8475,-5.9316,-5.9752,-5.9878,0.0,-5.8988,-5.7524,-5.6656,-5.5864,-5.5056,-5.3664,-5.2791,-5.2717,-5.2642,-5.1881,-5.0283,-5.0153,-4.9707,-4.8909,-4.8909,-4.8909,-4.8909,-4.8909,-4.8909,-4.8909,-4.8909,-4.8909,-4.8909,-4.8909,-4.8909,-4.8926,-4.9273,-4.842,-4.6947,-4.6943,-4.624,-4.5201,-4.4938,-4.5169,-4.5594,-4.5594,-4.5594,-4.5594,-4.5594,-4.5648,-4.5698,-4.5719,-4.519,-4.4448,-4.3659,-4.2783,-4.1932,-4.1126,-4.0855,-4.0797,-4.0797,-4.0797,-4.0797,-4.0797,-4.0797,-4.0797,-4.0797,-4.0746,-4.0687,-4.0621,-4.0598,-4.0015,-3.8272,-3.7988,-3.7392,-3.5712,-3.55,-3.55,-3.55,-3.55,-3.55,-3.5507,-3.5507,-3.5508,-3.5509,-3.5515,-3.5547,-3.5601,-3.5606,-3.5643,-3.5701,-3.5702,-3.5714,-3.5722,-3.7527,-3.838,-3.8439,-4.0233,-4.1074,-6.0084,-6.0528,-6.0901,-6.0816,-5.9531,-5.83,-5.83,-5.6953,-5.5549,-5.5068,-5.4722,-5.4101,-5.2738,-5.2527,-5.2612,0.0,0.0,0.0,-5.621,-5.6665,-5.701,-5.7511,-5.7442,-5.6977,-5.5953,-5.5584,-5.4883,-5.3645,-5.2958,-5.2159,-5.1156,-5.1101,-5.0822,-5.019,-4.9652,-4.9224,-4.8909,-4.8909,-4.8909,-4.8909,-4.8909,-4.8909,-4.8909,-4.8909,-4.8909,-4.8909,-4.8909,-4.863,-4.8201,-4.8317,-4.7486,-4.61,-4.5978,-4.5628,-4.518,-4.4896,-4.5129,-4.5594,-4.5594,-4.5594,-4.5594,-4.5594,-4.5622,-4.5648,-4.569,-4.5117,-4.4272,-4.3463,-4.2633,-4.1809,-4.1003,-4.0797,-4.0797,-4.0797,-4.0797,-4.0797,-4.0797,-4.0797,-4.079,-4.0746,-4.0694,-4.064,-4.0598,-4.0561,-3.9954,-3.8257,-3.8007,-3.7392,-3.5712,-3.55,-3.55,-3.55,-3.55,-3.55,-3.55,-3.55,-3.5507,-3.5508,-3.5496,-3.5502,-3.5547,-3.5584,-3.5608,-3.5643,-3.5689,-3.5704,-3.5698,-3.649,-3.7149,-3.7693,-3.8986,-3.9562,-5.9265,-5.9791,-6.023,-6.0088,-5.8973,-5.7915,-5.7915,-5.6761,-5.5472,-5.4664,-5.428,-5.3603,-5.1943,-5.182,-5.191,0.0,0.0,-5.3145,-5.4578,-5.4871,-5.5235,-5.6051,-5.6041,-5.5688,-5.4993,-5.4494,-5.3773,-5.2679,-5.2141,-5.1361,-5.0172,-4.9875,-4.9763,-4.98,-4.9224,-4.8909,-4.8909,-4.8909,-4.8909,-4.8909,-4.8909,-4.8909,-4.8909,-4.8909,-4.8909,-4.889,-4.8649,-4.8221,-4.7683,-4.7441,-4.6621,-4.5499,-4.5363,-4.5214,-4.5063,-4.4861,-4.5129,-4.5594,-4.5594,-4.5594,-4.5594,-4.5594,-4.5594,-4.5556,-4.534,-4.4683,-4.384,-4.304,-4.2225,-4.1466,-4.0894,-4.0752,-4.0778,-4.0746,-4.0752,-4.0759,-4.0746,-4.0746,-4.0739,-4.0668,-4.064,-4.0605,-4.0595,-4.0539,-4.0015,-3.8604,-3.8161,-3.7488,-3.6038,-3.5654,-3.55,-3.55,-3.5712,-3.575,-3.5519,-3.55,-3.55,-3.55,-3.5489,-3.5496,-3.5509,-3.5554,-3.5578,-3.5608,-3.5658,-3.567,-3.5664,-3.5997,-3.6463,-3.7105,-3.83,-3.8736,-5.8122,-5.8514,-5.849,-5.8355,-5.7665,-5.7003,-5.7003,-5.6329,-5.5472,-5.4664,-5.3818,-5.2953,-5.2058,-5.0977,-5.0519,-5.1355,0.0,0.0,-5.4074,-5.4708,-5.5336,-5.619,-5.6184,-5.5812,-5.5075,-5.3571,-5.2624,-5.2605,-5.1063,-5.0135,-5.0098,-4.9355,-4.8909,-4.8909,-4.8909,-4.8909,-4.8909,-4.8909,-4.8909,-4.8909,-4.8909,-4.8909,-4.8909,-4.8909,-4.8909,-4.8872,-4.8054,-4.7701,-4.7646,-4.6828,-4.603,-4.5303,-4.5287,-4.5105,-4.48,-4.4788,-4.5129,-4.5594,-4.5594,-4.5594,-4.5594,-4.5594,-4.5594,-4.5441,-4.4586,-4.3753,-4.2946,-4.2143,-4.1289,-4.0614,-4.0595,-4.0654,-4.0674,-4.0621,-4.0654,-4.0668,-4.0621,-4.0595,-4.0595,-4.0595,-4.0598,-4.0607,-4.0607,-4.0539,-4.0227,-3.9419,-3.8546,-3.768,-3.6788,-3.5981,-3.55,-3.55,-3.6212,-3.6365,-3.5577,-3.55,-3.55,-3.55,-3.55,-3.5501,-3.5509,-3.5509,-3.5528,-3.5598,-3.5608,-3.5606,-3.5606,-3.6527,-3.6992,-3.7035,-3.8848,-3.9253,-5.75,-5.8114,-5.847,-5.8336,-5.7646,-5.7003,-5.7003,-5.5906,-5.4645,-5.3799,-5.2933,-5.2068,-5.1221,-5.0787,-5.0933,-5.2129,-5.2373,0.0,0.0,-5.4554,-5.4678,-5.4613,-5.4535,-5.422,-5.3441,-5.2902,-5.2122,-5.0989,-5.0413,-4.9875,-4.9317,-4.9039,-4.8909,-4.8909,-4.8909,-4.8909,-4.8909,-4.8909,-4.8909,-4.8909,-4.8909,-4.8909,-4.8909,-4.8909,-4.8909,-4.8872,-4.8054,-4.7386,-4.6828,-4.6011,-4.5175,-4.4413,-4.4413,-4.458,-4.4788,-4.4788,-4.5129,-4.5594,-4.5594,-4.5594,-4.5594,-4.5594,-4.5594,-4.5441,-4.4566,-4.3728,-4.281,-4.1404,-4.0805,-4.0595,-4.0595,-4.0621,-4.0628,-4.0614,-4.0621,-4.0621,-4.0595,-4.0595,-4.06,-4.0591,-4.0595,-4.06,-4.0539,-4.0504,-4.0227,-3.9419,-3.9073,-3.8354,-3.6885,-3.6481,-3.6115,-3.5558,-3.5731,-3.6,-3.6308,-3.6327,-3.6327,-3.6327,-3.5808,-3.5507,-3.5501,-3.5501,-3.5502,-3.5522,-3.5534,-3.5553,-3.559,-3.5897,-3.6678,-3.7929,-3.9092,-3.9201,-5.6163,-5.6762,-5.7098,-5.7287,-5.6915,-5.6426,-5.6137,-5.5241,-5.4164,-5.2972,-5.2269,-5.175,-5.1241,-5.1144,-5.1421,-5.2269,-5.2298,-5.259,-5.3562,-5.3717,-5.3789,-5.3906,-5.3832,-5.3459,-5.2623,-5.2308,-5.1584,-5.0246,-4.9837,-4.9429,-4.8927,-4.8909,-4.8909,-4.8909,-4.8909,-4.8909,-4.8909,-4.8909,-4.8909,-4.8909,-4.8909,-4.8909,-4.8909,-4.8909,-4.8909,-4.8834,-4.7738,-4.6958,0.0,-4.5268,-4.4488,-4.4005,-4.4005,-4.4336,-4.4788,-4.4788,-4.5129,-4.5594,-4.5594,-4.5594,-4.5556,-4.5229,-4.4682,-4.4066,-4.3528,-4.3008,-4.2316,-4.0943,-4.0569,-4.0571,-4.0571,-4.0579,-4.0586,-4.0571,-4.0579,-4.0586,-4.0571,-4.0571,-4.0564,-4.0554,-4.0565,-4.0539,-4.0516,-4.0496,-4.0323,-3.9823,-3.9496,-3.8911,-3.7815,-3.7123,-3.65,-3.6,-3.625,-3.65,-3.6692,-3.6423,-3.625,-3.625,-3.5788,-3.55,-3.55,-3.55,-3.5494,-3.5502,-3.5502,-3.5522,-3.556,-3.5893,-3.6975,-3.8723,-3.9296,-3.9308,0.0,-5.4659,-5.4742,-5.5371,-5.5511,-5.5318,-5.4587,-5.4414,0.0,-5.2327,-5.1942,-5.1904,-5.1904,-5.1846,-5.1827,-5.1885,-5.1678,-5.1816,-5.2678,-5.2618,-5.2893,-5.4018,-5.3906,-5.3366,-5.2417,-5.1714,-5.0971,-5.0172,-4.9355,-4.8909,-4.8909,-4.8909,-4.8909,-4.8909,-4.8909,-4.8909,-4.8909,-4.8909,-4.8909,-4.8909,-4.8909,-4.8872,-4.8816,-4.8816,-4.8779,-4.8649,-4.7088,-4.6401,-4.629,-4.4674,-4.4005,-4.4005,-4.4005,-4.4322,-4.4763,-4.4788,-4.5118,-4.5577,-4.5586,-4.5594,-4.546,-4.4586,-4.3258,-4.1962,-4.1846,-4.175,-4.1546,-4.0727,-4.0496,-4.0496,-4.0496,-4.0558,-4.0573,-4.0504,-4.0539,-4.0573,-4.0504,-4.0496,-4.0496,-4.0496,-4.0496,-4.0496,-4.0496,-4.0496,-4.0496,-4.0496,-3.9861,-3.9361,-3.9304,-3.7834,-3.6788,-3.6788,-3.7411,-3.7546,-3.6846,-3.6115,-3.5654,-3.5596,-3.5538,-3.55,-3.55,-3.55,-3.55,-3.55,-3.556,-3.5579,-3.5586,-3.6511,-3.7816,-3.9406,-3.9525,-3.9583,-5.2621,0.0,-5.359,-5.3751,-5.3799,-5.3741,0.0,-5.351,-5.3395,-5.2991,-5.2365,-5.1904,-5.1904,-5.1395,-5.1183,-5.1788,-5.1844,-5.2248,-5.3517,-5.3987,-5.4307,-5.4594,-5.3816,-5.2837,-5.1751,-5.0897,-5.0079,-4.9262,-4.902,-4.8909,-4.8909,-4.8909,-4.8909,-4.8909,-4.8909,-4.8909,-4.8909,-4.8909,-4.8909,-4.8909,-4.8909,-4.8574,-4.798,-4.798,-4.7646,-4.7014,-4.6011,-4.5565,-4.5491,-4.4432,-4.4005,-4.4005,-4.4005,-4.4192,-4.4519,-4.4726,-4.5019,-4.5322,-4.5522,-4.5594,-4.546,-4.4586,-4.4028,-4.347,-4.22,-4.1335,-4.0766,-4.0554,-4.0496,-4.0496,-4.0496,-4.0504,-4.0523,-4.0496,-4.0504,-4.0523,-4.0496,-4.0496,-4.0496,-4.0496,-4.0496,-4.0496,-4.0496,-4.0496,-4.0496,-4.0496,-4.0342,-3.9996,-3.9381,-3.8354,-3.77,-3.77,-3.6731,-3.6519,-3.7603,-3.7526,-3.7142,-3.6462,-3.5846,-3.55,-3.55,-3.55,-3.55,-3.55,-3.611,-3.6432,-3.6497,-3.7994,-3.8959,-3.9418,-4.0101,-4.0075,-5.1634,-5.245,-5.3299,-5.3703,-5.4068,-5.4145,-5.3376,0.0,0.0,0.0,0.0,0.0,-5.1827,-5.1548,-5.1395,-5.1827,-5.1904,-5.2305,-5.3472,-5.3954,-5.4204,-5.4257,-5.344,-5.2338,-5.0933,-5.0395,-4.9782,-4.8964,-4.8909,-4.8909,-4.8909,-4.8909,-4.8909,-4.8909,-4.8909,-4.8909,-4.8909,-4.8909,-4.8909,-4.8909,-4.8909,-4.8481,-4.7701,-4.7701,-4.7256,-4.6457,-4.5639,-4.5287,-4.5231,-4.4358,-4.4005,-4.4005,-4.4005,-4.4147,-4.4425,-4.4701,-4.4973,-4.5232,-4.5504,-4.5344,-4.494,-4.4451,-4.3778,-4.2989,-4.2077,-4.1181,-4.0496,-4.0496,-4.0496,-4.0496,-4.0496,-4.0496,-4.0496,-4.0496,-4.0496,-4.0496,-4.0496,-4.0496,-4.0496,-4.0496,-4.0496,-4.0496,-4.0496,-4.0496,-4.0496,-4.0496,-4.0496,-4.0342,-3.9919,-3.913,-3.843,-3.8046,-3.7546,-3.7296,-3.7392,-3.8142,-3.8046,-3.6769,-3.6288,-3.5885,-3.5519,-3.55,-3.5673,-3.6038,-3.6865,-3.7514,-3.7959,-3.8864,-3.9521,-3.9962,-4.0428,-4.0417,-5.1254,-5.2225,-5.3328,-5.3799,-5.4511,-5.4722,-5.3164,0.0,0.0,0.0,0.0,0.0,0.0,-5.1788,-5.175,-5.1885,-5.2115,-5.2538,-5.3299,-5.3645,-5.3784,-5.3661,-5.3015,-5.1914,-5.0334,-5.0021,-4.9633,-4.8946,-4.8891,-4.8891,-4.8891,-4.8891,-4.8874,-4.8838,-4.8873,-4.8891,-4.8891,-4.8891,-4.8909,-4.8909,-4.8779,-4.8296,-4.7516,-4.7386,-4.6884,-4.6085,-4.5398,-4.5101,-4.5026,-4.4302,-4.4005,-4.4005,-4.4005,-4.4136,-4.4388,-4.4688,-4.4931,-4.5191,-4.5495,-4.5133,-4.447,-4.4335,-4.3258,-4.1962,-4.1846,-4.1181,-4.0496,-4.0496,-4.0496,-4.0496,-4.0496,-4.0496,-4.0496,-4.0496,-4.0496,-4.0496,-4.0496,-4.0496,-4.0496,-4.0496,-4.0496,-4.0496,-4.0496,-4.0496,-4.0496,-4.0496,-4.0496,-4.0496,-4.0496,-3.9804,-3.9073,-3.845,-3.8815,-3.8604,-3.7392,-3.8527,-3.8604,-3.7,-3.6904,-3.6596,-3.5904,-3.5885,-3.6192,-3.6885,-3.7757,-3.8565,-3.9304,-3.9419,-3.9857,-4.058,-4.0605,-4.0633,-5.193,-5.2693,-5.2955,-5.1626,-5.1895,-5.2241,-5.1298,0.0,0.0,0.0,0.0,0.0,0.0,-5.1337,-5.1106,-5.1788,-5.3145,-5.4145,-5.428,-5.4918,-5.5006,-5.4047,-5.2997,-5.1862,-5.0646,-4.9657,-4.9039,-4.8909,-4.8857,-4.8822,-4.8822,-4.8822,-4.8768,-4.8641,-4.8803,-4.8874,-4.8822,-4.8874,-4.8909,-4.889,-4.8203,-4.746,-4.6661,-4.5974,-4.5194,-4.4376,-4.4246,-4.4191,-4.4191,-4.4061,-4.4005,-4.4005,-4.4005,-4.4036,-4.4121,-4.463,-4.4831,-4.4919,-4.5429,-4.5518,-4.5287,-4.4528,-4.3662,-4.2758,-4.2019,-4.1181,-4.0496,-4.0496,-4.0496,-4.0496,-4.0496,-4.0496,-4.0496,-4.0496,-4.0496,-4.0496,-4.0496,-4.0496,-4.0496,-4.0496,-4.0496,-4.0496,-4.0496,-4.0496,-4.0496,-4.0496,-4.0496,-4.0496,-4.0496,-3.9804,-3.9515,-4.0054,-3.8969,-3.8661,-3.9823,-3.9534,-3.8873,-3.7853,-3.7796,-3.7757,-3.7623,-3.7623,-3.768,-3.7796,-3.8661,-3.9169,-3.9304,-3.9977,-4.0381,-4.0523,-4.0561,-4.0622,-5.1541,-5.2119,-5.2406,-5.1558,-5.2664,-5.3626,-5.2337,-5.2337,0.0,0.0,0.0,0.0,0.0,-5.0952,-5.0827,-5.1183,-5.1914,-5.2606,-5.3029,-5.3278,-5.3242,-5.2702,-5.1892,-5.0994,-5.0034,-4.9299,-4.8909,-4.8909,-4.884,-4.8787,-4.8787,-4.8732,-4.866,-4.8605,-4.8696,-4.8546,-4.8157,-4.8191,-4.843,-4.889,-4.8091,-4.7274,-4.6475,-4.5658,-4.4822,-4.4005,-4.4005,-4.4005,-4.4005,-4.4005,-4.4005,-4.4005,-4.4005,-4.4005,-4.4064,-4.4599,-4.4985,-4.5282,-4.5513,-4.5594,-4.546,-4.4586,-4.3758,-4.2931,-4.2058,-4.1181,-4.0496,-4.0496,-4.0496,-4.0496,-4.0496,-4.0496,-4.0496,-4.0496,-4.0496,-4.0496,-4.0496,-4.0496,-4.0496,-4.0496,-4.0496,-4.0496,-4.0496,-4.0496,-4.0496,-4.0496,-4.0496,-4.0496,-4.0496,-4.0189,-3.9919,-3.9861,-3.9554,-3.9496,-3.9823,-3.9919,-3.9592,-3.8757,-3.7815,-3.7507,-3.7988,-3.845,-3.87,-3.87,-3.9515,-3.9958,-3.9958,-4.0323,-4.0496,-4.0496,-4.0573,-4.0607,-5.1332,-5.17,-5.205,-5.2174,0.0,-5.453,-5.3453,-5.3049,-5.2529,0.0,0.0,0.0,0.0,-5.0837,-5.0971,-5.0971,-5.1144,-5.1491,-5.2115,-5.2034,-5.1825,-5.1618,-5.1136,-5.0463,-4.9578,-4.919,-4.8959,-4.889,-4.8786,-4.8733,-4.875,-4.8624,-4.8477,-4.8274,-4.8292,-4.7977,-4.7271,-4.7252,-4.7636,-4.8333,-4.7516,-4.6828,-4.6197,-4.5361,-4.4618,-4.4005,-4.4005,-4.4005,-4.4005,-4.4005,-4.4005,-4.4005,-4.4005,-4.4079,-4.4236,-4.4637,-4.5129,-4.5594,-4.5594,-4.5479,-4.519,-4.4509,-4.3624,-4.2662,-4.2,-4.1181,-4.0496,-4.0496,-4.0496,-4.0496,-4.0496,-4.0496,-4.0496,-4.0496,-4.0496,-4.0496,-4.0496,-4.0496,-4.0496,-4.0496,-4.0496,-4.0496,-4.0496,-4.0496,-4.0496,-4.0496,-4.0496,-4.0496,-4.0496,-4.0496,-4.0265,-3.965,-4.0131,-4.0246,-3.9631,-3.9977,-4.0035,-3.9611,-3.8142,-3.77,-3.8546,-3.9227,-3.9573,-3.9573,-4.0189,-4.0496,-4.0496,-4.0496,-4.0496,-4.0496,-4.0546,-4.0573,-5.2033,-5.216,-5.2261,-5.2934,-5.2635,-5.2346,-5.3049,-5.2558,0.0,-5.1846,0.0,-5.1587,-5.0846,-5.1318,-5.1808,-5.1808,-5.2491,-5.3049,-5.3106,-5.3086,-5.2787,-5.1961,-5.1622,-5.0996,-4.9879,-4.9412,-4.9104,-4.8907,-4.8661,-4.855,-4.8605,-4.855,-4.8107,-4.7242,-4.7389,-4.7074,-4.6229,-4.6262,-4.6437,-4.6661,-4.5862,-4.5435,-4.5361,-4.4488,-4.4061,-4.4005,-4.4005,-4.4005,-4.4005,-4.4005,-4.4005,-4.4005,-4.4005,-4.4308,-4.4739,-4.4795,-4.5129,-4.5594,-4.5594,-4.5075,-4.4374,-4.4316,-4.322,-4.1885,-4.1808,-4.1181,-4.0496,-4.0496,-4.0496,-4.0496,-4.0496,-4.0496,-4.0496,-4.0496,-4.0496,-4.0496,-4.0496,-4.0496,-4.0496,-4.0496,-4.0496,-4.0496,-4.0496,-4.0496,-4.0496,-4.0496,-4.0496,-4.0496,-4.0496,-4.0496,-4.0477,-4.0419,-4.0477,-4.0477,-4.0419,-3.9785,-3.9688,-4.0362,-3.9611,-3.9477,-4.0285,-4.0381,-4.0419,-4.0419,-4.0477,-4.0496,-4.0496,-4.0496,-4.0496,-4.0496,-4.0496,-4.0516,-5.1486,-5.1457,-5.1534,-5.2271,-5.1799,0.0,0.0,-5.2953,-5.2712,-5.2712,-5.2269,-5.1654,-5.0846,-5.0952,-5.1144,-5.1144,-5.1433,-5.1645,-5.1645,-5.1645,-5.151,-5.1183,-5.087,-5.0515,-5.0081,-4.9608,-4.9268,-4.9087,-4.8767,-4.8569,-4.8532,-4.8438,-4.7995,-4.7131,-4.7169,-4.658,-4.5309,-4.5326,-4.5172,-4.4827,-4.5062,-4.522,-4.5268,-4.4395,-4.4005,-4.4005,-4.4005,-4.4005,-4.4005,-4.4005,-4.4005,-4.402,-4.4177,-4.4465,-4.4812,-4.4996,-4.5273,-4.5594,-4.5594,-4.5037,-4.422,-4.372,-4.2758,-4.1692,-4.1162,-4.0766,-4.0496,-4.0496,-4.0496,-4.0496,-4.0496,-4.0496,-4.0496,-4.0496,-4.0496,-4.0496,-4.0496,-4.0496,-4.0496,-4.0496,-4.0496,-4.0496,-4.0496,-4.0496,-4.0496,-4.0496,-4.0496,-4.0496,-4.0496,-4.0496,-4.0496,-4.0496,-4.0496,-4.0496,-4.0496,-4.0227,-4.0189,-4.0477,-3.9746,-3.9669,-4.0477,-4.0496,-4.0496,-4.0496,-4.0496,-4.0496,-4.0496,-4.0496,-4.0496,-4.0496,-4.0496,-4.0496,-5.1121,-5.1025,-5.1036,-5.1488,0.0,0.0,-5.2472,-5.2799,-5.2799,-5.2799,-5.2106,-5.1356,-5.0808,-5.0712,-5.0712,-5.0712,-5.0712,-5.0712,-5.0712,-5.0712,-5.0712,-5.0712,-5.0493,-5.0325,-5.0206,-4.973,-4.9374,-4.9214,-4.8765,-4.8384,-4.8126,-4.7977,-4.7424,-4.6379,-4.6342,-4.5718,-4.4392,-4.4392,-4.4168,-4.3736,-4.4338,-4.4714,-4.4846,-4.4249,-4.4005,-4.4005,-4.4005,-4.4005,-4.4005,-4.4005,-4.4005,-4.402,-4.4192,-4.4479,-4.4812,-4.5007,-4.5302,-4.5594,-4.5594,-4.4863,-4.3835,-4.3278,-4.2316,-4.1277,-4.0689,-4.0496,-4.0496,-4.0496,-4.0496,-4.0496,-4.0496,-4.0496,-4.0496,-4.0496,-4.0496,-4.0496,-4.0496,-4.0496,-4.0496,-4.0496,-4.0496,-4.0496,-4.0496,-4.0496,-4.0496,-4.0496,-4.0496,-4.0496,-4.0496,-4.0496,-4.0496,-4.0496,-4.0496,-4.0496,-4.0496,-4.0496,-4.0496,-4.0496,-3.9977,-3.9938,-4.0477,-4.0496,-4.0496,-4.0496,-4.0496,-4.0496,-4.0496,-4.0496,-4.0496,-4.0496,-4.0496,-4.0496,-5.1145,-5.1058,-5.0952,-5.0754,0.0,0.0,-5.1702,-5.1885,-5.1904,-5.1904,-5.1279,-5.0712,-5.0712,-5.0712,-5.0712,-5.0712,-5.0712,-5.0712,-5.0712,-5.0712,-5.0712,-5.0712,-5.0712,-5.0565,-5.0249,-4.9768,-4.9401,-4.9211,-4.8622,-4.7996,-4.7316,-4.7169,-4.6342,-4.4746,-4.4691,-4.4305,-4.3515,-4.3515,-4.3531,-4.3599,-4.3599,-4.3718,-4.3897,-4.3958,-4.4005,-4.4005,-4.4005,-4.4005,-4.4005,-4.4005,-4.4005,-4.4005,-4.4005,-4.4336,-4.4788,-4.48,-4.5129,-4.5594,-4.5594,-4.4489,-4.3104,-4.3085,-4.1912,-4.0496,-4.0496,-4.0496,-4.0496,-4.0496,-4.0496,-4.0496,-4.0496,-4.0496,-4.0496,-4.0496,-4.0496,-4.0496,-4.0496,-4.0496,-4.0496,-4.0496,-4.0496,-4.0496,-4.0496,-4.0496,-4.0496,-4.0496,-4.0496,-4.0496,-4.0496,-4.0496,-4.0496,-4.0496,-4.0496,-4.0496,-4.0496,-4.0496,-4.0496,-4.0496,-4.0496,-4.0496,-4.0496,-4.0496,-4.0496,-4.0496,-4.0496,-4.0496,-4.0496,-4.0496,-4.0496,-4.0496,-4.0496,-4.0496,-5.1213,-5.1122,-5.1011,-5.0811,-5.0729,0.0,0.0,-5.1491,0.0,0.0,-5.1712,-5.1375,-5.0808,-5.0712,-5.0712,-5.0712,-5.0712,-5.0712,-5.0712,-5.0712,-5.0712,-5.0712,-5.0712,-5.0663,-5.0565,-4.971,-4.8991,-4.8597,-4.7663,-4.6879,-4.6342,-4.6287,-4.5792,-4.4728,-4.4691,-4.4305,-4.3515,-4.3515,-4.3515,-4.3513,-4.3565,-4.3718,-4.3897,-4.3913,-4.3961,-4.4005,-4.4005,-4.4005,-4.4005,-4.4005,-4.4005,-4.402,-4.4206,-4.4479,-4.4812,-4.5019,-4.5302,-4.5518,-4.4893,-4.3989,-4.3008,-4.2374,-4.1412,-4.0496,-4.0496,-4.0496,-4.0496,-4.0496,-4.0496,-4.0496,-4.0496,-4.0496,-4.0496,-4.0496,-4.0496,-4.0496,-4.0496,-4.0496,-4.0496,-4.0496,-4.0496,-4.0496,-4.0496,-4.0496,-4.0496,-4.0496,-4.0496,-4.0496,-4.0496,-4.0496,-4.0496,-4.0496,-4.0496,-4.0496,-4.0496,-4.0496,-4.0496,-4.0496,-4.0496,-4.0496,-4.0496,-4.0496,-4.0496,-4.0496,-4.0496,-4.0496,-4.0496,-4.0496,-4.0496,-4.0496,-4.0496,-4.0496,-5.1236,-5.1146,-5.1056,-5.0847,-5.0775,-5.073,-5.0702,-5.1087,-5.1414,-5.1414,-5.1414,-5.1279,-5.0789,-5.0712,-5.0712,-5.0712,-5.0712,-5.0712,-5.0712,-5.0712,-5.0712,-5.0712,-5.0712,-5.0558,-5.0231,-4.942,-4.8604,-4.7842,-4.6997,-4.6201,-4.5461,-4.5424,-4.5057,-4.425,-4.4213,-4.3993,-4.3515,-4.3515,-4.3515,-4.3515,-4.3531,-4.3667,-4.3867,-4.3899,-4.3945,-4.4005,-4.4005,-4.4005,-4.4005,-4.4005,-4.4005,-4.4036,-4.4308,-4.4559,-4.4825,-4.5096,-4.5151,-4.5017,-4.447,-4.3547,-4.2508,-4.1962,-4.12,-4.0496,-4.0496,-4.0496,-4.0496,-4.0496,-4.0496,-4.0496,-4.0496,-4.0496,-4.0496,-4.0496,-4.0496,-4.0496,-4.0496,-4.0496,-4.0496,-4.0496,-4.0496,-4.0496,-4.0496,-4.0496,-4.0496,-4.0496,-4.0496,-4.0496,-4.0496,-4.0496,-4.0496,-4.0496,-4.0496,-4.0496,-4.0496,-4.0496,-4.0496,-4.0496,-4.0496,-4.0496,-4.0496,-4.0496,-4.0496,-4.0496,-4.0496,-4.0496,-4.0496,-4.0496,-4.0496,-4.0496,-4.0496,-4.0496,-5.1214,-5.1142,-5.1056,-5.085,-5.0801,-5.0766,-5.0712,-5.0712,-5.0712,-5.0712,-5.0712,-5.0712,-5.0712,-5.0712,-5.0712,-5.0712,-5.0712,-5.0712,-5.0712,-5.0712,-5.0712,-5.0712,-5.0635,-5.0269,-4.9471,-4.893,-4.8135,-4.6984,-4.648,-4.5758,-4.4653,-4.4599,-4.4268,-4.3533,-4.3515,-4.3515,-4.3515,-4.3515,-4.3515,-4.3515,-4.3515,-4.36,-4.3788,-4.3867,-4.3929,-4.4005,-4.4005,-4.4005,-4.4005,-4.4005,-4.4005,-4.4017,-4.4279,-4.4533,-4.4825,-4.5074,-4.4844,-4.4412,-4.4335,-4.3258,-4.1904,-4.1827,-4.12,-4.0496,-4.0496,-4.0496,-4.0496,-4.0496,-4.0496,-4.0496,-4.0496,-4.0496,-4.0496,-4.0496,-4.0496,-4.0496,-4.0496,-4.0496,-4.0496,-4.0496,-4.0496,-4.0496,-4.0496,-4.0496,-4.0496,-4.0496,-4.0496,-4.0496,-4.0496,-4.0496,-4.0496,-4.0496,-4.0496,-4.0496,-4.0496,-4.0496,-4.0496,-4.0496,-4.0496,-4.0496,-4.0496,-4.0496,-4.0496,-4.0496,-4.0496,-4.0496,-4.0496,-4.0496,-4.0496,-4.0496,-4.0496,-4.0496,-5.1132,-5.1103,0.0,-5.0921,-5.0793,-5.072,-5.0702,-5.0712,-5.0712,-5.0712,-5.0712,-5.0712,-5.0712,-5.0712,-5.0712,-5.0712,-5.0712,-5.0712,-5.0712,-5.0712,-5.0712,-5.0712,-5.0087,-4.9606,-4.9413,-4.8126,-4.6953,-4.6118,-4.5399,-4.4628,-4.3806,-4.3754,-4.368,-4.3515,-4.3515,-4.3515,-4.3515,-4.3515,-4.3515,-4.3515,-4.3515,-4.3566,-4.3651,-4.3769,-4.3899,-4.4005,-4.4005,-4.4005,-4.4005,-4.4005,-4.4005,-4.4005,-4.4064,-4.4374,-4.48,-4.4861,-4.5076,-4.5229,-4.4528,-4.3643,-4.272,-4.2019,-4.12,-4.0496,-4.0496,-4.0496,-4.0496,-4.0496,-4.0496,-4.0496,-4.0496,-4.0496,-4.0496,-4.0496,-4.0496,-4.0496,-4.0496,-4.0496,-4.0496,-4.0496,-4.0496,-4.0496,-4.0496,-4.0496,-4.0496,-4.0496,-4.0496,-4.0496,-4.0496,-4.0496,-4.0496,-4.0496,-4.0496,-4.0496,-4.0496,-4.0496,-4.0496,-4.0496,-4.0496,-4.0496,-4.0496,-4.0496,-4.0496,-4.0496,-4.0496,-4.0496,-4.0496,-4.0496,-4.0496,-4.0496,-4.0496,-4.0496,-5.1103,0.0,0.0,-5.0869,0.0,-5.0702,-5.0702,-5.0712,-5.0712,-5.0712,-5.0712,-5.0693,-5.0702,-5.0702,-5.0702,-5.0702,-5.0702,-5.0693,-5.0693,-5.0346,-5.0067,-5.0067,-4.9317,-4.8625,-4.824,-4.7413,-4.6492,-4.5481,-4.4915,-4.4355,-4.3763,-4.3582,-4.3515,-4.3515,-4.3515,-4.3515,-4.3515,-4.3515,-4.3515,-4.3515,-4.3515,-4.3566,-4.3703,-4.3802,-4.3897,-4.4005,-4.4005,-4.4005,-4.4005,-4.4005,-4.4005,-4.4036,-4.4279,-4.4546,-4.4825,-4.5085,-4.5103,-4.4913,-4.4451,-4.3508,-4.2412,-4.1942,-4.12,-4.0496,-4.0496,-4.0496,-4.0496,-4.0496,-4.0496,-4.0496,-4.0496,-4.0496,-4.0496,-4.0496,-4.0496,-4.0496,-4.0496,-4.0496,-4.0496,-4.0496,-4.0496,-4.0496,-4.0496,-4.0496,-4.0496,-4.0496,-4.0496,-4.0496,-4.0496,-4.0496,-4.0496,-4.0496,-4.0496,-4.0496,-4.0496,-4.0496,-4.0496,-4.0496,-4.0496,-4.0496,-4.0496,-4.0496,-4.0496,-4.0496,-4.0496,-4.0496,-4.0496,-4.0496,-4.0496,-4.0496,-4.0496,-4.0496,-5.1069,0.0,-5.0882,-5.0827,-5.0775,0.0,-5.0693,-5.0693,-5.0693,-5.0702,-5.0693,-5.0702,-5.0692,-5.0586,-5.0489,-5.0489,-5.0374,-5.0259,-5.025,-4.9625,-4.9183,-4.9183,-4.8413,-4.7625,-4.6962,-4.6759,-4.6215,-4.5068,-4.4745,-4.4425,-4.4017,-4.3682,-4.3515,-4.3515,-4.3515,-4.3515,-4.3515,-4.3515,-4.3515,-4.3515,-4.3515,-4.3583,-4.3771,-4.3851,-4.3929,-4.4005,-4.4005,-4.4005,-4.4005,-4.4005,-4.4005,-4.4033,-4.4498,-4.4714,-4.4849,-4.5302,-4.5052,-4.4509,-4.4509,-4.3431,-4.2019,-4.2019,-4.1335,-4.0496,-4.0496,-4.0496,-4.0496,-4.0496,-4.0496,-4.0496,-4.0496,-4.0496,-4.0496,-4.0496,-4.0496,-4.0496,-4.0496,-4.0496,-4.0496,-4.0496,-4.0496,-4.0496,-4.0496,-4.0496,-4.0496,-4.0496,-4.0496,-4.0496,-4.0496,-4.0496,-4.0496,-4.0496,-4.0496,-4.0496,-4.0496,-4.0496,-4.0496,-4.0496,-4.0496,-4.0496,-4.0496,-4.0496,-4.0496,-4.0496,-4.0496,-4.0496,-4.0496,-4.0496,-4.0496,-4.0496,-4.0496,-4.0496,0.0,0.0,-5.0909,0.0,-5.0838,-5.0775,0.0,-5.0702,-5.0702,-5.0702,-5.0702,-5.0702,-5.0692,-5.0123,-4.9661,-4.9661,-4.9025,-4.8507,-4.8461,-4.8355,-4.8279,-4.8279,-4.7567,-4.7019,-4.6904,-4.622,-4.5563,-4.503,-4.4745,-4.4425,-4.4017,-4.3682,-4.3515,-4.3515,-4.3515,-4.3515,-4.3515,-4.3515,-4.3515,-4.3515,-4.3515,-4.3531,-4.3634,-4.3753,-4.3883,-4.4005,-4.4005,-4.4005,-4.4005,-4.4005,-4.4005,-4.402,-4.4079,-4.4388,-4.48,-4.4872,-4.5125,-4.5441,-4.5441,-4.4335,-4.2931,-4.2931,-4.1835,-4.0496,-4.0496,-4.0496,-4.0496,-4.0496,-4.0496,-4.0496,-4.0496,-4.0496,-4.0496,-4.0496,-4.0496,-4.0496,-4.0496,-4.0496,-4.0496,-4.0496,-4.0496,-4.0496,-4.0496,-4.0496,-4.0496,-4.0496,-4.0496,-4.0496,-4.0496,-4.0496,-4.0496,-4.0496,-4.0496,-4.0496,-4.0496,-4.0496,-4.0496,-4.0496,-4.0496,-4.0496,-4.0496,-4.0496,-4.0496,-4.0496,-4.0496,-4.0496,-4.0496,-4.0496,-4.0496,-4.0496,-4.0496,-4.0496,-5.0898,-5.0898,-5.0882,0.0,-5.081,-5.0784,-5.0721,-5.0702,-5.0702,-5.0711,-5.0336,-5.0037,-5.007,-4.9798,-4.9404,-4.8915,-4.851,-4.8214,-4.8115,-4.7721,-4.7432,-4.7432,-4.6682,-4.6163,-4.6163,-4.5825,-4.5513,-4.5302,-4.4861,-4.4506,-4.4289,-4.3777,-4.3515,-4.3515,-4.3515,-4.3515,-4.3515,-4.3515,-4.3515,-4.3515,-4.3515,-4.3549,-4.3599,-4.3736,-4.3851,-4.3945,-4.3974,-4.4005,-4.4005,-4.4005,-4.4005,-4.4017,-4.4336,-4.4585,-4.4837,-4.5148,-4.54,-4.5594,-4.5594,-4.4489,-4.3104,-4.3104,-4.1912,-4.0496,-4.0496,-4.0496,-4.0496,-4.0496,-4.0496,-4.0496,-4.0496,-4.0496,-4.0496,-4.0496,-4.0496,-4.0496,-4.0496,-4.0496,-4.0496,-4.0496,-4.0496,-4.0496,-4.0496,-4.0496,-4.0496,-4.0496,-4.0496,-4.0496,-4.0496,-4.0496,-4.0496,-4.0496,-4.0496,-4.0496,-4.0496,-4.0496,-4.0496,-4.0496,-4.0496,-4.0496,-4.0496,-4.0496,-4.0496,-4.0496,-4.0496,-4.0496,-4.0496,-4.0496,-4.0496,-4.0496,-4.0496,-4.0496,0.0,0.0,-5.0615,-5.0761,-5.0801,-5.0775,0.0,-5.0702,-5.0644,-5.0441,-4.9938,-4.9414,-4.9026,-4.8956,-4.8739,-4.8089,-4.7772,-4.7604,-4.7489,-4.6951,-4.6567,-4.6567,-4.599,-4.5594,-4.5594,-4.5594,-4.5577,-4.5504,-4.4954,-4.4599,-4.4506,-4.3886,-4.3532,-4.3515,-4.3515,-4.3515,-4.3515,-4.3515,-4.3515,-4.3515,-4.3515,-4.3532,-4.3565,-4.3719,-4.3707,-4.3569,-4.3865,-4.4005,-4.4005,-4.4005,-4.4005,-4.403,-4.4285,-4.4556,-4.483,-4.5073,-4.5358,-4.5594,-4.5594,-4.4489,-4.3104,-4.3104,-4.1912,-4.0496,-4.0496,-4.0496,-4.0496,-4.0496,-4.0496,-4.0496,-4.0496,-4.0496,-4.0496,-4.0496,-4.0496,-4.0496,-4.0496,-4.0496,-4.0496,-4.0496,-4.0496,-4.0496,-4.0496,-4.0496,-4.0496,-4.0496,-4.0496,-4.0496,-4.0496,-4.0496,-4.0496,-4.0496,-4.0496,-4.0496,-4.0496,-4.0496,-4.0496,-4.0496,-4.0496,-4.0496,-4.0496,-4.0496,-4.0496,-4.0496,-4.0496,-4.0496,-4.0496,-4.0496,-4.0496,-4.0496,-4.0496,-4.0496,0.0,-5.0203,0.0,-5.0617,-5.0801,-5.0784,-5.073,-5.0692,-5.0479,-4.9734,-4.9583,-4.9111,-4.7514,-4.7233,-4.7194,-4.7086,-4.6364,-4.5811,-4.5738,-4.5691,-4.5671,-4.5671,-4.5633,-4.5594,-4.5594,-4.5594,-4.5577,-4.5504,-4.5007,-4.4637,-4.4506,-4.3934,-4.3565,-4.3496,-4.3515,-4.3515,-4.3515,-4.3515,-4.3515,-4.3515,-4.3515,-4.3496,-4.3515,-4.3703,-4.3361,-4.2641,-4.3574,-4.4005,-4.4005,-4.4005,-4.4005,-4.3943,-4.347,-4.3899,-4.473,-4.4181,-4.4672,-4.5594,-4.5594,-4.4489,-4.3104,-4.3104,-4.1912,-4.0496,-4.0496,-4.0496,-4.0496,-4.0496,-4.0496,-4.0496,-4.0496,-4.0496,-4.0496,-4.0496,-4.0496,-4.0496,-4.0496,-4.0496,-4.0496,-4.0496,-4.0496,-4.0496,-4.0496,-4.0496,-4.0496,-4.0496,-4.0496,-4.0496,-4.0496,-4.0496,-4.0496,-4.0496,-4.0496,-4.0496,-4.0496,-4.0496,-4.0496,-4.0496,-4.0496,-4.0496,-4.0496,-4.0496,-4.0496,-4.0496,-4.0496,-4.0496,-4.0496,-4.0496,-4.0496,-4.0496,-4.0496,-4.0496,0.0,0.0,0.0,-4.9894,-4.9965,-5.0112,-5.0631,-5.0729,-5.0469,-4.9718,-4.9134,-4.8423,-4.7301,-4.7108,-4.6897,-4.6275,-4.5901,-4.5676,-4.5603,-4.5594,-4.5594,-4.5594,-4.5594,-4.5594,-4.5594,-4.5594,-4.5586,-4.5568,-4.503,-4.4663,-4.4572,-4.3946,-4.3565,-4.3496,-4.3515,-4.3515,-4.3515,-4.2983,-4.2983,-4.3496,-4.2451,-4.2231,-4.2725,-4.2357,-4.2031,-4.1754,-4.2239,-4.2742,-4.3188,-4.2667,-4.276,-4.3181,-4.2641,-4.2731,-4.327,-4.3772,-4.4298,-4.4855,-4.5421,-4.4489,-4.3104,-4.3104,-4.1912,-4.0496,-4.0496,-4.0496,-4.0496,-4.0496,-4.0496,-4.0496,-4.0496,-4.0496,-4.0496,-4.0496,-4.0496,-4.0496,-4.0496,-4.0496,-4.0496,-4.0496,-4.0496,-4.0496,-4.0496,-4.0496,-4.0496,-4.0496,-4.0496,-4.0496,-4.0496,-4.0496,-4.0496,-4.0496,-4.0496,-4.0496,-4.0496,-4.0496,-4.0496,-4.0496,-4.0496,-4.0496,-4.0496,-4.0496,-4.0496,-4.0496,-4.0496,-4.0496,-4.0496,-4.0496,-4.0496,-4.0496,-4.0496,-4.0496,-4.9033,0.0,0.0,0.0,-4.9255,-4.9362,-5.0517,-5.0296,-4.9717,-4.9219,-4.8453,-4.7608,-4.6803,-4.6656,-4.6467,-4.5835,-4.5715,-4.5684,-4.5648,-4.5603,-4.5594,-4.5594,-4.5594,-4.5594,-4.5594,-4.5594,-4.5594,-4.5594,-4.5159,-4.4788,-4.4624,-4.4099,-4.3714,-4.3515,-4.3239,-4.3222,-4.3515,-4.2965,-4.2965,-4.3496,-4.2415,-4.2047,-4.2286,-4.1896,-4.1403,-4.092,-4.1123,-4.1646,-4.2352,-4.1813,-4.1906,-4.2359,-4.1867,-4.1949,-4.239,-4.3014,-4.3528,-4.397,-4.4547,-4.3835,-4.2662,-4.2662,-4.1681,-4.0496,-4.0496,-4.0496,-4.0496,-4.0496,-4.0496,-4.0496,-4.0496,-4.0496,-4.0496,-4.0496,-4.0496,-4.0496,-4.0496,-4.0496,-4.0496,-4.0496,-4.0496,-4.0496,-4.0496,-4.0496,-4.0496,-4.0496,-4.0496,-4.0496,-4.0496,-4.0496,-4.0496,-4.0496,-4.0496,-4.0496,-4.0496,-4.0496,-4.0496,-4.0496,-4.0496,-4.0496,-4.0496,-4.0496,-4.0496,-4.0496,-4.0496,-4.0496,-4.0496,-4.0496,-4.0362,-4.0092,-4.0092,-4.0092,0.0,0.0,0.0,0.0,-4.8748,-4.8593,-5.024,-4.9364,-4.8186,-4.8178,-4.7538,-4.6738,-4.5954,-4.5807,-4.5807,-4.5807,-4.5731,-4.5692,-4.5709,-4.564,-4.5594,-4.5594,-4.5594,-4.5594,-4.5594,-4.5594,-4.5594,-4.5594,-4.5352,-4.503,-4.4618,-4.4346,-4.3965,-4.3495,-4.2727,-4.269,-4.346,-4.346,-4.346,-4.346,-4.3423,-4.2983,-4.2231,-4.2341,-4.1535,-4.0089,-4.0288,-4.0791,-4.1534,-4.1534,-4.1534,-4.1518,-4.1185,-4.1518,-4.2193,-4.1893,-4.2327,-4.3066,-4.3085,-4.2527,-4.1788,-4.1788,-4.12,-4.0496,-4.0496,-4.0496,-4.0496,-4.0496,-4.0496,-4.0496,-4.0496,-4.0496,-4.0496,-4.0496,-4.0496,-4.0496,-4.0496,-4.0496,-4.0496,-4.0496,-4.0496,-4.0496,-4.0496,-4.0496,-4.0496,-4.0496,-4.0496,-4.0496,-4.0496,-4.0496,-4.0496,-4.0496,-4.0496,-4.0496,-4.0496,-4.0496,-4.0496,-4.0496,-4.0496,-4.0496,-4.0496,-4.0496,-4.0496,-4.0496,-4.0496,-4.0496,-4.0496,-4.0496,-4.0092,-3.9342,-3.9342,-3.9323,-4.7394,0.0,0.0,0.0,0.0,0.0,-4.8705,-4.857,-4.8022,-4.745,-4.7147,-4.673,-4.5878,-4.5765,-4.5781,-4.575,-4.5715,-4.5692,-4.5709,-4.564,-4.5594,-4.5594,-4.5594,-4.5594,-4.5594,-4.5594,-4.5594,-4.5594,-4.5352,-4.5052,-4.4688,-4.4099,-4.3422,-4.267,-4.2983,-4.3002,-4.2635,-4.2635,-4.2635,-4.2616,-4.1442,-4.0781,-4.0559,-4.0108,-3.9649,-3.9239,-3.9398,-3.9584,-3.9788,-3.9788,-4.016,-4.0686,-4.0152,-4.0181,-4.0569,-4.1256,-4.1794,-4.2258,-4.2874,-4.2527,-4.1788,-4.1788,-4.12,-4.0496,-4.0496,-4.0496,-4.0496,-4.0496,-4.0496,-4.0496,-4.0496,-4.0496,-4.0496,-4.0496,-4.0496,-4.0496,-4.0496,-4.0496,-4.0496,-4.0496,-4.0496,-4.0496,-4.0496,-4.0496,-4.0496,-4.0496,-4.0496,-4.0496,-4.0496,-4.0496,-4.0496,-4.0496,-4.0496,-4.0496,-4.0496,-4.0496,-4.0496,-4.0496,-4.0496,-4.0496,-4.0496,-4.0496,-4.0496,-4.0496,-4.0496,-4.0496,-4.0496,-4.0496,-4.04,-4.0169,-4.0169,-3.9861,-4.7115,-4.7759,-4.8442,-4.7603,0.0,0.0,-4.8467,-4.8188,-4.7621,-4.7493,-4.7193,-4.6692,-4.5869,-4.5738,-4.5754,-4.5708,-4.5692,-4.5687,-4.5701,-4.564,-4.5594,-4.5594,-4.5594,-4.5594,-4.5594,-4.5594,-4.5594,-4.5594,-4.5467,-4.515,-4.4688,-4.3676,-4.2848,-4.2323,-4.2433,-4.2433,-4.2304,-4.1974,-4.1974,-4.2286,-4.102,-4.0212,-3.9898,-3.9555,-3.9224,-3.8925,-3.9031,-3.9101,-3.9101,-3.9101,-3.9398,-3.983,-3.9695,-3.9705,-3.9897,-4.072,-4.111,-4.1335,-4.1835,-4.1681,-4.1258,-4.1258,-4.0912,-4.0496,-4.0496,-4.0496,-4.0496,-4.0496,-4.0496,-4.0496,-4.0496,-4.0496,-4.0496,-4.0496,-4.0496,-4.0496,-4.0496,-4.0496,-4.0496,-4.0496,-4.0496,-4.0496,-4.0496,-4.0496,-4.0496,-4.0496,-4.0496,-4.0496,-4.0496,-4.0496,-4.0496,-4.0496,-4.0496,-4.0496,-4.0496,-4.0496,-4.0496,-4.0496,-4.0496,-4.0496,-4.0496,-4.0496,-4.0496,-4.0496,-4.0496,-4.0496,-4.0496,-4.0496,-4.0323,-3.9996,-3.9996,-3.9746,-4.7009,-4.7913,-4.8913,-4.8048,-4.7278,0.0,-4.8644,-4.7836,-4.6971,-4.7663,-4.7259,-4.6537,-4.5819,-4.5701,-4.569,-4.5684,-4.5706,-4.5701,-4.5701,-4.564,-4.5594,-4.5594,-4.5594,-4.5594,-4.5594,-4.5594,-4.5594,-4.5594,-4.5531,-4.5243,-4.4631,-4.3304,-4.2478,-4.2304,-4.1625,-4.1572,-4.2286,-4.1589,-4.1535,-4.2158,-4.1425,-4.0634,-3.9785,-3.9921,-3.9575,-3.8925,-3.9045,-3.9101,-3.9101,-3.9101,-3.9101,-3.9137,-3.9618,-3.9808,-3.9861,-4.0328,-4.0496,-4.0496,-4.0496,-4.0496,-4.0496,-4.0496,-4.0496,-4.0496,-4.0496,-4.0496,-4.0496,-4.0496,-4.0496,-4.0496,-4.0496,-4.0496,-4.0496,-4.0496,-4.0496,-4.0496,-4.0496,-4.0496,-4.0496,-4.0496,-4.0496,-4.0496,-4.0496,-4.0496,-4.0496,-4.0496,-4.0496,-4.0496,-4.0496,-4.0496,-4.0496,-4.0496,-4.0496,-4.0496,-4.0496,-4.0496,-4.0496,-4.0496,-4.0496,-4.0496,-4.0496,-4.0496,-4.0496,-4.0496,-4.0496,-4.0496,-4.0496,-4.0496,-4.0131,-3.9438,-3.9438,-3.94,-4.6259,-4.6605,-4.7182,-4.6297,-4.5979,0.0,-4.6268,-4.6095,-4.5902,-4.6056,-4.596,-4.5806,-4.5642,-4.5657,-4.5673,-4.562,-4.5665,-4.5701,-4.5701,-4.564,-4.5594,-4.5594,-4.5594,-4.5594,-4.5594,-4.5594,-4.5594,-4.5594,-4.5201,-4.4849,-4.4606,-4.3927,-4.3152,-4.2323,-4.2158,-4.2139,-4.2304,-4.2139,-4.1827,-4.1334,-4.1168,-4.0373,-3.9016,-3.9088,-3.9087,-3.8979,-3.9059,-3.9101,-3.9101,-3.9101,-3.9101,-3.9137,-3.9618,-3.9808,-3.9861,-4.0328,-4.0496,-4.0496,-4.0496,-4.0496,-4.0496,-4.0496,-4.0496,-4.0496,-4.0496,-4.0496,-4.0496,-4.0496,-4.0496,-4.0496,-4.0496,-4.0496,-4.0496,-4.0496,-4.0496,-4.0496,-4.0496,-4.0496,-4.0496,-4.0496,-4.0496,-4.0496,-4.0496,-4.0496,-4.0496,-4.0496,-4.0496,-4.0496,-4.0496,-4.0496,-4.0496,-4.0496,-4.0496,-4.0496,-4.0496,-4.0496,-4.0496,-4.0496,-4.0496,-4.0496,-4.0496,-4.0496,-4.0496,-4.0496,-4.0496,-4.0496,-4.0496,-4.0496,-4.0419,-4.0265,-4.0265,-3.9919,-4.7721,-4.8125,-4.8471,-4.7163,-4.6855,0.0,0.0,-4.624,-4.624,-4.624,-4.624,-4.6124,-4.5691,-4.5631,-4.564,-4.5614,-4.5631,-4.5648,-4.5648,-4.5631,-4.5594,-4.5594,-4.5594,-4.5594,-4.5594,-4.5594,-4.5594,-4.5594,-4.5096,-4.4751,-4.4663,-4.4124,-4.3351,-4.2371,-4.1936,-4.1699,-4.1699,-4.091,-4.0506,-4.0506,-4.0086,-3.9494,-3.875,-3.8851,-3.8925,-3.8968,-3.9045,-3.9101,-3.9101,-3.9101,-3.9101,-3.9137,-3.9618,-3.9808,-3.9861,-4.0328,-4.0496,-4.0481,-4.04,-4.0425,-4.0481,-4.0372,-4.0425,-4.0496,-4.0496,-4.0496,-4.0496,-4.0496,-4.0496,-4.0496,-4.0496,-4.0496,-4.0496,-4.0496,-4.0496,-4.0496,-4.0496,-4.0496,-4.0496,-4.0496,-4.0496,-4.0496,-4.0496,-4.0496,-4.0496,-4.0496,-4.0496,-4.0496,-4.0496,-4.0496,-4.0496,-4.0496,-4.0496,-4.0496,-4.0496,-4.0496,-4.0496,-4.0496,-4.0496,-4.0496,-4.0496,-4.0496,-4.0496,-4.0496,-4.0496,-4.0496,-4.0496,-4.0496,-4.0496,-4.0496,-4.0496,-4.0285,-4.8759,-4.9192,-4.9384,-4.7971,-4.7625,-4.7451,0.0,0.0,0.0,-4.6644,-4.6644,-4.6432,-4.5729,-4.5594,-4.5594,-4.5594,-4.5594,-4.5594,-4.5594,-4.5594,-4.5594,-4.5594,-4.5594,-4.5594,-4.5594,-4.5594,-4.5594,-4.5594,-4.5096,-4.4763,-4.4688,-4.414,-4.3441,-4.2658,-4.164,-4.1168,-4.1334,-3.9753,-3.9258,-3.9882,-3.9239,-3.8869,-3.8735,-3.8851,-3.8906,-3.895,-3.9045,-3.9101,-3.9101,-3.9101,-3.9101,-3.9137,-3.9618,-3.9808,-3.9861,-4.0328,-4.0496,-4.0473,-4.0269,-4.033,-4.0465,-4.0269,-4.033,-4.0496,-4.0496,-4.0496,-4.0496,-4.0496,-4.0496,-4.0496,-4.0496,-4.0496,-4.0496,-4.0496,-4.0496,-4.0496,-4.0496,-4.0496,-4.0496,-4.0496,-4.0496,-4.0496,-4.0496,-4.0496,-4.0496,-4.0496,-4.0496,-4.0496,-4.0496,-4.0496,-4.0496,-4.0496,-4.0496,-4.0496,-4.0496,-4.0496,-4.0496,-4.0496,-4.0496,-4.0496,-4.0496,-4.0465,-4.0465,-4.0496,-4.0465,-4.0465,-4.0496,-4.0496,-4.0496,-4.0496,-4.0496,-4.0496,-4.6441,-4.6095,-4.6133,-4.5941,-4.5883,-4.5864,-4.5768,0.0,-4.5748,-4.5748,0.0,-4.5729,-4.5614,0.0,0.0,-4.5594,-4.5594,-4.5594,-4.5594,-4.5594,-4.5594,-4.5594,-4.5594,-4.5594,-4.5594,-4.5594,-4.5594,-4.5594,-4.5096,-4.4763,-4.4688,-4.414,-4.3699,-4.347,-4.1934,-4.1425,-4.2158,-4.0561,-3.9808,-3.99,-3.9808,-3.9445,-3.8881,-3.8877,-3.8964,-3.9073,-3.9101,-3.9101,-3.9101,-3.9101,-3.9101,-3.9137,-3.9618,-3.9808,-3.9861,-4.0328,-4.0496,-4.0473,-4.0269,-4.033,-4.0465,-4.0269,-4.033,-4.0496,-4.0496,-4.0496,-4.0496,-4.0496,-4.0496,-4.0496,-4.0496,-4.0496,-4.0496,-4.0496,-4.0496,-4.0496,-4.0496,-4.0496,-4.0496,-4.0496,-4.0496,-4.0496,-4.0496,-4.0496,-4.0496,-4.0496,-4.0496,-4.0496,-4.0496,-4.0496,-4.0496,-4.0496,-4.0496,-4.0496,-4.0496,-4.0496,-4.0496,-4.0496,-4.0496,-4.0496,-4.0496,-4.033,-4.0321,-4.0496,-4.0321,-4.0321,-4.0496,-4.0496,-4.0496,-4.0496,-4.0496,-4.0496,-4.724,-4.7048,-4.6932,-4.6471,-4.6355,-4.622,-4.5729,-4.5594,-4.5594,-4.5594,0.0,0.0,0.0,0.0,0.0,0.0,-4.5594,-4.5594,-4.5594,-4.5594,-4.5594,-4.5594,-4.5594,-4.5594,-4.5594,-4.5594,-4.5806,-4.6317,-4.5382,-4.5015,-4.5496,-4.4412,-4.3769,-4.3719,-4.2463,-4.1735,-4.159,-4.0469,-3.9662,-3.9203,-3.9203,-3.9081,-3.8833,-3.8877,-3.895,-3.9031,-3.9073,-3.9101,-3.9101,-3.9101,-3.9101,-3.9137,-3.9618,-3.9808,-3.9861,-4.0328,-4.0433,-4.0295,-4.0062,-4.012,-4.033,-4.0356,-4.0441,-4.0481,-4.0356,-4.0417,-4.0473,-4.0356,-4.0417,-4.0496,-4.0496,-4.0406,-4.0321,-4.0321,-4.0203,-4.0148,-4.0285,-4.0321,-4.0356,-4.0481,-4.0496,-4.0496,-4.0496,-4.0496,-4.0496,-4.0496,-4.0496,-4.0496,-4.0496,-4.0496,-4.0496,-4.0496,-4.0496,-4.0496,-4.0496,-4.0496,-4.0496,-4.0496,-4.0496,-4.0449,-4.033,-4.0251,-4.0167,-4.0101,-4.0167,-4.0242,-4.0321,-4.0449,-4.0496,-4.0496,-4.0496,-4.0496,-4.749,-4.7413,-4.7278,-4.6682,-4.6547,-4.6374,-4.5748,-4.5594,-4.5671,-4.5913,-4.5951,0.0,0.0,0.0,-4.6201,-4.599,0.0,-4.5874,-4.5633,-4.5594,-4.5594,-4.5594,-4.5594,-4.5594,-4.5594,-4.5594,-4.5951,-4.6827,-4.5657,-4.5252,-4.6057,-4.4714,-4.3881,-4.3804,-4.2844,-4.1936,-4.1113,-4.0304,-3.9496,-3.8707,-3.8707,-3.875,-3.8837,-3.8881,-3.8935,-3.9036,-3.9073,-3.9101,-3.9101,-3.9101,-3.9101,-3.9137,-3.9618,-3.9765,-3.9765,-4.023,-4.0321,-4.0148,-3.9827,-3.9857,-4.0042,-4.033,-4.0372,-4.0294,-4.0213,-4.025,-4.0294,-4.0213,-4.0304,-4.0425,-4.0425,-4.0313,-4.0167,-4.012,-3.9943,-3.9851,-4.0052,-4.0081,-4.0129,-4.0285,-4.0311,-4.0311,-4.0311,-4.0372,-4.0425,-4.0425,-4.0364,-4.0311,-4.0311,-4.0311,-4.0311,-4.0311,-4.0311,-4.0336,-4.0406,-4.0425,-4.0449,-4.0496,-4.0496,-4.0422,-4.0286,-4.0158,-4.0032,-3.9922,-3.9972,-4.0041,-4.0081,-4.025,-4.0356,-4.0425,-4.0473,-4.0496,-4.5922,-4.5691,-4.5671,-4.5652,-4.5633,-4.5633,-4.5614,-4.5594,-4.5845,-4.6682,-4.6846,-4.7105,-4.7875,-4.8029,-4.7759,-4.6981,-4.6846,0.0,0.0,-4.5594,-4.5594,-4.5594,-4.5594,-4.5594,-4.5594,-4.5594,-4.5951,-4.6827,-4.584,-4.5437,-4.6069,-4.4949,-4.4136,-4.3804,-4.2892,-4.1983,-4.1113,-4.0304,-3.9496,-3.8707,-3.8707,-3.8765,-3.891,-3.891,-3.8979,-3.9101,-3.9101,-3.9101,-3.9101,-3.9101,-3.9101,-3.9137,-3.9618,-3.9683,-3.9568,-4.0041,-4.0214,-4.0129,-3.9656,-3.9526,-3.9604,-4.0061,-4.0023,-3.9861,-4.0129,-4.0013,-3.9891,-4.0129,-4.0205,-4.0214,-4.0214,-4.0205,-4.0139,-3.9872,-3.9808,-3.9808,-3.9808,-3.9819,-3.9819,-3.9819,-3.9829,-3.9829,-3.9829,-4.0042,-4.0214,-4.0214,-3.9983,-3.9829,-3.9829,-3.9829,-3.9829,-3.9829,-3.9829,-3.9932,-4.0196,-4.0214,-4.0295,-4.0489,-4.0496,-4.0496,-4.0489,-4.0043,-3.9932,-4.0177,-3.9747,-3.9621,-3.9819,-3.9819,-3.9953,-4.0214,-4.0417,-4.0496,-4.5691,-4.5594,-4.5594,-4.5594,-4.5594,-4.5594,-4.5594,-4.5594,-4.5845,-4.6721,-4.6904,-4.7154,-4.7952,-4.8105,-4.7836,-4.7019,-4.6904,-4.6605,0.0,-4.5594,-4.5594,-4.5594,-4.5594,-4.5594,-4.5594,-4.5594,-4.5951,-4.6827,-4.6387,-4.6306,-4.6872,-4.5786,-4.4987,-4.4615,-4.3667,-4.2774,-4.1901,-4.1625,-4.0818,-3.9478,-3.9543,-3.9341,-3.891,-3.8954,-3.8993,-3.9036,-3.9073,-3.9073,-3.9036,-3.9073,-3.9101,-3.9137,-3.9618,-3.9683,-3.9556,-4.0031,-3.9992,-3.9702,-3.9556,-3.9514,-3.9544,-3.9838,-3.9861,-3.9786,-3.9747,-3.9761,-3.9786,-3.9747,-3.9827,-3.9943,-3.9943,-3.9846,-3.9713,-3.9621,-3.9464,-3.9389,-3.9561,-3.9597,-3.9637,-3.9775,-3.9808,-3.9808,-3.9808,-3.9761,-3.978,-3.9912,-3.9851,-3.9808,-3.9808,-3.9808,-3.9808,-3.9808,-3.9808,-3.984,-3.9932,-3.9943,-3.9973,-4.0024,-4.0043,-3.9983,-3.9838,-3.969,-3.9561,-3.9477,-3.9495,-3.9532,-3.9597,-3.9213,-3.9045,-3.9135,-3.8652,-3.8891,-4.5594,-4.5594,-4.5594,-4.5594,-4.5594,-4.5691,-4.599,-4.6067,-4.6297,-4.7163,-4.7567,-4.7855,-4.8067,-4.8606,-4.8567,-4.7135,-4.7135,-4.6913,0.0,-4.5594,-4.5594,-4.5594,-4.5594,-4.5594,-4.5594,-4.5594,-4.6067,-4.724,-4.6897,-4.6967,-4.7726,-4.6493,-4.5559,-4.5053,-4.4175,-4.3297,-4.2423,-4.2404,-4.1595,-3.9976,-4.0004,-3.9641,-3.8939,-3.8979,-3.9007,-3.9036,-3.9073,-3.9073,-3.905,-3.9073,-3.9101,-3.9137,-3.9531,-3.9561,-3.9408,-3.987,-3.9769,-3.9363,-3.9363,-3.9363,-3.9395,-3.9614,-3.9637,-3.9543,-3.9508,-3.9525,-3.9543,-3.9508,-3.9597,-3.9694,-3.9694,-3.9597,-3.9489,-3.9389,-3.9219,-3.9156,-3.9324,-3.9363,-3.9395,-3.9531,-3.9536,-3.9536,-3.9536,-3.9439,-3.9433,-3.966,-3.9606,-3.9536,-3.9536,-3.9536,-3.9536,-3.9536,-3.9536,-3.9602,-3.9683,-3.9754,-3.9808,-3.9808,-3.9808,-3.9731,-3.9609,-3.9544,-3.9427,-3.9245,-3.9324,-3.9363,-3.9363,-3.8975,-3.8833,-3.8893,-3.8102,-3.8022]},{"header":{"parameterUnit":"m.s-1","parameterCategory":1,"la1":30.6,"la2":29.2853,"lo1":-89.7004,"lo2":-87.6739,"dy":0.0162,"dx":0.0183,"nx":112,"ny":82,"refTime":"2025-05-16T00:00:00:Z","depth":0,"parameterNumber":3,"parameterNumberName":"V-component_of_WINDS"},"data":[0.0,0.0,0.0,0.0,0.0,0.0,0.0,0.0,0.0,0.0,0.0,0.0,0.0,0.0,0.0,0.0,0.0,0.0,0.0,0.0,0.0,0.0,0.0,0.0,0.0,0.0,0.0,0.0,0.0,0.0,0.0,0.0,0.0,0.0,0.0,0.0,0.0,0.0,0.0,0.0,0.0,0.0,0.0,0.0,0.0,0.0,0.0,0.0,0.0,0.0,0.0,0.0,0.0,0.0,0.0,0.0,0.0,0.0,0.0,0.0,0.0,0.0,0.0,0.0,0.0,0.0,0.0,0.0,0.0,0.0,0.0,0.0,0.0,0.0,0.0,0.0,0.0,0.0,0.0,0.0,0.0,0.0,0.0,0.0,0.0,0.0,0.0,0.0,0.0,0.0,-0.9591,-0.9639,-0.9825,-0.997,-0.9923,-0.973,-0.9452,-0.9228,0.0,0.0,0.0,0.0,0.0,0.0,0.0,0.0,0.0,0.0,0.0,0.0,0.0,0.0,0.0,0.0,0.0,0.0,0.0,0.0,0.0,0.0,0.0,0.0,0.0,0.0,0.0,0.0,0.0,0.0,0.0,0.0,0.0,0.0,0.0,0.0,0.0,0.0,0.0,0.0,0.0,0.0,0.0,0.0,0.0,0.0,0.0,0.0,0.0,0.0,0.0,0.0,0.0,0.0,0.0,0.0,0.0,0.0,0.0,0.0,0.0,0.0,0.0,0.0,0.0,0.0,0.0,0.0,0.0,0.0,0.0,0.0,0.0,0.0,0.0,0.0,0.0,0.0,0.0,0.0,0.0,0.0,0.0,0.0,0.0,0.0,0.0,0.0,0.0,0.0,0.0,0.0,0.0,0.0,0.0,0.0,0.0,0.0,0.0,0.0,0.0,0.0,0.0,0.0,-0.951,-0.9764,-0.9883,-0.9886,-0.9696,-0.9517,-0.934,-0.9221,0.0,0.0,0.0,0.0,0.0,0.0,0.0,0.0,0.0,0.0,0.0,0.0,0.0,0.0,0.0,0.0,0.0,0.0,0.0,0.0,0.0,0.0,0.0,0.0,0.0,0.0,0.0,0.0,0.0,0.0,0.0,0.0,0.0,0.0,0.0,0.0,0.0,0.0,0.0,0.0,0.0,0.0,0.0,0.0,0.0,0.0,0.0,0.0,0.0,0.0,0.0,0.0,0.0,0.0,0.0,0.0,0.0,0.0,0.0,0.0,0.0,0.0,0.0,0.0,0.0,0.0,0.0,0.0,0.0,0.0,0.0,0.0,0.0,0.0,0.0,0.0,0.0,0.0,0.0,0.0,0.0,0.0,0.0,0.0,0.0,0.0,0.0,0.0,0.0,0.0,0.0,0.0,0.0,0.0,0.0,0.0,0.0,0.0,0.0,0.0,0.0,0.0,0.0,-0.9306,-0.9493,-0.9788,-0.9883,-0.9839,-0.9629,-0.9469,-0.9283,-0.9052,-0.8754,0.0,0.0,0.0,0.0,0.0,0.0,0.0,0.0,0.0,0.0,0.0,0.0,0.0,0.0,0.0,0.0,0.0,0.0,0.0,0.0,0.0,0.0,0.0,0.0,0.0,0.0,0.0,0.0,0.0,0.0,0.0,0.0,0.0,0.0,0.0,0.0,0.0,0.0,0.0,0.0,0.0,0.0,0.0,0.0,0.0,0.0,0.0,0.0,0.0,0.0,0.0,0.0,0.0,0.0,0.0,0.0,0.0,0.0,0.0,0.0,0.0,0.0,0.0,0.0,0.0,0.0,0.0,0.0,0.0,0.0,0.0,0.0,0.0,0.0,0.0,0.0,0.0,0.0,0.0,0.0,0.0,0.0,0.0,0.0,0.0,0.0,0.0,0.0,0.0,0.0,0.0,0.0,0.0,0.0,0.0,0.0,0.0,0.0,0.0,0.0,0.0,0.0,-0.9432,-0.9493,-0.9788,-0.9791,-0.971,-0.9568,-0.9415,-0.9218,-0.8898,-0.8652,0.0,0.0,0.0,0.0,0.0,0.0,0.0,0.0,0.0,0.0,0.0,0.0,0.0,0.0,0.0,0.0,0.0,0.0,0.0,0.0,0.0,0.0,0.0,0.0,0.0,0.0,0.0,0.0,0.0,0.0,0.0,0.0,0.0,0.0,0.0,0.0,0.0,0.0,0.0,0.0,0.0,0.0,0.0,0.0,0.0,0.0,0.0,0.0,0.0,0.0,0.0,0.0,0.0,0.0,0.0,0.0,0.0,0.0,0.0,0.0,0.0,0.0,0.0,0.0,0.0,0.0,0.0,0.0,0.0,0.0,0.0,0.0,0.0,0.0,0.0,0.0,0.0,0.0,0.0,0.0,0.0,0.0,0.0,0.0,0.0,0.0,0.0,0.0,0.0,0.0,0.0,0.0,0.0,0.0,0.0,0.0,0.0,0.0,0.0,0.0,0.0,0.0,-0.93,-0.9493,-0.9788,-0.9703,-0.9561,-0.9412,-0.9313,-0.9103,-0.8892,-0.8652,0.0,0.0,0.0,0.0,0.0,0.0,0.0,0.0,0.0,0.0,0.0,0.0,0.0,0.0,0.0,0.0,0.0,0.0,0.0,0.0,0.0,0.0,0.0,0.0,0.0,0.0,0.0,0.0,0.0,0.0,0.0,0.0,0.0,0.0,0.0,0.0,0.0,0.0,0.0,0.0,0.0,0.0,0.0,0.0,0.0,0.0,0.0,0.0,0.0,0.0,0.0,0.0,0.0,0.0,0.0,0.0,0.0,0.0,0.0,0.0,0.0,0.0,0.0,0.0,0.0,0.0,0.0,0.0,0.0,0.0,0.0,0.0,0.0,0.0,0.0,0.0,0.0,0.0,0.0,0.0,0.0,0.0,0.0,0.0,0.0,0.0,0.0,0.0,0.0,0.0,0.0,0.0,0.0,0.0,0.0,0.0,0.0,0.0,0.0,0.0,0.0,0.0,-0.9147,-0.9317,-0.9527,-0.95,-0.9405,-0.9309,-0.9245,-0.9105,-0.8811,0.0,0.0,0.0,0.0,0.0,0.0,0.0,0.0,0.0,0.0,0.0,0.0,0.0,0.0,0.0,0.0,0.0,0.0,0.0,0.0,0.0,0.0,0.0,0.0,0.0,0.0,0.0,0.0,0.0,0.0,0.0,0.0,0.0,0.0,0.0,0.0,0.0,0.0,0.0,0.0,0.0,0.0,0.0,0.0,0.0,0.0,0.0,0.0,0.0,0.0,0.0,0.0,0.0,0.0,0.0,0.0,0.0,0.0,0.0,0.0,0.0,0.0,0.0,0.0,0.0,0.0,0.0,0.0,0.0,0.0,0.0,0.0,0.0,0.0,0.0,0.0,0.0,0.0,0.0,0.0,0.0,0.0,0.0,0.0,0.0,0.0,0.0,0.0,0.0,0.0,0.0,0.0,0.0,0.0,0.0,0.0,0.0,0.0,0.0,0.0,0.0,0.0,-0.8832,-0.9035,-0.9268,-0.9364,-0.9337,-0.9323,-0.9217,-0.9169,-0.8977,-0.8726,0.0,0.0,0.0,0.0,0.0,0.0,0.0,0.0,0.0,0.0,0.0,0.0,0.0,0.0,0.0,0.0,0.0,0.0,0.0,0.0,0.0,0.0,0.0,0.0,0.0,0.0,0.0,0.0,0.0,0.0,0.0,0.0,0.0,0.0,0.0,0.0,0.0,0.0,0.0,0.0,0.0,0.0,0.0,0.0,0.0,0.0,0.0,0.0,0.0,0.0,0.0,0.0,0.0,0.0,0.0,0.0,0.0,0.0,0.0,0.0,0.0,0.0,0.0,0.0,0.0,0.0,0.0,0.0,0.0,0.0,0.0,0.0,0.0,0.0,0.0,0.0,0.0,0.0,0.0,0.0,0.0,0.0,0.0,0.0,0.0,0.0,0.0,0.0,0.0,0.0,0.0,0.0,0.0,0.0,0.0,0.0,0.0,0.0,0.0,0.0,0.0,0.0,-0.8635,-0.8967,-0.9208,-0.9361,-0.9239,-0.9207,-0.9207,-0.9022,-0.8817,0.0,0.0,0.0,0.0,0.0,0.0,0.0,0.0,0.0,0.0,0.0,0.0,0.0,0.0,0.0,0.0,0.0,0.0,0.0,0.0,0.0,0.0,0.0,0.0,0.0,0.0,0.0,0.0,0.0,0.0,0.0,0.0,0.0,0.0,0.0,0.0,0.0,0.0,0.0,0.0,0.0,0.0,0.0,0.0,0.0,0.0,0.0,0.0,0.0,0.0,0.0,0.0,0.0,0.0,0.0,0.0,0.0,0.0,0.0,0.0,0.0,0.0,0.0,0.0,0.0,0.0,0.0,0.0,0.0,0.0,0.0,0.0,0.0,0.0,0.0,0.0,0.0,0.0,0.0,0.0,0.0,0.0,0.0,0.0,0.0,0.0,0.0,0.0,0.0,0.0,0.0,0.0,0.0,0.0,0.0,0.0,0.0,0.0,0.0,0.0,0.0,0.0,0.0,-0.6136,-0.6389,-0.6817,-0.7705,-0.7732,-0.8047,-0.889,-0.8908,-0.8784,-0.8425,0.0,0.0,0.0,0.0,0.0,0.0,0.0,0.0,0.0,0.0,0.0,0.0,0.0,0.0,0.0,0.0,0.0,0.0,0.0,0.0,0.0,0.0,0.0,0.0,0.0,0.0,0.0,0.0,0.0,0.0,0.0,0.0,0.0,0.0,0.0,0.0,0.0,0.0,0.0,0.0,0.0,0.0,0.0,0.0,0.0,0.0,0.0,0.0,0.0,0.0,0.0,0.0,0.0,0.0,0.0,0.0,0.0,0.0,0.0,0.0,0.0,0.0,0.0,0.0,0.0,0.0,0.0,0.0,0.0,0.0,0.0,0.0,0.0,0.0,0.0,0.0,0.0,0.0,0.0,0.0,0.0,0.0,0.0,0.0,0.0,0.0,0.0,0.0,0.0,0.0,0.0,0.0,0.0,0.0,0.0,0.0,0.0,0.0,0.0,0.0,0.0,0.0,-0.498,-0.5196,-0.5639,-0.6366,-0.6424,-0.6927,-0.81,-0.8156,-0.8202,-0.8299,0.0,0.0,0.0,0.0,0.0,0.0,0.0,0.0,0.0,0.0,0.0,0.0,0.0,0.0,0.0,0.0,0.0,0.0,0.0,0.0,0.0,0.0,0.0,0.0,0.0,0.0,0.0,0.0,0.0,0.0,0.0,0.0,0.0,0.0,0.0,0.0,0.0,0.0,0.0,0.0,0.0,0.0,0.0,0.0,0.0,0.0,0.0,0.0,0.0,0.0,0.0,0.0,0.0,0.0,0.0,0.0,0.0,0.0,0.0,0.0,0.0,0.0,0.0,0.0,0.0,0.0,0.0,0.0,0.0,0.0,0.0,0.0,0.0,0.0,0.0,0.0,0.0,0.0,0.0,0.0,0.0,0.0,0.0,0.0,0.0,0.0,0.0,0.0,0.0,0.0,0.0,0.0,0.0,0.0,0.0,0.0,0.0,0.0,0.0,0.0,0.0,0.0,-0.4395,-0.4758,-0.5083,-0.5194,-0.5186,-0.5684,-0.6856,-0.6959,-0.7291,-0.8051,0.0,0.0,0.0,0.0,0.0,0.0,0.0,0.0,0.0,0.0,0.0,0.0,0.0,0.0,0.0,0.0,0.0,0.0,0.0,0.0,0.0,0.0,0.0,0.0,0.0,0.0,0.0,0.0,0.0,0.0,0.0,0.0,0.0,0.0,0.0,0.0,0.0,0.0,0.0,0.0,0.0,0.0,0.0,0.0,0.0,0.0,0.0,0.0,0.0,0.0,0.0,0.0,0.0,0.0,0.0,0.0,0.0,0.0,0.0,0.0,0.0906,0.0,0.0,0.0,0.0,0.0,0.0,0.0,0.0,0.0,0.0,0.0,0.0,0.0,0.0,0.0,0.0,0.0,0.0,0.0,0.0,0.0,0.0,0.0,0.0,0.0,0.0,0.0,0.0,0.0,0.0,0.0,0.0,0.0,0.0,0.0,0.0,0.0,0.0,0.0,0.0,0.0,-0.1697,-0.1975,-0.2519,-0.3466,-0.3756,-0.4383,-0.5591,-0.5683,-0.5984,-0.6602,-0.6628,0.0,0.0,0.0,0.0,0.0,0.0,0.0,0.0,0.0,0.0,0.0,0.0,0.0,0.0,0.0,0.0,0.0,0.0,0.0,0.0,0.0,0.0,0.0,0.0,0.0,0.0,0.0,0.0,0.0,0.0,0.0,0.0,0.0,0.0,0.0,0.0,0.0,0.0,0.0,0.0,0.0,0.0,0.0,0.0,0.0,0.0,0.0,0.0,0.0,0.0,0.0,0.0,0.0,0.0,0.0,0.0,0.0,0.0,0.0,0.2481,0.1883,0.0,0.0,0.0,0.0,0.0,0.0,0.0,0.0,0.0,0.0,0.0,0.0,0.0,0.0,0.0,0.0,0.0,0.0,0.0,0.0,0.0,0.0,0.0,0.0,0.0,0.0,0.0,0.0,0.0,0.0,0.0,0.0,0.0,0.0,0.0,0.0,0.0,0.0,0.0,0.0,-0.069,-0.0921,-0.1372,-0.199,-0.2179,-0.2804,-0.4149,-0.4221,-0.4586,-0.5464,-0.5546,0.0,0.0,0.0,0.0,0.0,0.0,0.0,0.0,0.0,0.0,0.0,0.0,0.0,0.0,0.0,0.0,0.0,0.0,0.0,0.0,0.0,0.0,0.0,0.0,0.0,0.0,0.0,0.0,0.0,0.0,0.0,0.0,0.0,0.0,0.0,0.0,0.0,0.0,0.0,0.0,0.0,0.0,0.0,0.0,0.0,0.0,0.0,0.0,0.0,0.0,0.0,0.0,0.0,0.4646,0.4646,0.4634,0.4634,0.4626,0.4614,0.4614,0.4276,0.3743,0.2758,0.0,0.0,0.0,0.0,0.0,0.0,0.0,0.0,0.0,0.0,0.0,0.0,0.0,0.0,0.0,0.0,0.0,0.0,0.0,0.0,0.0,0.0,-0.0384,-0.0594,-0.049,-0.0383,-0.0594,0.0,0.0,0.0,0.0,0.0,0.0,0.0,0.0,0.0,0.0,0.0,-0.0369,-0.0639,-0.0804,-0.0815,-0.0858,-0.138,-0.2596,-0.2693,-0.3169,-0.4362,-0.4401,-0.4744,0.0,0.0,0.0,0.0,0.0,0.0,0.0,0.0,0.0,0.0,0.0,0.0,0.0,0.0,0.0,0.0,0.0,0.0,0.0,0.0,0.0,0.0,0.0,0.0,0.0,0.0,0.0,0.0,0.0,0.0,0.0,0.0,0.9945,1.0079,0.0,0.0,0.0,0.0,0.0,0.0,0.0,0.0,0.0,0.0,0.0,0.0,0.0,0.784,0.7826,0.7621,0.7544,0.7544,0.7582,0.7579,0.7544,0.7544,0.7488,0.7395,0.7395,0.0,0.3858,0.3635,0.0,0.0,0.0,0.0,0.0,0.0,0.0,0.0,0.0,0.0,0.0,0.0,0.0,0.0,0.0,0.0,0.0,0.0,0.0,0.0,0.0,0.0,-0.0056,-0.0111,-0.0056,-0.0056,-0.0111,-0.049,-0.0795,-0.0779,-0.0815,-0.07,0.0,0.0,0.0,0.0,0.0,0.0,-0.0052,-0.0317,-0.0481,-0.0481,-0.0738,-0.099,-0.1198,-0.1129,-0.1611,-0.2803,-0.2897,-0.3399,-0.4547,-0.4435,0.0,0.0,0.0,0.0,0.0,0.0,0.0,0.0,0.0,0.0,0.0,0.0,0.0,0.0,0.0,0.0,0.0,0.0,0.0,0.0,0.0,0.0,0.0,0.0,0.0,0.0,0.0,0.0,0.0,1.0151,1.0263,1.0161,1.0236,1.0078,0.0,0.0,0.0,0.0,0.0,0.0,0.0,0.0,0.0,0.8928,0.8812,0.8755,0.889,0.8632,0.8471,0.8471,0.8273,0.8171,0.8117,0.8117,0.8048,0.7872,0.7872,0.7261,0.6077,0.5276,0.4604,0.3894,0.0,0.0,0.0,0.0,0.2015,0.1903,0.1232,0.1008,0.0894,0.022,0.0,0.0,0.0,0.0,0.0,0.0,0.0,0.0,0.0,0.0,0.0,0.0,0.0,0.0,0.0,-0.0166,-0.0327,-0.0371,-0.0364,-0.0304,-0.0195,-0.0192,0.0,0.0,0.0,0.0,0.0,-0.0104,-0.0156,-0.0157,-0.031,-0.046,-0.0614,-0.0609,-0.0855,-0.1545,-0.1594,-0.2073,-0.3097,-0.3057,-0.3284,0.0,0.0,0.0,0.0,0.0,0.0,0.0,0.0,0.0,0.0,0.0,0.0,0.0,0.0,0.0,0.0,0.0,0.0,0.0,0.0,0.0,0.0,0.0,0.0,0.0,0.0,0.0,0.0,1.1149,1.149,1.1184,1.1188,1.1069,0.0,0.0,0.0,0.0,0.0,0.0,0.963,0.939,0.9327,0.9459,0.94,0.9405,0.9546,0.923,0.9036,0.9036,0.8618,0.8345,0.8286,0.813,0.8048,0.7872,0.7872,0.7872,0.78,0.6777,0.6033,0.5473,0.4593,0.3974,0.358,0.358,0.358,0.3469,0.2574,0.2239,0.2123,0.1215,0.0714,0.0382,0.0108,0.0,0.0,0.0,0.0,0.0,0.0,0.0,0.0,0.0,0.0,0.0,0.0,0.0,0.0,0.0,0.0,0.0,0.0,0.0,0.0,0.0,0.0,0.0,0.0,0.0,0.0,0.0,0.0,-0.0101,-0.0303,-0.0303,-0.0403,-0.0702,-0.0702,-0.1044,-0.1802,-0.1862,-0.2183,-0.291,0.0,0.0,0.0,0.0,0.0,0.0,0.0,0.0,0.0,0.0,0.0,0.0,0.0,0.0,0.0,0.0,0.0,0.0,0.0,0.0,0.0,0.0,0.0,0.0,0.0,0.0,0.0,0.0,0.0,1.4298,1.3551,0.0,0.0,0.0,0.0,1.1888,1.0907,1.0249,1.0256,1.0259,1.026,1.0398,1.0146,1.0022,1.017,0.9839,0.9643,0.964,0.9115,0.886,0.873,0.8294,0.8048,0.7872,0.7872,0.7872,0.7861,0.7687,0.6847,0.5677,0.5473,0.4651,0.358,0.358,0.358,0.358,0.3525,0.3525,0.3525,0.3465,0.2654,0.1474,0.0328,0.0,0.0,0.0,0.0,0.0,0.0,0.0,0.0,0.0,0.0,0.0,0.0,0.0,0.0,0.0,0.0,0.0,0.0,0.0,0.0,0.0,0.0,0.0,0.0,0.0,0.0,0.0,0.0,0.0,0.0,0.0,-0.015,-0.0394,-0.0443,-0.0536,-0.086,-0.089,-0.0871,-0.0852,-0.1588,0.0,0.0,0.0,0.0,0.0,0.0,0.0,0.0,0.0,0.0,0.0,0.0,0.0,0.0,0.0,0.0,0.0,0.0,0.0,0.0,0.0,0.0,0.0,0.0,0.0,0.0,0.0,0.0,1.4849,1.4821,0.0,1.4816,1.406,1.3357,1.2828,1.3343,1.2795,1.0777,1.1622,1.1662,1.0639,1.0508,1.0468,1.0522,1.019,0.9994,0.9994,0.9455,0.9189,0.9121,0.8609,0.8296,0.8183,0.7994,0.7831,0.7761,0.772,0.739,0.6866,0.6826,0.6412,0.5924,0.5924,0.5924,0.5813,0.5033,0.4756,0.4643,0.386,0.3287,0.2883,0.2442,0.1776,0.1166,0.1166,0.0614,0.0,0.0,0.0,0.0,0.0,0.0,0.0,0.0,0.0,0.0,0.0,0.0,0.0,0.0,0.0,0.0,0.0,0.0,0.0,0.0,0.0,0.0,0.0,0.0,0.0,0.0,0.0,-0.0049,-0.0145,-0.0145,-0.0192,-0.0286,-0.028,-0.0369,-0.0503,-0.0746,-0.1231,0.0,0.0,0.0,0.0,0.0,0.0,0.0,0.0,0.0,0.0,0.0,0.0,0.0,0.0,0.0,0.0,0.0,0.0,0.0,0.0,0.0,0.0,0.0,0.0,0.0,1.591,1.6452,1.6577,1.6582,1.6626,1.6635,1.5928,1.5243,1.4777,1.4713,1.4009,1.2483,1.2826,1.2738,1.2165,1.1637,1.1442,1.1442,1.0717,1.0366,1.0313,0.9775,0.9505,0.9371,0.8857,0.8629,0.8549,0.8135,0.795,0.7877,0.7717,0.7568,0.7456,0.7456,0.7334,0.721,0.721,0.721,0.7099,0.6262,0.5984,0.5817,0.4587,0.4196,0.4139,0.3748,0.3022,0.2407,0.2407,0.1512,0.0616,0.0616,0.028,0.0,0.0,0.0,0.0,0.0,0.0,0.0,0.0,0.0,0.0,0.0,0.0,0.0,0.0,0.0,0.0,0.0,0.0,0.0,0.0,0.0,0.0,0.0,0.0,0.0,0.0,0.0,0.0,0.0,0.0,-0.0092,-0.0275,-0.031,-0.06,-0.1245,0.0,0.0,0.0,0.0,0.0,0.0,0.0,0.0,0.0,0.0,0.0,0.0,0.0,0.0,0.0,0.0,0.0,0.0,0.0,0.0,0.0,0.0,0.0,1.7003,1.843,1.9548,1.9495,1.888,1.8757,1.9448,1.7449,1.652,1.7739,1.5078,1.396,1.5224,1.3778,1.3543,1.4842,1.3538,1.2816,1.2816,1.1372,1.0639,1.049,1.0014,0.9747,0.9614,0.91,0.8915,0.8906,0.8411,0.8232,0.8158,0.7679,0.744,0.7331,0.7277,0.726,0.721,0.721,0.721,0.721,0.721,0.721,0.6988,0.5817,0.5483,0.526,0.4083,0.3692,0.3636,0.3636,0.2798,0.1847,0.1791,0.0952,0.0056,0.0,0.0,0.0,0.0,0.0,0.0,0.0,0.0,0.0,0.0,0.0,0.0,0.0,0.0,0.0,0.0,0.0,0.0,0.0,0.0,0.0,0.0,0.0,0.0,0.0,0.0,0.0,0.0,0.0,0.0,0.0,-0.0176,-0.0213,0.0,0.0,0.0,0.0,0.0,0.0,0.0,0.0,0.0,0.0,0.0,0.0,0.0,0.0,0.0,0.0,0.0,0.0,0.0,0.0,0.0,0.0,1.8372,1.8758,1.8505,1.9232,1.9839,2.0032,2.0069,2.016,2.0358,1.9766,1.9052,1.8287,1.8339,1.7506,1.5572,1.5904,1.5792,1.4912,1.3538,1.2816,1.2816,1.1326,1.0534,1.0487,1.0102,0.9899,0.9859,0.9403,0.9217,0.9147,0.8708,0.8414,0.8312,0.7893,0.7655,0.75,0.7358,0.726,0.721,0.721,0.721,0.721,0.721,0.721,0.7154,0.6818,0.6707,0.6652,0.6316,0.559,0.4923,0.4923,0.4029,0.291,0.2015,0.1553,0.1099,0.0219,0.0,0.0,0.0,0.0,0.0,0.0,0.0,0.0,0.0,0.0,0.0,0.0,0.0,0.0,0.0,0.0,0.0,0.0,0.0,0.0,0.0,0.0,0.0,0.0,0.0,0.0,0.0,0.0,0.0,0.0,-0.0044,-0.0043,0.0,0.0,0.0,0.0,0.0,0.0,0.0,0.0,0.0,0.0,0.0,0.0,0.0,0.0,0.0,0.0,0.0,0.0,0.0,0.0,0.0,0.0,1.9138,1.9452,1.9561,1.9851,2.0146,2.0412,2.0575,2.0665,2.0665,2.0665,2.0271,1.9248,1.9215,1.8615,1.7278,1.7187,1.7065,1.6667,1.5289,1.4535,1.4382,1.2402,1.1324,1.112,1.0378,0.9953,0.9889,0.9619,0.9485,0.9423,0.8922,0.8663,0.8465,0.8046,0.7782,0.7557,0.0,0.0,0.0,0.0,0.721,0.721,0.721,0.721,0.721,0.721,0.721,0.721,0.721,0.6707,0.6151,0.6151,0.5312,0.4188,0.3438,0.2858,0.2175,0.0966,0.069,0.0525,0.0103,0.0,0.0,0.0,0.0,0.0,0.0,0.0,0.0,0.0,0.0,0.0,0.0,0.0,0.0,0.0,0.0,0.0,0.0,0.0,0.0,0.0,0.0,0.0,0.0,0.0,0.0,0.0,0.0,0.0,0.0,0.0,0.0,0.0,-0.0896,-0.1198,0.0,0.0,0.0,0.0,0.0,0.0,0.0,0.0,0.0,0.0,0.0,0.0,0.0,0.0,0.0,0.0,1.9814,2.0087,2.0421,2.0458,2.0543,2.0711,2.0665,2.0665,2.0665,2.0665,2.0563,2.0297,1.8862,1.8473,1.9476,1.8029,0.0,0.0,0.0,1.684,1.663,1.4029,1.251,1.2008,1.0765,1.0074,0.9822,0.9805,0.973,0.9602,0.914,0.8877,0.8747,0.8267,0.7881,0.7551,0.7324,0.721,0.721,0.721,0.721,0.721,0.721,0.0,0.0,0.721,0.721,0.721,0.721,0.721,0.721,0.721,0.6422,0.5505,0.5255,0.4403,0.3282,0.2088,0.1759,0.1492,0.0405,0.0202,0.0151,0.0,0.0,0.0,0.0,0.0,0.0,0.0,0.0,0.0,0.0,0.0,0.0,0.0,0.0,0.0,0.0,0.0,0.0,0.0,0.0,0.0,0.0,0.0,0.0,0.0,0.0,0.0,0.0,0.0,0.0,0.0,0.0,0.0,0.0,0.0,0.0,0.0,0.0,0.0,0.0,0.0,0.0,0.0,0.0,0.0,0.0,0.0,0.0,2.0133,2.0423,2.0829,2.1446,2.1483,2.1296,2.0729,2.0665,2.0665,2.0665,2.0665,2.0563,2.0297,1.9824,1.9495,1.9483,1.9017,1.8816,1.9072,1.7509,1.6673,1.663,1.4624,1.3119,1.2008,1.1565,0.0,0.9819,0.9703,0.9635,0.9595,0.9259,0.9124,0.9087,0.8601,0.81,0.7551,0.7324,0.721,0.721,0.721,0.721,0.721,0.721,0.721,0.721,0.721,0.721,0.721,0.721,0.721,0.0,0.721,0.6976,0.6463,0.5458,0.4965,0.438,0.3164,0.2868,0.258,0.1514,0.1295,0.1035,0.0148,0.0,0.0,0.0,0.0,0.0,0.0,0.0,0.0,0.0,0.0,0.0,0.0,0.0,0.0,0.0,0.0,0.0,0.0,0.0,0.0,0.0,0.0,0.0,0.0,0.0,0.0,0.0,0.0,0.0,0.0,0.0,0.0,0.0,0.0,0.0,0.0,0.0,0.0,0.0,0.0,0.0,0.0,0.0,1.7487,1.8994,0.0,2.0288,2.07,2.1059,2.1402,2.1747,2.1766,2.1559,2.1012,2.0943,2.0873,2.0735,2.0551,2.0364,2.0104,1.9827,1.9555,1.9283,1.9145,1.9018,1.8885,1.8104,1.7531,1.7274,1.5727,1.4579,1.3811,1.3051,1.1999,1.0658,1.058,1.0105,0.9371,0.9275,0.9169,0.9039,0.8628,0.8322,0.7992,0.7546,0.7324,0.721,0.721,0.721,0.721,0.721,0.721,0.721,0.721,0.721,0.721,0.721,0.7169,0.7125,0.7125,0.6986,0.677,0.6068,0.587,0.5518,0.4298,0.4006,0.3667,0.2538,0.2317,0.2002,0.092,0.0714,0.0563,0.0094,0.0373,0.0557,0.0094,0.0,0.0,0.0,0.0,0.0,0.0,0.0,0.0,0.0,0.0,0.0,0.0,0.0,0.0,0.0,0.0,0.0,0.0,0.0,0.0,0.0,0.0,0.0,0.0,0.0,0.0,0.0,0.0,0.0,0.0,0.0,0.0,0.0,1.1343,1.2945,1.4558,1.6186,1.7873,1.9649,2.0441,2.0959,2.1245,2.1628,2.1904,2.1973,2.2042,2.1829,2.149,2.1352,2.1195,2.0731,2.0537,2.0214,1.9827,1.9597,1.935,1.909,1.9078,1.8957,1.8692,1.8638,1.8372,1.7877,1.6846,1.6063,1.5569,1.4519,1.3099,1.1476,1.1407,1.0586,0.9207,0.918,0.9045,0.8881,0.8654,0.854,0.8429,0.7992,0.7549,0.7268,0.721,0.721,0.721,0.721,0.721,0.721,0.721,0.7193,0.7177,0.7177,0.7043,0.695,0.695,0.6861,0.6744,0.6643,0.66,0.6304,0.5354,0.512,0.4787,0.3584,0.3307,0.2987,0.1897,0.1675,0.1469,0.0689,0.1179,0.1353,0.0413,0.0454,0.0584,0.0584,0.0404,0.0269,0.0269,0.009,0.0,0.0,0.0,0.0,0.0,0.0,0.0,0.0,0.0,0.0,0.0,0.0,0.0,0.0,0.0,0.0,0.0,0.0,0.0,1.0061,0.9886,0.9907,1.0164,1.0151,1.0149,0.0,1.1821,1.3269,1.5064,1.675,1.8386,1.9947,2.0785,2.1245,2.1691,2.2035,2.2379,2.2722,2.2791,2.2654,2.2242,2.1897,2.1458,2.0879,2.0761,2.0398,1.9621,1.9554,1.935,1.909,1.9078,1.8957,1.8692,1.8463,1.8185,1.7877,1.7523,1.6731,1.5628,1.5184,1.3786,1.1468,1.1151,1.0307,0.9204,0.9018,0.8898,0.8885,0.8881,0.8712,0.8484,0.8429,0.8045,0.7549,0.7268,0.721,0.721,0.721,0.721,0.721,0.721,0.7141,0.7005,0.7005,0.6918,0.6823,0.6823,0.6736,0.6635,0.6624,0.6489,0.6403,0.6239,0.6163,0.5843,0.4751,0.4427,0.4035,0.2962,0.2734,0.2697,0.2608,0.2648,0.2377,0.1395,0.202,0.2553,0.2553,0.1793,0.1256,0.1256,0.0494,0.0,0.0,0.0,0.0,0.0,0.0,0.0,0.0,0.0,0.0,0.0,0.0,0.0,0.0,0.0,0.0,0.0,0.0,0.0,1.0083,1.0131,1.0202,1.0158,1.0293,1.0483,1.0646,1.1298,1.256,1.5073,1.6324,1.7614,2.0077,2.0932,2.1283,2.1421,2.1897,2.2379,2.2516,2.2722,2.2859,2.2654,2.2365,2.1881,2.1156,2.0803,2.0347,1.9834,1.9455,1.9187,1.9084,1.8933,1.8728,1.8469,1.8191,1.7919,1.7648,1.7539,1.7166,1.6489,1.6379,1.5251,1.3268,1.2412,1.0943,0.9025,0.8908,0.8885,0.8885,0.8885,0.8826,0.8712,0.8543,0.8211,0.7826,0.7549,0.7324,0.721,0.721,0.7166,0.7111,0.7111,0.6975,0.6877,0.6877,0.6793,0.6695,0.6695,0.6608,0.6462,0.6462,0.6425,0.6387,0.6387,0.635,0.6152,0.5646,0.541,0.5007,0.3906,0.3692,0.3537,0.3001,0.336,0.3583,0.3135,0.3001,0.2911,0.2911,0.2553,0.2062,0.148,0.1508,0.1141,0.0087,0.0467,0.0542,0.0041,0.0,0.0,0.0,0.0,0.0,0.0,0.0,0.0,0.0,0.0,0.0,0.0,0.0,0.0,1.0103,1.0239,1.0337,1.0205,1.0415,1.0649,1.0622,1.087,1.1873,1.4558,1.5635,1.6842,1.9593,2.0659,2.1214,2.1214,2.176,2.2173,2.2173,2.2516,2.2722,2.2722,2.2531,2.2184,2.1568,2.0851,2.0251,1.9912,1.938,1.9078,1.9078,1.8831,1.8565,1.8306,1.8022,1.7744,1.7485,1.7485,1.7352,1.7092,1.702,1.6168,1.4569,1.3277,1.1457,0.9372,0.9372,0.921,0.8885,0.8885,0.8885,0.8881,0.8712,0.8432,0.81,0.7826,0.749,0.721,0.721,0.7136,0.6986,0.6986,0.688,0.6752,0.6752,0.6665,0.6567,0.6567,0.6454,0.6387,0.6387,0.6365,0.6391,0.6391,0.6276,0.6143,0.6053,0.5939,0.5604,0.4851,0.4701,0.4478,0.3807,0.4253,0.4701,0.4701,0.4119,0.3673,0.3673,0.3449,0.2911,0.1928,0.2329,0.2078,0.0517,0.0956,0.0932,0.004,0.0,0.0,0.0,0.0,0.0,0.0,0.0,0.0,0.0,0.0,0.0,0.0,0.0,0.0,1.0232,1.0171,1.0065,1.0409,1.0487,1.0575,1.0799,1.0877,1.1439,1.3396,1.4931,1.6465,1.8154,1.9947,2.1214,2.1214,2.1559,2.1835,2.1835,2.2104,2.231,2.231,2.2395,2.2311,2.2024,2.1084,2.0217,1.9679,1.927,1.9078,1.9078,1.8831,1.8565,1.8306,1.8022,1.7744,1.7485,1.7485,1.7352,1.7086,1.6833,1.5943,1.4564,1.3068,1.1764,1.0672,1.0672,0.997,0.8885,0.8885,0.8885,0.8885,0.8881,0.8712,0.8429,0.81,0.7654,0.721,0.721,0.7136,0.6986,0.6986,0.6823,0.6624,0.6624,0.6489,0.6392,0.6392,0.6389,0.6387,0.6387,0.6355,0.6322,0.6322,0.6089,0.5912,0.5909,0.582,0.5694,0.5646,0.5644,0.5644,0.5599,0.5644,0.5644,0.5644,0.5644,0.5599,0.5599,0.4837,0.3896,0.2957,0.2768,0.2323,0.1432,0.1317,0.0925,0.0039,0.0,0.0,0.0,0.0,0.0,0.0,0.0,0.0,0.0,0.0,0.0,0.0,0.0,0.0,1.0141,1.0232,1.0365,1.0466,1.0568,1.067,1.0772,1.0806,1.1379,1.303,1.4574,1.6123,1.7712,1.9449,2.0611,2.0611,2.1027,2.1421,2.1421,2.1766,2.2035,2.2242,2.1954,2.1693,2.1667,2.0947,2.0341,1.9928,1.9398,1.9,1.8825,1.8565,1.83,1.8022,1.7756,1.7569,1.7485,1.731,1.7092,1.6827,1.6374,1.5513,1.4337,1.3818,1.2965,1.1814,1.1055,1.0457,1.0025,0.921,0.8885,0.8885,0.8885,0.8712,0.8484,0.8377,0.7932,0.731,0.7149,0.6964,0.685,0.6768,0.6632,0.6449,0.6449,0.6419,0.6387,0.6387,0.6387,0.6387,0.6387,0.6352,0.6317,0.6317,0.6081,0.5904,0.5904,0.5814,0.5688,0.5688,0.5688,0.5688,0.5688,0.5688,0.5661,0.558,0.5637,0.5688,0.5688,0.5419,0.4854,0.382,0.4169,0.3867,0.2261,0.2648,0.2368,0.0941,0.0862,0.0591,0.004,0.0,0.0,0.0,0.0,0.0,0.0,0.0,0.0,0.0,0.0,0.0,1.0205,1.0348,1.0504,1.0561,1.0649,1.0721,1.0721,1.0795,1.1132,1.2122,1.3994,1.5745,1.6696,1.8659,2.0238,2.0465,2.0823,2.1102,2.1201,2.1559,2.1904,2.2104,2.1826,2.1574,2.1542,2.0875,2.0341,1.9928,1.9398,1.8963,1.8698,1.8438,1.8167,1.7883,1.7618,1.7436,1.734,1.7177,1.6911,1.6543,1.6103,1.5512,1.4815,1.4815,1.4159,1.2965,1.1814,1.1055,1.0621,0.9372,0.8885,0.8885,0.8885,0.8771,0.865,0.8488,0.8138,0.7684,0.7254,0.6981,0.6722,0.6643,0.6487,0.6387,0.6387,0.6387,0.6387,0.6387,0.6387,0.6376,0.6388,0.629,0.6192,0.6149,0.5988,0.5841,0.5841,0.5739,0.5688,0.5688,0.5688,0.5688,0.5688,0.5653,0.5599,0.5518,0.5537,0.5619,0.5618,0.5623,0.5372,0.469,0.5021,0.4695,0.3123,0.3489,0.3207,0.1801,0.1449,0.1058,0.0471,0.0157,0.0,0.0,0.0,0.0,0.0,0.0,0.0,0.0,0.0,0.0,1.0415,1.0497,1.0538,1.0683,1.0721,1.0721,1.0721,1.0714,1.0707,1.0707,1.3124,1.5234,1.5234,1.7779,2.0075,2.0663,2.0737,2.0854,2.1107,2.149,2.1766,2.1766,2.1846,2.1763,2.1489,2.0869,2.0251,1.9641,1.924,1.8939,1.868,1.8414,1.8143,1.7865,1.7612,1.7358,1.7092,1.7062,1.6785,1.626,1.6006,1.5891,1.5891,1.5891,1.5298,1.4218,1.3014,1.1814,1.0672,0.9482,0.8933,0.8871,0.8871,0.8868,0.8841,0.8432,0.8322,0.8208,0.7609,0.7076,0.6619,0.6613,0.6478,0.6387,0.6387,0.6387,0.6387,0.6387,0.6387,0.641,0.6298,0.6179,0.6053,0.5931,0.5817,0.5688,0.5688,0.5688,0.5688,0.5688,0.5688,0.5688,0.5688,0.5583,0.5497,0.5497,0.5436,0.5446,0.5483,0.5497,0.5497,0.5489,0.5325,0.4859,0.4044,0.3922,0.348,0.262,0.184,0.141,0.1371,0.051,0.0079,0.0079,0.0039,0.0,0.0,0.0,0.0,0.0,0.0,0.0,1.047,1.0575,1.067,1.0711,1.0721,1.0721,1.0721,1.0633,1.0551,1.0551,1.2672,1.4525,1.4525,1.7293,1.9663,1.9789,2.0312,2.0725,2.0792,2.0943,2.1081,2.1352,2.1266,2.1142,2.1072,2.0559,1.9966,1.9361,1.8971,1.8668,1.8408,1.8131,1.7859,1.7587,1.7521,1.7358,1.7092,1.6688,1.632,1.5988,1.5922,1.5891,1.5891,1.5891,1.5731,1.5405,1.4213,1.3073,1.1869,1.0731,0.968,0.8767,0.8767,0.8699,0.8594,0.8501,0.8262,0.7959,0.7599,0.7245,0.6864,0.6563,0.6411,0.6387,0.6387,0.6387,0.6387,0.6387,0.6387,0.641,0.6298,0.6179,0.6053,0.5931,0.5817,0.5688,0.5688,0.5688,0.5688,0.5688,0.5688,0.5688,0.5688,0.5556,0.5459,0.563,0.5564,0.5445,0.5443,0.5544,0.5594,0.5498,0.547,0.5311,0.498,0.4792,0.4345,0.3519,0.3285,0.2854,0.2231,0.141,0.098,0.098,0.0314,0.0,0.0,0.0,0.0,0.0,0.0,0.0,1.0575,1.0656,1.0721,1.0721,1.0721,1.0704,1.0636,1.0555,1.0456,1.0324,1.2418,1.426,1.4228,1.694,1.9263,1.9689,2.0215,2.0674,2.0906,2.1081,2.122,2.1421,2.1378,2.12,2.0946,2.0545,1.9928,1.9024,1.8811,1.8517,1.8131,1.7962,1.775,1.7491,1.737,1.7123,1.6736,1.632,1.6036,1.5891,1.5891,1.5891,1.5891,1.5891,1.5891,1.5838,1.4702,1.384,1.3073,1.1383,1.0244,0.9459,0.8925,0.8618,0.8476,0.8411,0.8285,0.8051,0.7683,0.7408,0.7143,0.6612,0.6387,0.6387,0.6387,0.6387,0.6387,0.6387,0.6401,0.6336,0.6219,0.6097,0.5975,0.5855,0.5734,0.5688,0.5688,0.5688,0.5688,0.5688,0.5688,0.5688,0.5688,0.5662,0.5642,0.5674,0.5676,0.5641,0.5494,0.5627,0.5714,0.5641,0.5585,0.548,0.5326,0.5207,0.4893,0.4343,0.3988,0.3597,0.3088,0.227,0.1645,0.1293,0.0824,0.0392,0.0,0.0,0.0,0.0,0.0,0.0,1.0683,1.0721,1.0721,1.0721,1.0704,1.0656,1.0521,1.0463,1.0361,1.0041,1.2121,1.3961,1.4024,1.6455,1.8719,1.9659,2.0076,2.0477,2.1015,2.1433,2.164,2.164,2.18,2.159,2.098,2.0596,1.9933,1.8793,1.8658,1.8372,1.7901,1.7841,1.7702,1.7443,1.7177,1.6797,1.6284,1.6018,1.5891,1.5891,1.5891,1.5891,1.5891,1.5891,1.5891,1.5838,1.4869,1.4331,1.4002,1.1819,1.072,1.0383,0.9319,0.868,0.846,0.8487,0.8391,0.8221,0.7738,0.7596,0.7494,0.6739,0.6487,0.6437,0.6437,0.6437,0.6384,0.6368,0.6344,0.6284,0.6097,0.5983,0.5874,0.5715,0.5688,0.5688,0.5688,0.5688,0.5688,0.5688,0.5688,0.5688,0.5733,0.5848,0.5889,0.5811,0.588,0.5863,0.5733,0.5774,0.5802,0.5802,0.5701,0.5556,0.5398,0.5359,0.5243,0.5054,0.4382,0.3988,0.3949,0.3129,0.2347,0.1644,0.141,0.0941,0.0157,0.0041,0.0,0.0,0.0,0.0,1.0714,1.0721,1.0721,1.0721,1.0626,1.0524,1.0497,1.0304,0.0,0.9997,1.1133,1.25,1.3546,1.5406,1.7247,1.8701,1.9352,1.9856,2.0403,2.0749,2.0947,2.0947,2.1309,2.1219,2.0621,2.0119,1.9556,1.8871,1.8325,1.7974,1.7877,1.7666,1.743,1.7165,1.6905,1.661,1.6284,1.6018,1.5891,1.5891,1.5891,1.5891,1.5891,1.5891,1.5891,1.5891,1.5672,1.5083,1.411,1.2689,1.1389,1.0241,0.9979,0.912,0.8213,0.9076,0.882,0.8025,0.7703,0.7596,0.7543,0.7188,0.6889,0.6742,0.6742,0.6589,0.6368,0.6325,0.6333,0.6265,0.5994,0.5918,0.5874,0.5715,0.5688,0.5688,0.5688,0.5688,0.5688,0.5688,0.5688,0.5777,0.5997,0.5976,0.5977,0.6187,0.6169,0.6148,0.6161,0.6002,0.5899,0.5899,0.5876,0.5825,0.5786,0.5634,0.5479,0.5246,0.5124,0.4968,0.4779,0.399,0.3519,0.3361,0.1996,0.1215,0.1058,0.037,0.0,0.0,0.0,0.0,1.0721,1.0721,1.0721,1.0721,1.0605,1.0473,1.0399,0.0,0.0,0.9886,1.0845,1.2084,1.3286,1.4987,1.6619,1.8055,1.871,1.9247,1.9778,2.0184,2.0499,2.0783,2.108,2.0922,2.0381,1.9909,1.9304,1.8404,1.807,1.7817,1.7678,1.7418,1.7159,1.6893,1.6622,1.635,1.6079,1.5952,1.5891,1.5891,1.5891,1.5891,1.5891,1.5891,1.5891,1.5891,1.5891,1.5565,1.497,1.3835,1.2496,1.1126,1.1018,0.9772,0.8137,0.9217,0.892,0.7988,0.7842,0.7793,0.7793,0.764,0.7338,0.6992,0.6842,0.6692,0.6564,0.635,0.627,0.6132,0.595,0.5858,0.5801,0.5702,0.5688,0.5688,0.5688,0.5688,0.5688,0.5688,0.5822,0.5952,0.6083,0.6251,0.6359,0.6322,0.6394,0.6435,0.633,0.618,0.6099,0.6099,0.6099,0.606,0.5902,0.5825,0.5673,0.5479,0.5359,0.5243,0.5168,0.4696,0.4226,0.3791,0.2582,0.1723,0.1293,0.0406,0.0,0.0,0.0,0.0,1.0578,1.0721,1.0721,1.0721,1.0582,1.0419,1.0304,1.0134,0.0,0.9846,1.0582,1.1591,1.2682,1.4232,1.5785,0.0,1.8069,1.8716,1.9301,1.9754,2.0192,2.0621,2.0843,2.0631,1.996,1.9681,1.9062,1.7973,1.7768,1.7618,1.7412,1.7201,1.6948,1.6622,1.6398,1.6151,1.5891,1.5891,1.5891,1.5891,1.5891,1.5891,1.5891,1.5891,1.5891,1.5891,1.5891,1.5891,1.5838,1.4654,1.3461,1.2319,1.2206,1.0581,0.8482,0.9558,0.9118,0.7988,0.7988,0.7988,0.7988,0.7988,0.769,0.7238,0.6992,0.6825,0.6726,0.636,0.614,0.6018,0.5899,0.5801,0.5688,0.5688,0.5688,0.5688,0.5688,0.5688,0.5688,0.5688,0.5908,0.6127,0.6171,0.6526,0.6699,0.6415,0.6577,0.6593,0.6337,0.63,0.63,0.63,0.63,0.6219,0.6018,0.598,0.5902,0.5676,0.5515,0.5398,0.5321,0.5129,0.4737,0.4068,0.3207,0.2464,0.184,0.0807,0.0287,0.0287,0.0086,0.0,1.028,1.0721,1.0721,1.0721,1.051,1.0297,1.0283,0.0,0.9839,0.9825,0.9777,1.0154,1.1425,1.253,1.3828,0.0,0.0,1.8221,1.9,1.9631,1.9993,2.0108,0.0,2.0239,1.9387,1.9026,1.8624,1.7955,1.7436,1.7153,1.7129,1.7105,1.6857,1.6338,1.6296,1.6151,1.5891,1.5891,1.5891,1.5891,1.5891,1.5891,1.5891,1.5891,1.5891,1.5891,1.5891,1.5891,1.5838,1.4654,1.3884,1.3351,1.3295,1.169,0.9608,1.0685,0.9756,0.7988,0.7988,0.7988,0.7988,0.7988,0.7793,0.7494,0.7241,0.6955,0.6643,0.6233,0.6013,0.5893,0.5734,0.5696,0.5688,0.5688,0.5688,0.5688,0.5688,0.5688,0.5688,0.5688,0.5908,0.6171,0.6343,0.6612,0.6786,0.6662,0.6698,0.6593,0.6337,0.63,0.63,0.63,0.63,0.63,0.6261,0.6261,0.6141,0.5902,0.5864,0.567,0.5321,0.5282,0.5168,0.4898,0.4107,0.3636,0.3558,0.1967,0.1173,0.1174,0.0351,0.0,0.8645,0.9249,0.9646,1.0518,1.0497,1.028,1.028,1.0042,0.9795,0.971,0.9649,0.9905,1.097,1.1585,1.2692,0.0,0.0,0.0,1.8196,1.8754,1.9075,1.9243,1.9569,1.948,1.8789,1.8598,1.8231,1.7495,1.7207,1.6948,1.6622,1.6604,1.6513,1.6308,1.6133,1.5994,1.5891,1.5891,1.5891,1.5891,1.5891,1.5891,1.5891,1.5891,1.5891,1.5891,1.5891,1.5801,1.5603,1.5176,1.4292,1.3328,1.3947,1.2333,0.9706,1.0779,0.985,0.7988,0.7988,0.7988,0.7988,0.7988,0.7942,0.7793,0.7543,0.7297,0.7012,0.6496,0.6229,0.6062,0.5763,0.5688,0.5688,0.5688,0.5688,0.5688,0.5688,0.5688,0.5733,0.5908,0.6127,0.6346,0.6612,0.6833,0.691,0.6746,0.6702,0.6593,0.6337,0.63,0.63,0.63,0.63,0.63,0.63,0.63,0.6261,0.6141,0.598,0.5822,0.567,0.5556,0.5401,0.5168,0.4382,0.391,0.3791,0.2592,0.2069,0.214,0.1191,0.082,0.7408,0.8204,0.8867,1.0257,1.0399,1.0212,1.0212,1.0008,0.9781,0.9639,0.9571,0.9693,1.0273,1.0779,1.1746,0.0,0.0,1.5679,1.7078,1.7829,1.8348,1.8619,1.8955,1.8903,1.8334,1.8101,1.7732,1.718,1.6942,1.6688,1.6302,1.6205,1.6169,1.6181,1.5994,1.5891,1.5891,1.5891,1.5891,1.5891,1.5891,1.5891,1.5891,1.5891,1.5891,1.5885,1.5807,1.5668,1.5493,1.5415,1.4644,1.364,1.4412,1.2805,1.0145,1.0925,0.985,0.7988,0.7988,0.7988,0.7988,0.7988,0.7988,0.7982,0.774,0.7527,0.7238,0.6673,0.6452,0.6243,0.5975,0.5863,0.5822,0.5908,0.5863,0.5819,0.5908,0.5908,0.5952,0.6169,0.6346,0.6567,0.6748,0.6966,0.7011,0.6807,0.6729,0.661,0.6395,0.6327,0.63,0.63,0.6337,0.6344,0.6303,0.63,0.63,0.63,0.6138,0.598,0.5902,0.575,0.5595,0.5401,0.4774,0.438,0.4261,0.3347,0.295,0.3002,0.2133,0.1607,0.6943,0.8028,0.8611,0.9962,1.0168,0.9987,0.9987,0.9869,0.9781,0.9639,0.949,0.9337,0.9238,1.0024,1.0796,1.1092,0.0,0.0,1.5633,1.6987,1.798,1.8257,1.8527,1.8471,1.7961,1.7406,1.7098,1.7092,1.6592,1.629,1.6278,1.6036,1.5891,1.5891,1.5891,1.5891,1.5891,1.5891,1.5891,1.5891,1.5891,1.5891,1.5891,1.5891,1.5891,1.5879,1.5614,1.5499,1.5481,1.5215,1.4956,1.4665,1.4714,1.3254,1.117,1.1219,0.985,0.7988,0.7988,0.7988,0.7988,0.7988,0.7988,0.7961,0.7862,0.7518,0.7139,0.6722,0.6493,0.6387,0.6384,0.6257,0.6124,0.6343,0.6257,0.6169,0.6343,0.6384,0.6384,0.6384,0.6612,0.6795,0.6795,0.6966,0.7048,0.6906,0.6797,0.6644,0.6528,0.6385,0.63,0.63,0.6426,0.6453,0.6313,0.63,0.63,0.63,0.63,0.618,0.5902,0.5902,0.5786,0.5598,0.5401,0.5282,0.5282,0.4283,0.3806,0.377,0.3015,0.2229,0.541,0.7007,0.8478,0.9958,1.0164,0.9987,0.9987,0.9795,0.9635,0.9486,0.9334,0.9181,0.9032,0.9241,0.9843,1.1021,1.1911,0.0,0.0,1.545,1.5937,1.7548,1.7851,1.7748,1.7364,1.7189,1.6936,1.6567,1.638,1.6205,1.6024,1.5934,1.5891,1.5891,1.5891,1.5891,1.5891,1.5891,1.5891,1.5891,1.5891,1.5891,1.5891,1.5891,1.5891,1.5879,1.5614,1.5396,1.5215,1.495,1.4678,1.4431,1.4431,1.3099,1.1219,1.1219,0.985,0.7988,0.7988,0.7988,0.7988,0.7988,0.7988,0.7961,0.7858,0.7661,0.7356,0.6882,0.6554,0.6384,0.6384,0.6343,0.6299,0.6387,0.6343,0.6343,0.6384,0.6384,0.6476,0.6656,0.6748,0.684,0.6966,0.7051,0.7048,0.6906,0.6846,0.6763,0.6545,0.6474,0.6409,0.631,0.634,0.6388,0.6443,0.6446,0.6446,0.6446,0.6354,0.6261,0.618,0.618,0.606,0.5825,0.5747,0.5631,0.5518,0.5045,0.4503,0.3861,0.3807,0.3257,0.479,0.6467,0.8279,0.9715,1.0036,0.9886,0.9835,0.9741,0.9551,0.934,0.9275,0.9183,0.9035,0.9018,0.9356,1.0338,1.0878,1.184,1.3727,1.383,1.4476,1.6674,1.7297,1.7434,1.7289,1.7059,1.6761,1.6326,1.6193,1.606,1.5897,1.5891,1.5891,1.5891,1.5891,1.5891,1.5891,1.5891,1.5891,1.5891,1.5891,1.5891,1.5891,1.5891,1.5891,1.5867,1.5511,1.5258,0.0,1.4708,1.4455,1.4298,1.4298,1.3028,1.1219,1.1219,0.985,0.7988,0.7988,0.7988,0.7982,0.7924,0.7879,0.777,0.7675,0.7584,0.7461,0.7035,0.6789,0.6653,0.6653,0.6609,0.6564,0.6653,0.6609,0.6564,0.6653,0.6653,0.6697,0.6877,0.6925,0.6966,0.7098,0.7095,0.7065,0.6977,0.692,0.6861,0.6668,0.6546,0.6477,0.6388,0.6433,0.6477,0.6511,0.6463,0.6433,0.6433,0.6351,0.63,0.63,0.63,0.6219,0.606,0.5941,0.5825,0.5712,0.5605,0.5238,0.4669,0.4477,0.4001,0.0,0.6288,0.8059,0.9452,0.9788,0.9754,0.9625,0.9595,0.0,0.9286,0.9217,0.921,0.921,0.92,0.9197,0.9207,1.0104,1.0896,1.1257,1.2329,1.3741,1.5617,1.6738,1.7404,1.7538,1.699,1.6561,1.6302,1.6036,1.5891,1.5891,1.5891,1.5891,1.5891,1.5891,1.5891,1.5891,1.5891,1.5891,1.5891,1.5891,1.5879,1.5861,1.5861,1.5849,1.5807,1.53,1.5077,1.504,1.4515,1.4298,1.4298,1.4298,1.3076,1.1317,1.1219,0.9899,0.8088,0.8038,0.7988,0.7965,0.7862,0.7628,0.7446,0.7426,0.7409,0.7326,0.7136,0.7095,0.7095,0.7095,0.6969,0.6881,0.7051,0.6966,0.6881,0.7051,0.7095,0.7095,0.7095,0.7095,0.7095,0.7095,0.7095,0.7095,0.7095,0.6984,0.6896,0.6886,0.6671,0.6528,0.6528,0.6597,0.662,0.6538,0.6409,0.6327,0.6317,0.6306,0.63,0.63,0.63,0.63,0.63,0.607,0.5954,0.5915,0.5946,0.5947,0.5889,0.5028,0.4554,0.4719,0.0,0.9088,0.9417,0.9486,0.9476,0.0,0.9435,0.9415,0.9344,0.9292,0.921,0.921,0.9062,0.9025,0.919,0.9433,1.0038,1.1253,1.265,1.3729,1.4183,1.5114,1.6028,1.6815,1.6599,1.6272,1.6006,1.5928,1.5891,1.5891,1.5891,1.5891,1.5891,1.5891,1.5891,1.5891,1.5891,1.5891,1.5891,1.5891,1.5783,1.559,1.559,1.5481,1.5276,1.495,1.4805,1.4781,1.4437,1.4298,1.4298,1.4298,1.3511,1.2242,1.1463,1.0342,0.9118,0.8283,0.7988,0.7965,0.7862,0.7763,0.7665,0.7441,0.7288,0.7142,0.7105,0.7095,0.7095,0.7095,0.7051,0.7054,0.7095,0.7051,0.7054,0.7095,0.7095,0.7095,0.7095,0.7095,0.7095,0.7095,0.7095,0.7095,0.7095,0.7068,0.7007,0.69,0.6763,0.6647,0.6647,0.6518,0.648,0.663,0.6617,0.6549,0.647,0.6361,0.63,0.63,0.63,0.63,0.63,0.6327,0.6301,0.6148,0.6315,0.6345,0.6199,0.5859,0.5632,0.4574,0.6963,0.9398,0.9469,0.9534,0.9547,0.9412,0.0,0.0,0.0,0.0,0.0,0.9197,0.9089,0.9062,0.9197,0.921,0.9517,1.0394,1.227,1.3577,1.3528,1.5009,1.6189,1.6488,1.6374,1.6175,1.591,1.5891,1.5891,1.5891,1.5891,1.5891,1.5891,1.5891,1.5891,1.5891,1.5891,1.5891,1.5891,1.5891,1.5753,1.5499,1.5499,1.5354,1.5095,1.4829,1.4714,1.4696,1.4413,1.4298,1.4298,1.4298,1.3655,1.2581,1.156,1.0538,0.946,0.8382,0.7944,0.7874,0.7838,0.7719,0.758,0.7467,0.7261,0.7095,0.7095,0.7095,0.7095,0.7095,0.7095,0.7095,0.7095,0.7095,0.7095,0.7095,0.7095,0.7095,0.7095,0.7095,0.7095,0.7095,0.7095,0.7095,0.7095,0.7095,0.7068,0.6994,0.6856,0.6776,0.6709,0.662,0.6576,0.6593,0.6725,0.6709,0.6525,0.6439,0.6368,0.6303,0.63,0.633,0.6395,0.6542,0.6573,0.6523,0.6678,0.6658,0.6508,0.6313,0.613,0.4428,0.6876,0.9343,0.9486,0.9612,0.9649,0.9374,0.0,0.0,0.0,0.0,0.0,0.0,0.919,0.9183,0.9207,0.9248,0.9323,0.9398,1.1403,1.2912,1.3007,1.5077,1.6368,1.6052,1.6132,1.6127,1.5903,1.5945,1.5945,1.5945,1.5945,1.5998,1.6045,1.5939,1.5945,1.5945,1.5945,1.5891,1.5891,1.5849,1.5692,1.5439,1.5396,1.5234,1.4974,1.4751,1.4654,1.463,1.4395,1.4298,1.4298,1.4298,1.3757,1.278,1.1609,1.0632,0.9657,0.8432,0.7907,0.7841,0.7818,0.7628,0.7446,0.7426,0.7261,0.7095,0.7095,0.7095,0.7095,0.7095,0.7095,0.7095,0.7095,0.7095,0.7095,0.7095,0.7095,0.7095,0.7095,0.7095,0.7095,0.7095,0.7095,0.7095,0.7095,0.7095,0.7095,0.7095,0.6974,0.6846,0.678,0.6844,0.6807,0.6593,0.6793,0.6807,0.6566,0.6549,0.6494,0.6371,0.6368,0.6422,0.6545,0.6658,0.68,0.6886,0.6906,0.6894,0.6836,0.6567,0.639,0.4543,0.6762,0.898,0.8987,0.915,0.9211,0.9045,0.0,0.0,0.0,0.0,0.0,0.0,0.9052,0.9011,0.919,0.9371,0.9547,0.9571,0.9993,1.0692,1.1673,1.2846,1.3896,1.4762,1.5538,1.5934,1.5891,1.6111,1.6217,1.6217,1.6217,1.6318,1.6571,1.6152,1.5998,1.6217,1.5998,1.5891,1.5885,1.5662,1.5421,1.5161,1.4938,1.4684,1.4419,1.4377,1.4358,1.4358,1.4316,1.4298,1.4298,1.4298,1.4202,1.3806,1.1907,1.1126,1.0681,0.8676,0.7975,0.7934,0.7851,0.7699,0.7539,0.7456,0.7261,0.7095,0.7095,0.7095,0.7095,0.7095,0.7095,0.7095,0.7095,0.7095,0.7095,0.7095,0.7095,0.7095,0.7095,0.7095,0.7095,0.7095,0.7095,0.7095,0.7095,0.7095,0.7095,0.7095,0.6974,0.6923,0.7018,0.6871,0.6817,0.6977,0.6927,0.6854,0.6675,0.6664,0.6658,0.6634,0.6634,0.6644,0.6664,0.6817,0.6862,0.6886,0.7004,0.7075,0.7054,0.6833,0.6707,0.4509,0.663,0.8829,0.9033,0.9286,0.9456,0.9228,0.9228,0.0,0.0,0.0,0.0,0.0,0.8984,0.8905,0.9025,0.9154,0.9276,0.9351,1.0055,1.0651,1.1142,1.2758,1.3962,1.4347,1.5308,1.5891,1.5891,1.6164,1.6324,1.6324,1.6424,1.6577,1.6677,1.6471,1.6243,1.6113,1.5949,1.5911,1.5885,1.5626,1.536,1.5101,1.4835,1.4564,1.4298,1.4298,1.4298,1.4298,1.4298,1.4298,1.4298,1.4298,1.4298,1.4052,1.195,1.0489,0.9316,0.8333,0.7988,0.7965,0.7862,0.7716,0.757,0.7463,0.7261,0.7095,0.7095,0.7095,0.7095,0.7095,0.7095,0.7095,0.7095,0.7095,0.7095,0.7095,0.7095,0.7095,0.7095,0.7095,0.7095,0.7095,0.7095,0.7095,0.7095,0.7095,0.7095,0.7095,0.7041,0.6994,0.6984,0.693,0.692,0.6977,0.6994,0.6937,0.6834,0.6668,0.6614,0.6698,0.678,0.6824,0.6824,0.6923,0.7001,0.7001,0.7065,0.7095,0.7095,0.6881,0.6795,0.4435,0.652,0.871,0.9141,0.0,0.9615,0.9425,0.9354,0.9262,0.0,0.0,0.0,0.0,0.8964,0.8988,0.8988,0.9018,0.9079,0.9248,1.0114,1.0662,1.0502,1.2395,1.3758,1.3807,1.4863,1.5672,1.5885,1.6264,1.6483,1.6371,1.6683,1.681,1.6799,1.6687,1.6403,1.5989,1.5925,1.5823,1.5704,1.5439,1.5215,1.501,1.4739,1.4497,1.4298,1.4298,1.4298,1.4298,1.4298,1.4298,1.4298,1.4298,1.4004,1.3366,1.1804,0.985,0.7988,0.7988,0.7968,0.7917,0.7848,0.7692,0.7522,0.7453,0.7261,0.7095,0.7095,0.7095,0.7095,0.7095,0.7095,0.7095,0.7095,0.7095,0.7095,0.7095,0.7095,0.7095,0.7095,0.7095,0.7095,0.7095,0.7095,0.7095,0.7095,0.7095,0.7095,0.7095,0.7095,0.7055,0.6947,0.7031,0.7051,0.6943,0.7004,0.7014,0.694,0.6725,0.6647,0.6797,0.6873,0.6933,0.6933,0.7041,0.7095,0.7095,0.7095,0.7095,0.7095,0.6922,0.6881,0.4495,0.6462,0.8511,0.9215,0.934,0.9289,0.9354,0.9326,0.0,0.92,0.0,0.9096,0.8908,0.9049,0.9193,0.9193,0.9256,0.9354,0.9364,0.948,0.9486,0.9337,1.0385,1.1539,1.2436,1.3819,1.5013,1.5832,1.6696,1.7014,1.6677,1.6955,1.7154,1.7136,1.6607,1.6324,1.6257,1.6042,1.565,1.5161,1.4902,1.4763,1.4739,1.4455,1.4316,1.4298,1.4298,1.4298,1.4298,1.4298,1.4298,1.4298,1.4298,1.3125,1.1414,1.1272,0.985,0.7988,0.7988,0.7897,0.7824,0.7814,0.7621,0.7433,0.7419,0.7261,0.7095,0.7095,0.7095,0.7095,0.7095,0.7095,0.7095,0.7095,0.7095,0.7095,0.7095,0.7095,0.7095,0.7095,0.7095,0.7095,0.7095,0.7095,0.7095,0.7095,0.7095,0.7095,0.7095,0.7095,0.7092,0.7082,0.7092,0.7092,0.7082,0.697,0.6953,0.7071,0.694,0.6916,0.7058,0.7075,0.7082,0.7082,0.7092,0.7095,0.7095,0.7095,0.7095,0.7095,0.7095,0.7098,0.3996,0.5749,0.7587,0.8689,0.9017,0.0,0.0,0.9337,0.9354,0.9354,0.9275,0.9166,0.8908,0.8984,0.9018,0.9018,0.9069,0.9106,0.9106,0.9106,0.9083,0.9025,1.0061,1.091,1.1332,1.3176,1.4535,1.5066,1.6199,1.6902,1.7008,1.7272,1.735,1.7213,1.6993,1.6609,1.6045,1.5939,1.5609,1.5108,1.5023,1.4857,1.4708,1.4425,1.4298,1.4298,1.4298,1.4298,1.4298,1.4298,1.4298,1.425,1.3559,1.2436,1.1121,1.044,0.9262,0.7988,0.7988,0.7891,0.7797,0.7709,0.7539,0.7398,0.7258,0.7142,0.7095,0.7095,0.7095,0.7095,0.7095,0.7095,0.7095,0.7095,0.7095,0.7095,0.7095,0.7095,0.7095,0.7095,0.7095,0.7095,0.7095,0.7095,0.7095,0.7095,0.7095,0.7095,0.7095,0.7095,0.7095,0.7095,0.7095,0.7095,0.7095,0.7048,0.7041,0.7092,0.6964,0.695,0.7092,0.7095,0.7095,0.7095,0.7095,0.7095,0.7095,0.7095,0.7095,0.7095,0.7095,0.7095,0.3631,0.5194,0.6776,0.827,0.0,0.0,0.9252,0.931,0.931,0.931,0.9188,0.9055,0.8902,0.8885,0.8885,0.8885,0.8885,0.8885,0.8885,0.8885,0.8885,0.8885,0.9644,1.0296,1.0672,1.263,1.4099,1.4578,1.608,1.7015,1.7042,1.7344,1.732,1.6938,1.6924,1.6584,1.5884,1.5884,1.5641,1.522,1.5213,1.5015,1.468,1.4431,1.4298,1.4298,1.4298,1.4298,1.4298,1.4298,1.4298,1.425,1.3511,1.2387,1.1121,1.0391,0.9217,0.7988,0.7988,0.786,0.7729,0.7631,0.7461,0.7278,0.7129,0.7095,0.7095,0.7095,0.7095,0.7095,0.7095,0.7095,0.7095,0.7095,0.7095,0.7095,0.7095,0.7095,0.7095,0.7095,0.7095,0.7095,0.7095,0.7095,0.7095,0.7095,0.7095,0.7095,0.7095,0.7095,0.7095,0.7095,0.7095,0.7095,0.7095,0.7095,0.7095,0.7095,0.7004,0.6997,0.7092,0.7095,0.7095,0.7095,0.7095,0.7095,0.7095,0.7095,0.7095,0.7095,0.7095,0.7095,0.3576,0.486,0.62,0.8039,0.0,0.0,0.9117,0.9207,0.921,0.921,0.9042,0.8885,0.8885,0.8885,0.8885,0.8885,0.8885,0.8885,0.8885,0.8885,0.8885,0.8885,0.8885,0.9372,1.0566,1.2236,1.3642,1.4519,1.6446,1.7291,1.6756,1.6993,1.6924,1.6342,1.6321,1.6126,1.5784,1.5784,1.5683,1.5493,1.5493,1.5213,1.4688,1.4442,1.4298,1.4298,1.4298,1.4298,1.4298,1.4298,1.4298,1.4298,1.4298,1.3028,1.1219,1.117,0.985,0.7988,0.7988,0.7845,0.76,0.7597,0.739,0.7095,0.7095,0.7095,0.7095,0.7095,0.7095,0.7095,0.7095,0.7095,0.7095,0.7095,0.7095,0.7095,0.7095,0.7095,0.7095,0.7095,0.7095,0.7095,0.7095,0.7095,0.7095,0.7095,0.7095,0.7095,0.7095,0.7095,0.7095,0.7095,0.7095,0.7095,0.7095,0.7095,0.7095,0.7095,0.7095,0.7095,0.7095,0.7095,0.7095,0.7095,0.7095,0.7095,0.7095,0.7095,0.7095,0.7095,0.7095,0.7095,0.3132,0.4136,0.5137,0.7537,0.8318,0.0,0.0,0.9079,0.0,0.0,0.9176,0.9059,0.8902,0.8885,0.8885,0.8885,0.8885,0.8885,0.8885,0.8885,0.8885,0.8885,0.8885,0.9047,0.9372,1.0566,1.1875,1.3249,1.4515,1.5685,1.6638,1.679,1.6667,1.6335,1.6321,1.6126,1.5784,1.5784,1.5784,1.573,1.5588,1.5213,1.4688,1.464,1.4496,1.4298,1.4298,1.4298,1.4298,1.4298,1.4298,1.425,1.3463,1.2387,1.1121,1.0342,0.9217,0.7975,0.7916,0.7756,0.7584,0.7472,0.7302,0.7095,0.7095,0.7095,0.7095,0.7095,0.7095,0.7095,0.7095,0.7095,0.7095,0.7095,0.7095,0.7095,0.7095,0.7095,0.7095,0.7095,0.7095,0.7095,0.7095,0.7095,0.7095,0.7095,0.7095,0.7095,0.7095,0.7095,0.7095,0.7095,0.7095,0.7095,0.7095,0.7095,0.7095,0.7095,0.7095,0.7095,0.7095,0.7095,0.7095,0.7095,0.7095,0.7095,0.7095,0.7095,0.7095,0.7095,0.7095,0.7095,0.3078,0.4081,0.5085,0.7429,0.8156,0.8432,0.8826,0.9008,0.9066,0.9066,0.9066,0.9042,0.8898,0.8885,0.8885,0.8885,0.8885,0.8885,0.8885,0.8885,0.8885,0.8885,0.8885,0.8858,0.8801,0.9942,1.1221,1.2596,1.381,1.5123,1.649,1.6533,1.64,1.6106,1.6092,1.6012,1.5784,1.5784,1.5784,1.5784,1.5683,1.5356,1.4838,1.4742,1.4544,1.4298,1.4298,1.4298,1.4298,1.4298,1.4298,1.4202,1.3125,1.2096,1.1072,0.9998,0.8879,0.7887,0.7841,0.7678,0.7495,0.7446,0.7265,0.7095,0.7095,0.7095,0.7095,0.7095,0.7095,0.7095,0.7095,0.7095,0.7095,0.7095,0.7095,0.7095,0.7095,0.7095,0.7095,0.7095,0.7095,0.7095,0.7095,0.7095,0.7095,0.7095,0.7095,0.7095,0.7095,0.7095,0.7095,0.7095,0.7095,0.7095,0.7095,0.7095,0.7095,0.7095,0.7095,0.7095,0.7095,0.7095,0.7095,0.7095,0.7095,0.7095,0.7095,0.7095,0.7095,0.7095,0.7095,0.7095,0.3413,0.4587,0.5817,0.7543,0.7989,0.8211,0.8771,0.8885,0.8885,0.8885,0.8885,0.8885,0.8885,0.8885,0.8885,0.8885,0.8885,0.8885,0.8885,0.8885,0.8885,0.8885,0.8871,0.8807,0.8723,0.9899,1.1168,1.248,1.3768,1.5033,1.6197,1.6233,1.6112,1.5791,1.5784,1.5784,1.5784,1.5784,1.5784,1.5784,1.5784,1.5547,1.5131,1.4838,1.4592,1.4298,1.4298,1.4298,1.4298,1.4298,1.4298,1.4196,1.3221,1.2193,1.1072,1.0096,0.892,0.7831,0.7818,0.7628,0.7436,0.7422,0.7265,0.7095,0.7095,0.7095,0.7095,0.7095,0.7095,0.7095,0.7095,0.7095,0.7095,0.7095,0.7095,0.7095,0.7095,0.7095,0.7095,0.7095,0.7095,0.7095,0.7095,0.7095,0.7095,0.7095,0.7095,0.7095,0.7095,0.7095,0.7095,0.7095,0.7095,0.7095,0.7095,0.7095,0.7095,0.7095,0.7095,0.7095,0.7095,0.7095,0.7095,0.7095,0.7095,0.7095,0.7095,0.7095,0.7095,0.7095,0.7095,0.7095,0.4698,0.5202,0.0,0.7326,0.8045,0.8488,0.8826,0.8885,0.8885,0.8885,0.8885,0.8885,0.8885,0.8885,0.8885,0.8885,0.8885,0.8885,0.8885,0.8885,0.8885,0.8885,0.8832,0.8747,0.8713,0.8811,0.982,1.2088,1.243,1.3485,1.5782,1.5925,1.5844,1.5784,1.5784,1.5784,1.5784,1.5784,1.5784,1.5784,1.5784,1.5642,1.5404,1.5124,1.4742,1.4298,1.4298,1.4298,1.4298,1.4298,1.4298,1.4298,1.4052,1.2829,1.117,1.0925,0.9633,0.7924,0.7851,0.7695,0.7533,0.7456,0.7265,0.7095,0.7095,0.7095,0.7095,0.7095,0.7095,0.7095,0.7095,0.7095,0.7095,0.7095,0.7095,0.7095,0.7095,0.7095,0.7095,0.7095,0.7095,0.7095,0.7095,0.7095,0.7095,0.7095,0.7095,0.7095,0.7095,0.7095,0.7095,0.7095,0.7095,0.7095,0.7095,0.7095,0.7095,0.7095,0.7095,0.7095,0.7095,0.7095,0.7095,0.7095,0.7095,0.7095,0.7095,0.7095,0.7095,0.7095,0.7095,0.7095,0.5202,0.0,0.0,0.7546,0.0,0.8598,0.8826,0.8885,0.8885,0.8885,0.8885,0.8881,0.8712,0.8712,0.8712,0.8712,0.8712,0.8768,0.8881,0.8821,0.8828,0.8828,0.8696,0.8574,0.8506,0.836,0.9142,1.1182,1.1668,1.2823,1.4962,1.554,1.5784,1.5784,1.5784,1.5784,1.5784,1.5784,1.5784,1.5784,1.5784,1.5642,1.5315,1.5029,1.4688,1.4298,1.4298,1.4298,1.4298,1.4298,1.4298,1.4202,1.3221,1.2145,1.1072,1.0047,0.892,0.7919,0.7838,0.7672,0.7478,0.7443,0.7265,0.7095,0.7095,0.7095,0.7095,0.7095,0.7095,0.7095,0.7095,0.7095,0.7095,0.7095,0.7095,0.7095,0.7095,0.7095,0.7095,0.7095,0.7095,0.7095,0.7095,0.7095,0.7095,0.7095,0.7095,0.7095,0.7095,0.7095,0.7095,0.7095,0.7095,0.7095,0.7095,0.7095,0.7095,0.7095,0.7095,0.7095,0.7095,0.7095,0.7095,0.7095,0.7095,0.7095,0.7095,0.7095,0.7095,0.7095,0.7095,0.7095,0.5706,0.0,0.7321,0.7823,0.8156,0.0,0.8768,0.8881,0.8881,0.8826,0.8881,0.8826,0.854,0.8465,0.8449,0.8449,0.843,0.8523,0.8804,0.875,0.8672,0.8672,0.8537,0.8397,0.8333,0.8245,0.8826,1.0301,1.1312,1.2581,1.4196,1.5255,1.5784,1.5784,1.5784,1.5784,1.5784,1.5784,1.5784,1.5784,1.5784,1.5594,1.5178,1.4885,1.4592,1.4298,1.4298,1.4298,1.4298,1.4298,1.4298,1.4148,1.2393,1.1512,1.0974,0.9217,0.8248,0.7848,0.7848,0.7658,0.7456,0.7456,0.7288,0.7095,0.7095,0.7095,0.7095,0.7095,0.7095,0.7095,0.7095,0.7095,0.7095,0.7095,0.7095,0.7095,0.7095,0.7095,0.7095,0.7095,0.7095,0.7095,0.7095,0.7095,0.7095,0.7095,0.7095,0.7095,0.7095,0.7095,0.7095,0.7095,0.7095,0.7095,0.7095,0.7095,0.7095,0.7095,0.7095,0.7095,0.7095,0.7095,0.7095,0.7095,0.7095,0.7095,0.7095,0.7095,0.7095,0.7095,0.7095,0.7095,0.0,0.0,0.7268,0.0,0.7881,0.8156,0.0,0.8712,0.8826,0.8598,0.8712,0.8826,0.854,0.8388,0.831,0.831,0.8204,0.8226,0.849,0.8526,0.8513,0.8513,0.8387,0.8344,0.8323,0.815,0.8702,1.0293,1.1312,1.2581,1.4196,1.5255,1.5784,1.5784,1.5784,1.5784,1.5784,1.5784,1.5784,1.5784,1.5784,1.5683,1.5452,1.5172,1.479,1.4298,1.4298,1.4298,1.4298,1.4298,1.4298,1.425,1.4004,1.278,1.117,1.0877,0.9592,0.7961,0.7961,0.7818,0.757,0.757,0.7377,0.7095,0.7095,0.7095,0.7095,0.7095,0.7095,0.7095,0.7095,0.7095,0.7095,0.7095,0.7095,0.7095,0.7095,0.7095,0.7095,0.7095,0.7095,0.7095,0.7095,0.7095,0.7095,0.7095,0.7095,0.7095,0.7095,0.7095,0.7095,0.7095,0.7095,0.7095,0.7095,0.7095,0.7095,0.7095,0.7095,0.7095,0.7095,0.7095,0.7095,0.7095,0.7095,0.7095,0.7095,0.7095,0.7095,0.7095,0.7095,0.7095,0.721,0.721,0.7321,0.0,0.7934,0.81,0.8602,0.8826,0.8826,0.8543,0.8536,0.8429,0.7986,0.7832,0.7825,0.7912,0.7846,0.796,0.843,0.8414,0.8364,0.8364,0.8231,0.814,0.814,0.8029,0.8333,0.9217,1.0925,1.229,1.3119,1.486,1.5784,1.5784,1.5784,1.5784,1.5784,1.5784,1.5784,1.5784,1.5784,1.5689,1.5493,1.522,1.4885,1.4544,1.4394,1.4298,1.4298,1.4298,1.4298,1.4196,1.3028,1.1999,1.1023,0.9854,0.8825,0.7988,0.7988,0.7845,0.76,0.76,0.739,0.7095,0.7095,0.7095,0.7095,0.7095,0.7095,0.7095,0.7095,0.7095,0.7095,0.7095,0.7095,0.7095,0.7095,0.7095,0.7095,0.7095,0.7095,0.7095,0.7095,0.7095,0.7095,0.7095,0.7095,0.7095,0.7095,0.7095,0.7095,0.7095,0.7095,0.7095,0.7095,0.7095,0.7095,0.7095,0.7095,0.7095,0.7095,0.7095,0.7095,0.7095,0.7095,0.7095,0.7095,0.7095,0.7095,0.7095,0.7095,0.7095,0.0,0.0,0.7395,0.787,0.7989,0.8156,0.0,0.8826,0.8702,0.8384,0.8189,0.7882,0.7327,0.7262,0.7393,0.7509,0.7513,0.7699,0.8267,0.8279,0.8211,0.8211,0.8109,0.7988,0.7988,0.7988,0.8088,0.8382,1.0534,1.195,1.229,1.4472,1.5737,1.5784,1.5784,1.5784,1.5784,1.5784,1.5784,1.5784,1.5784,1.5737,1.5588,1.5267,1.4943,1.4684,1.4411,1.4298,1.4298,1.4298,1.4298,1.4094,1.2281,1.1419,1.097,0.9068,0.8202,0.7988,0.7988,0.7845,0.76,0.76,0.739,0.7095,0.7095,0.7095,0.7095,0.7095,0.7095,0.7095,0.7095,0.7095,0.7095,0.7095,0.7095,0.7095,0.7095,0.7095,0.7095,0.7095,0.7095,0.7095,0.7095,0.7095,0.7095,0.7095,0.7095,0.7095,0.7095,0.7095,0.7095,0.7095,0.7095,0.7095,0.7095,0.7095,0.7095,0.7095,0.7095,0.7095,0.7095,0.7095,0.7095,0.7095,0.7095,0.7095,0.7095,0.7095,0.7095,0.7095,0.7095,0.7095,0.0,0.7895,0.0,0.7904,0.7989,0.81,0.8432,0.854,0.8391,0.7988,0.7687,0.7285,0.673,0.6901,0.7159,0.7352,0.7291,0.7409,0.7962,0.8005,0.8002,0.8002,0.7995,0.7988,0.7988,0.7988,0.8088,0.8382,1.0391,1.1804,1.229,1.4328,1.5588,1.5778,1.5784,1.5784,1.5784,1.5784,1.5784,1.5784,1.5784,1.5778,1.5784,1.5315,1.493,1.4682,1.4421,1.4298,1.4298,1.4298,1.4298,1.4172,1.2928,1.1917,1.1049,0.9795,0.8784,0.7988,0.7988,0.7845,0.76,0.76,0.739,0.7095,0.7095,0.7095,0.7095,0.7095,0.7095,0.7095,0.7095,0.7095,0.7095,0.7095,0.7095,0.7095,0.7095,0.7095,0.7095,0.7095,0.7095,0.7095,0.7095,0.7095,0.7095,0.7095,0.7095,0.7095,0.7095,0.7095,0.7095,0.7095,0.7095,0.7095,0.7095,0.7095,0.7095,0.7095,0.7095,0.7095,0.7095,0.7095,0.7095,0.7095,0.7095,0.7095,0.7095,0.7095,0.7095,0.7095,0.7095,0.7095,0.0,0.0,0.0,0.7847,0.8025,0.8217,0.8189,0.8318,0.8332,0.7708,0.7398,0.7129,0.67,0.6673,0.6904,0.7226,0.7219,0.7388,0.7939,0.7988,0.7988,0.7988,0.7988,0.7988,0.7988,0.7988,0.8038,0.8137,1.0293,1.1707,1.2047,1.4226,1.5588,1.5778,1.5784,1.5784,1.5784,1.5645,1.5645,1.5778,1.5451,1.5371,1.5498,1.4844,1.4472,1.4377,1.3979,1.3888,1.4032,1.3863,1.3894,1.3926,1.2631,1.16,1.0688,0.9654,0.8661,0.7909,0.7958,0.7845,0.76,0.76,0.739,0.7095,0.7095,0.7095,0.7095,0.7095,0.7095,0.7095,0.7095,0.7095,0.7095,0.7095,0.7095,0.7095,0.7095,0.7095,0.7095,0.7095,0.7095,0.7095,0.7095,0.7095,0.7095,0.7095,0.7095,0.7095,0.7095,0.7095,0.7095,0.7095,0.7095,0.7095,0.7095,0.7095,0.7095,0.7095,0.7095,0.7095,0.7095,0.7095,0.7095,0.7095,0.7095,0.7095,0.7095,0.7095,0.7095,0.7095,0.7095,0.7095,0.804,0.0,0.0,0.0,0.8132,0.8205,0.8284,0.8304,0.8208,0.7741,0.7458,0.7168,0.6734,0.6661,0.6737,0.7004,0.7138,0.7338,0.7793,0.7939,0.7988,0.7988,0.7988,0.7988,0.7988,0.7988,0.7988,0.7988,0.9805,1.1219,1.1853,1.3746,1.5105,1.5784,1.5684,1.5732,1.5784,1.5638,1.5638,1.5778,1.5438,1.5304,1.5391,1.4682,1.4256,1.404,1.356,1.3532,1.3761,1.3586,1.3616,1.361,1.2005,1.1044,1.0422,0.9094,0.8215,0.7753,0.7855,0.7729,0.7522,0.7522,0.735,0.7095,0.7095,0.7095,0.7095,0.7095,0.7095,0.7095,0.7095,0.7095,0.7095,0.7095,0.7095,0.7095,0.7095,0.7095,0.7095,0.7095,0.7095,0.7095,0.7095,0.7095,0.7095,0.7095,0.7095,0.7095,0.7095,0.7095,0.7095,0.7095,0.7095,0.7095,0.7095,0.7095,0.7095,0.7095,0.7095,0.7095,0.7095,0.7095,0.7095,0.7095,0.7095,0.7095,0.7095,0.7095,0.7071,0.7024,0.7024,0.7024,0.0,0.0,0.0,0.0,0.8322,0.8186,0.8746,0.8427,0.801,0.8062,0.7742,0.7298,0.6868,0.6795,0.6795,0.6795,0.7039,0.7288,0.7547,0.7842,0.7988,0.7988,0.7988,0.7988,0.7988,0.7988,0.7988,0.7988,0.897,1.0293,1.1799,1.2926,1.4232,1.5724,1.5551,1.5538,1.5764,1.5764,1.5764,1.5764,1.5751,1.5645,1.5371,1.489,1.4352,1.3755,1.3285,1.3254,1.3495,1.3495,1.3495,1.329,1.118,1.0448,1.0324,0.8238,0.7511,0.7594,0.7597,0.7499,0.7415,0.7415,0.7265,0.7095,0.7095,0.7095,0.7095,0.7095,0.7095,0.7095,0.7095,0.7095,0.7095,0.7095,0.7095,0.7095,0.7095,0.7095,0.7095,0.7095,0.7095,0.7095,0.7095,0.7095,0.7095,0.7095,0.7095,0.7095,0.7095,0.7095,0.7095,0.7095,0.7095,0.7095,0.7095,0.7095,0.7095,0.7095,0.7095,0.7095,0.7095,0.7095,0.7095,0.7095,0.7095,0.7095,0.7095,0.7095,0.7024,0.6893,0.6893,0.6889,0.8357,0.0,0.0,0.0,0.0,0.0,0.7987,0.7965,0.7928,0.7675,0.7467,0.7349,0.7112,0.6942,0.6842,0.7042,0.7138,0.7288,0.7547,0.7842,0.7988,0.7988,0.7988,0.7988,0.7988,0.7988,0.7988,0.7988,0.897,1.0194,1.1609,1.3746,1.5111,1.5478,1.5645,1.5651,1.5518,1.5518,1.5518,1.5511,1.5084,1.4843,1.4712,1.4056,1.3652,1.3463,1.2991,1.2862,1.2928,1.2928,1.3049,1.3073,1.1608,1.0626,0.9974,0.8816,0.8029,0.7451,0.756,0.7499,0.7415,0.7415,0.7265,0.7095,0.7095,0.7095,0.7095,0.7095,0.7095,0.7095,0.7095,0.7095,0.7095,0.7095,0.7095,0.7095,0.7095,0.7095,0.7095,0.7095,0.7095,0.7095,0.7095,0.7095,0.7095,0.7095,0.7095,0.7095,0.7095,0.7095,0.7095,0.7095,0.7095,0.7095,0.7095,0.7095,0.7095,0.7095,0.7095,0.7095,0.7095,0.7095,0.7095,0.7095,0.7095,0.7095,0.7095,0.7095,0.7078,0.7038,0.7038,0.6984,0.8361,0.8421,0.8487,0.818,0.0,0.0,0.8111,0.8118,0.8076,0.7894,0.7792,0.7709,0.7419,0.7244,0.7144,0.7188,0.7288,0.7441,0.7596,0.7842,0.7988,0.7988,0.7988,0.7988,0.7988,0.7988,0.7988,0.7988,0.8581,0.9752,1.1609,1.3981,1.5331,1.5404,1.5444,1.5444,1.5398,1.5277,1.5277,1.5391,1.493,1.4636,1.4472,1.3862,1.3506,1.3355,1.2918,1.2705,1.2705,1.2705,1.2801,1.2798,1.1289,1.0361,0.9763,0.8516,0.7759,0.7288,0.7377,0.735,0.7275,0.7275,0.7214,0.7095,0.7095,0.7095,0.7095,0.7095,0.7095,0.7095,0.7095,0.7095,0.7095,0.7095,0.7095,0.7095,0.7095,0.7095,0.7095,0.7095,0.7095,0.7095,0.7095,0.7095,0.7095,0.7095,0.7095,0.7095,0.7095,0.7095,0.7095,0.7095,0.7095,0.7095,0.7095,0.7095,0.7095,0.7095,0.7095,0.7095,0.7095,0.7095,0.7095,0.7095,0.7095,0.7095,0.7095,0.7095,0.7065,0.7007,0.7007,0.6964,0.8289,0.8448,0.8625,0.8472,0.8336,0.0,0.8577,0.8435,0.8282,0.8404,0.8333,0.8153,0.7719,0.7596,0.7543,0.7338,0.7444,0.7596,0.7596,0.7842,0.7988,0.7988,0.7988,0.7988,0.7988,0.7988,0.7988,0.7988,0.8233,0.941,1.175,1.3862,1.5147,1.5398,1.515,1.5182,1.5391,1.5137,1.5169,1.5344,1.5129,1.479,1.4382,1.3941,1.3627,1.3355,1.2875,1.2705,1.2705,1.2705,1.2705,1.2528,1.0616,0.9879,0.9662,0.7793,0.7095,0.7095,0.7095,0.7095,0.7095,0.7095,0.7095,0.7095,0.7095,0.7095,0.7095,0.7095,0.7095,0.7095,0.7095,0.7095,0.7095,0.7095,0.7095,0.7095,0.7095,0.7095,0.7095,0.7095,0.7095,0.7095,0.7095,0.7095,0.7095,0.7095,0.7095,0.7095,0.7095,0.7095,0.7095,0.7095,0.7095,0.7095,0.7095,0.7095,0.7095,0.7095,0.7095,0.7095,0.7095,0.7095,0.7095,0.7095,0.7095,0.7095,0.7095,0.7095,0.7031,0.691,0.691,0.6903,0.8157,0.8218,0.8319,0.8163,0.8056,0.0,0.8106,0.8076,0.8042,0.8069,0.8052,0.8025,0.7945,0.7743,0.7643,0.7839,0.7693,0.7596,0.7596,0.7842,0.7988,0.7988,0.7988,0.7988,0.7988,0.7988,0.7988,0.7988,0.9608,1.0974,1.1848,1.3903,1.5175,1.5404,1.5344,1.5337,1.5398,1.5337,1.5224,1.5095,1.5035,1.4595,1.3864,1.3602,1.3363,1.3137,1.2833,1.2705,1.2705,1.2705,1.2705,1.2528,1.0616,0.9879,0.9662,0.7793,0.7095,0.7095,0.7095,0.7095,0.7095,0.7095,0.7095,0.7095,0.7095,0.7095,0.7095,0.7095,0.7095,0.7095,0.7095,0.7095,0.7095,0.7095,0.7095,0.7095,0.7095,0.7095,0.7095,0.7095,0.7095,0.7095,0.7095,0.7095,0.7095,0.7095,0.7095,0.7095,0.7095,0.7095,0.7095,0.7095,0.7095,0.7095,0.7095,0.7095,0.7095,0.7095,0.7095,0.7095,0.7095,0.7095,0.7095,0.7095,0.7095,0.7095,0.7095,0.7095,0.7082,0.7055,0.7055,0.6994,0.8414,0.8486,0.8547,0.8316,0.8262,0.0,0.0,0.8153,0.8153,0.8153,0.8153,0.8133,0.8005,0.7892,0.7842,0.7992,0.7892,0.7793,0.7793,0.7892,0.7988,0.7988,0.7988,0.7988,0.7988,0.7988,0.7988,0.7988,0.9998,1.1365,1.1707,1.3859,1.5139,1.5213,1.5212,1.5177,1.5177,1.489,1.4743,1.4743,1.464,1.4326,1.3913,1.3568,1.3355,1.3228,1.2875,1.2705,1.2705,1.2705,1.2705,1.2528,1.0616,0.9879,0.9662,0.7793,0.7095,0.7183,0.7625,0.7492,0.7183,0.7665,0.7492,0.7095,0.7095,0.7095,0.7095,0.7095,0.7095,0.7095,0.7095,0.7095,0.7095,0.7095,0.7095,0.7095,0.7095,0.7095,0.7095,0.7095,0.7095,0.7095,0.7095,0.7095,0.7095,0.7095,0.7095,0.7095,0.7095,0.7095,0.7095,0.7095,0.7095,0.7095,0.7095,0.7095,0.7095,0.7095,0.7095,0.7095,0.7095,0.7095,0.7095,0.7095,0.7095,0.7095,0.7095,0.7095,0.7095,0.7095,0.7095,0.7058,0.8598,0.8619,0.8652,0.8459,0.8397,0.8367,0.0,0.0,0.0,0.8225,0.8225,0.8187,0.8012,0.7988,0.7988,0.7988,0.7988,0.7988,0.7988,0.7988,0.7988,0.7988,0.7988,0.7988,0.7988,0.7988,0.7988,0.7988,0.9998,1.1317,1.1609,1.3811,1.5117,1.5106,1.5053,1.5035,1.5095,1.4469,1.4289,1.4516,1.4282,1.4099,1.3955,1.3568,1.3349,1.3222,1.2875,1.2705,1.2705,1.2705,1.2705,1.2528,1.0616,0.9879,0.9662,0.7793,0.7095,0.7228,0.8193,0.7885,0.7272,0.8193,0.7885,0.7095,0.7095,0.7095,0.7095,0.7095,0.7095,0.7095,0.7095,0.7095,0.7095,0.7095,0.7095,0.7095,0.7095,0.7095,0.7095,0.7095,0.7095,0.7095,0.7095,0.7095,0.7095,0.7095,0.7095,0.7095,0.7095,0.7095,0.7095,0.7095,0.7095,0.7095,0.7095,0.7095,0.7095,0.7095,0.7095,0.7095,0.7095,0.7272,0.7272,0.7095,0.7272,0.7272,0.7095,0.7095,0.7095,0.7095,0.7095,0.7095,0.8137,0.8076,0.8083,0.8049,0.8039,0.8035,0.8019,0.0,0.8015,0.8015,0.0,0.8012,0.7992,0.0,0.0,0.7988,0.7988,0.7988,0.7988,0.7988,0.7988,0.7988,0.7988,0.7988,0.7988,0.7988,0.7988,0.7988,0.9998,1.1317,1.1609,1.3811,1.5207,1.5447,1.5159,1.5129,1.5344,1.4763,1.4489,1.4522,1.4489,1.4114,1.3483,1.3434,1.3179,1.279,1.2705,1.2705,1.2705,1.2705,1.2705,1.2528,1.0616,0.9879,0.9662,0.7793,0.7095,0.7228,0.8193,0.7885,0.7272,0.8193,0.7885,0.7095,0.7095,0.7095,0.7095,0.7095,0.7095,0.7095,0.7095,0.7095,0.7095,0.7095,0.7095,0.7095,0.7095,0.7095,0.7095,0.7095,0.7095,0.7095,0.7095,0.7095,0.7095,0.7095,0.7095,0.7095,0.7095,0.7095,0.7095,0.7095,0.7095,0.7095,0.7095,0.7095,0.7095,0.7095,0.7095,0.7095,0.7095,0.7885,0.7929,0.7095,0.7929,0.7929,0.7095,0.7095,0.7095,0.7095,0.7095,0.7095,0.833,0.8296,0.8275,0.8194,0.8174,0.815,0.8012,0.7988,0.7988,0.7988,0.0,0.0,0.0,0.0,0.0,0.0,0.7988,0.7988,0.7988,0.7988,0.7988,0.7988,0.7988,0.7988,0.7988,0.7988,0.8025,0.8167,1.0061,1.1276,1.1449,1.379,1.5124,1.5267,1.5246,1.519,1.5189,1.473,1.4436,1.4269,1.4269,1.4031,1.3561,1.3434,1.3222,1.2918,1.279,1.2705,1.2705,1.2705,1.2705,1.2528,1.0616,0.9879,0.9662,0.7793,0.7448,0.8061,0.8973,0.8711,0.7885,0.7753,0.7404,0.7183,0.7753,0.7536,0.7228,0.7753,0.7536,0.7095,0.7095,0.7489,0.7929,0.7929,0.8317,0.858,0.8013,0.7929,0.7753,0.7183,0.7095,0.7095,0.7095,0.7095,0.7095,0.7095,0.7095,0.7095,0.7095,0.7095,0.7095,0.7095,0.7095,0.7095,0.7095,0.7095,0.7095,0.7095,0.7095,0.736,0.7885,0.8281,0.8584,0.8707,0.8584,0.8324,0.7929,0.736,0.7095,0.7095,0.7095,0.7095,0.8374,0.836,0.8336,0.8231,0.8208,0.8177,0.8015,0.7988,0.8002,0.8096,0.8102,0.0,0.0,0.0,0.8147,0.8109,0.0,0.8089,0.7995,0.7988,0.7988,0.7988,0.7988,0.7988,0.7988,0.7988,0.8102,0.831,0.9809,1.0969,1.1377,1.3404,1.4736,1.5083,1.5224,1.5212,1.5015,1.4669,1.4376,1.4088,1.4088,1.3913,1.361,1.3483,1.3264,1.2966,1.279,1.2705,1.2705,1.2705,1.2705,1.2528,1.0616,1.0053,1.0053,0.8185,0.7929,0.8671,0.9884,0.9845,0.9061,0.7885,0.7665,0.7969,0.8364,0.8189,0.7969,0.8364,0.8017,0.7492,0.7492,0.7973,0.8584,0.8803,0.9405,0.9705,0.9017,0.8886,0.8667,0.8013,0.7881,0.7881,0.7881,0.7665,0.7492,0.7492,0.7709,0.7881,0.7881,0.7881,0.7881,0.7881,0.7881,0.7749,0.7489,0.7492,0.736,0.7095,0.7095,0.7401,0.8105,0.8627,0.9104,0.9492,0.9366,0.9152,0.8886,0.8189,0.7753,0.7492,0.7228,0.7095,0.8046,0.8005,0.8002,0.7998,0.7995,0.7995,0.7992,0.7988,0.8032,0.8231,0.8313,0.8306,0.8442,0.8469,0.8421,0.8337,0.8313,0.0,0.0,0.7988,0.7988,0.7988,0.7988,0.7988,0.7988,0.7988,0.8102,0.831,0.9118,1.0177,1.1326,1.2518,1.3757,1.5083,1.5031,1.5022,1.5015,1.4669,1.4376,1.4088,1.4088,1.387,1.3398,1.3398,1.3137,1.2705,1.2705,1.2705,1.2705,1.2705,1.2705,1.2528,1.0616,1.0448,1.102,0.9152,0.8456,0.8759,1.0626,1.1241,1.089,0.9065,0.9056,0.9662,0.8759,0.91,0.9623,0.8759,0.85,0.8456,0.8456,0.85,0.8715,0.9618,0.9879,0.9879,0.9879,0.9836,0.9836,0.9836,0.9792,0.9792,0.9792,0.9061,0.8456,0.8456,0.9231,0.9792,0.9792,0.9792,0.9792,0.9792,0.9792,0.9449,0.8544,0.8456,0.8061,0.7139,0.7095,0.7095,0.7139,0.8877,0.9449,0.854,1.0279,1.0755,0.9836,0.9836,0.9362,0.8456,0.7536,0.7095,0.8005,0.7988,0.7988,0.7988,0.7988,0.7988,0.7988,0.7988,0.8032,0.8238,0.8323,0.8368,0.8455,0.8482,0.8435,0.8344,0.8323,0.8218,0.0,0.7988,0.7988,0.7988,0.7988,0.7988,0.7988,0.7988,0.8102,0.831,0.9174,1.0319,1.1578,1.2644,1.3915,1.5308,1.5356,1.5305,1.5251,1.515,1.4856,1.4369,1.4246,1.3883,1.3398,1.327,1.3094,1.2966,1.279,1.279,1.2966,1.279,1.2705,1.2528,1.0616,1.0448,1.1063,0.9196,0.9279,1.0453,1.1063,1.1284,1.1106,0.984,0.9662,0.9966,1.0279,1.0144,0.9966,1.0279,0.9884,0.9405,0.9405,0.9889,1.0409,1.0755,1.1316,1.1574,1.0971,1.0842,1.0621,1.0009,0.9879,0.9879,0.9879,1.0144,1.0149,0.9536,0.9705,0.9879,0.9879,0.9879,0.9879,0.9879,0.9879,0.9749,0.9449,0.9405,0.9274,0.8965,0.8969,0.9231,0.984,1.0496,1.0971,1.1273,1.1278,1.1149,1.0842,1.0004,0.9464,0.917,0.8657,0.7912,0.7988,0.7988,0.7988,0.7988,0.7988,0.8005,0.8109,0.8123,0.8163,0.8316,0.8387,0.8438,0.8476,0.857,0.8564,0.8364,0.8364,0.8272,0.0,0.7988,0.7988,0.7988,0.7988,0.7988,0.7988,0.7988,0.8123,0.833,0.8904,1.0037,1.1789,1.2349,1.3441,1.5293,1.5265,1.5173,1.5127,1.512,1.4832,1.4254,1.4117,1.3795,1.3313,1.3137,1.3052,1.2966,1.279,1.279,1.2924,1.279,1.2705,1.2528,1.1009,1.0971,1.158,0.971,1.0193,1.18,1.18,1.18,1.1623,1.0707,1.0621,1.0966,1.1235,1.1101,1.0966,1.1235,1.0842,1.0404,1.0404,1.0842,1.137,1.1714,1.2272,1.2534,1.1929,1.18,1.1623,1.1009,1.0918,1.0918,1.0918,1.1402,1.1494,1.0534,1.0659,1.0918,1.0918,1.0918,1.0918,1.0918,1.0918,1.075,1.0448,1.0096,0.9879,0.9879,0.9879,1.0183,1.0799,1.1106,1.1585,1.2186,1.1929,1.18,1.18,1.1038,1.0451,1.0149,0.9854,0.9041]}]]